[[{"header":{"parameterUnit":"m.s-1","parameterCategory":1,"la1":30.6,"la2":28.766,"lo1":-90.7593,"lo2":-88.6598,"dx":0.0162,"dy":0.0183,"nx":116,"ny":114,"refTime":"2022-11-09T06:00:00:Z","depth":0,"parameterNumber":2,"parameterNumberName":"U-component_of_WINDS"},"data":[0.0,0.0,0.0,0.0,0.0,0.0,0.0,0.0,0.0,0.0,0.0,0.0,0.0,0.0,0.0,0.0,0.0,0.0,0.0,0.0,0.0,0.0,0.0,0.0,0.0,0.0,0.0,0.0,0.0,0.0,0.0,0.0,0.0,0.0,0.0,0.0,0.0,0.0,0.0,0.0,0.0,0.0,0.0,0.0,0.0,0.0,0.0,0.0,0.0,0.0,0.0,0.0,0.0,0.0,0.0,0.0,0.0,0.0,0.0,0.0,0.0,0.0,0.0,0.0,0.0,0.0,0.0,0.0,0.0,0.0,0.0,0.0,0.0,0.0,0.0,0.0,0.0,0.0,0.0,0.0,0.0,0.0,0.0,0.0,0.0,0.0,0.0,0.0,0.0,0.0,0.0,0.0,0.0,0.0,0.0,0.0,0.0,0.0,0.0,0.0,0.0,0.0,0.0,0.0,0.0,0.0,0.0,0.0,0.0,0.0,0.0,0.0,0.0,0.0,0.0,0.0,0.0,0.0,0.0,0.0,0.0,0.0,0.0,0.0,0.0,0.0,0.0,0.0,0.0,0.0,0.0,0.0,0.0,0.0,0.0,0.0,0.0,0.0,0.0,0.0,0.0,0.0,0.0,0.0,0.0,0.0,0.0,0.0,0.0,0.0,0.0,0.0,0.0,0.0,0.0,0.0,0.0,0.0,0.0,0.0,0.0,0.0,0.0,0.0,0.0,0.0,0.0,0.0,0.0,0.0,0.0,0.0,0.0,0.0,0.0,0.0,0.0,0.0,0.0,0.0,0.0,0.0,0.0,0.0,0.0,0.0,0.0,0.0,0.0,0.0,0.0,0.0,0.0,0.0,0.0,0.0,0.0,0.0,0.0,0.0,0.0,0.0,0.0,0.0,0.0,0.0,0.0,0.0,0.0,0.0,0.0,0.0,0.0,0.0,0.0,0.0,0.0,0.0,0.0,0.0,0.0,0.0,0.0,0.0,0.0,0.0,0.0,0.0,0.0,0.0,0.0,0.0,0.0,0.0,0.0,0.0,0.0,0.0,0.0,0.0,0.0,0.0,0.0,0.0,0.0,0.0,0.0,0.0,0.0,0.0,0.0,0.0,0.0,0.0,0.0,0.0,0.0,0.0,0.0,0.0,0.0,0.0,0.0,0.0,0.0,0.0,0.0,0.0,0.0,0.0,0.0,0.0,0.0,0.0,0.0,0.0,0.0,0.0,0.0,0.0,0.0,0.0,0.0,0.0,0.0,0.0,0.0,0.0,0.0,0.0,0.0,0.0,0.0,0.0,0.0,0.0,0.0,0.0,0.0,0.0,0.0,0.0,0.0,0.0,0.0,0.0,0.0,0.0,0.0,0.0,0.0,0.0,0.0,0.0,0.0,0.0,0.0,0.0,0.0,0.0,0.0,0.0,0.0,0.0,0.0,0.0,0.0,0.0,0.0,0.0,0.0,0.0,0.0,0.0,0.0,0.0,0.0,0.0,0.0,0.0,0.0,0.0,0.0,0.0,0.0,0.0,0.0,0.0,0.0,0.0,0.0,0.0,0.0,0.0,0.0,0.0,0.0,0.0,0.0,0.0,0.0,0.0,0.0,0.0,0.0,0.0,0.0,0.0,0.0,0.0,0.0,0.0,0.0,0.0,0.0,0.0,0.0,0.0,0.0,0.0,0.0,0.0,0.0,0.0,0.0,0.0,0.0,0.0,0.0,0.0,0.0,0.0,0.0,0.0,0.0,0.0,0.0,0.0,0.0,0.0,0.0,0.0,0.0,0.0,0.0,0.0,0.0,0.0,0.0,0.0,0.0,0.0,0.0,0.0,0.0,0.0,0.0,0.0,0.0,0.0,0.0,0.0,0.0,0.0,0.0,0.0,0.0,0.0,0.0,0.0,0.0,0.0,0.0,0.0,0.0,0.0,0.0,0.0,0.0,0.0,0.0,0.0,0.0,0.0,0.0,0.0,0.0,0.0,0.0,0.0,0.0,0.0,0.0,0.0,0.0,0.0,0.0,0.0,0.0,0.0,0.0,0.0,0.0,0.0,0.0,0.0,0.0,0.0,0.0,0.0,0.0,0.0,0.0,0.0,0.0,0.0,0.0,0.0,0.0,0.0,0.0,0.0,0.0,0.0,0.0,0.0,0.0,0.0,0.0,0.0,0.0,0.0,0.0,0.0,0.0,0.0,0.0,0.0,0.0,0.0,0.0,0.0,0.0,0.0,0.0,0.0,0.0,0.0,0.0,0.0,0.0,0.0,0.0,0.0,0.0,0.0,0.0,0.0,0.0,0.0,0.0,0.0,0.0,0.0,0.0,0.0,0.0,0.0,0.0,0.0,0.0,0.0,0.0,0.0,0.0,0.0,0.0,0.0,0.0,0.0,0.0,0.0,0.0,0.0,0.0,0.0,0.0,0.0,0.0,0.0,0.0,0.0,0.0,0.0,0.0,0.0,0.0,0.0,0.0,0.0,0.0,0.0,0.0,0.0,0.0,0.0,0.0,0.0,0.0,0.0,0.0,0.0,0.0,0.0,0.0,0.0,0.0,0.0,0.0,0.0,0.0,0.0,0.0,0.0,0.0,0.0,0.0,0.0,0.0,0.0,0.0,0.0,0.0,0.0,0.0,0.0,0.0,0.0,0.0,0.0,0.0,0.0,0.0,0.0,0.0,0.0,0.0,0.0,0.0,0.0,0.0,0.0,0.0,0.0,0.0,0.0,0.0,0.0,0.0,0.0,0.0,0.0,0.0,0.0,0.0,0.0,0.0,0.0,0.0,0.0,0.0,0.0,0.0,0.0,0.0,0.0,0.0,0.0,0.0,0.0,0.0,0.0,0.0,0.0,0.0,0.0,0.0,0.0,0.0,0.0,0.0,0.0,0.0,0.0,0.0,0.0,0.0,0.0,0.0,0.0,0.0,0.0,0.0,0.0,0.0,0.0,0.0,0.0,0.0,0.0,0.0,0.0,0.0,0.0,0.0,0.0,0.0,0.0,0.0,0.0,0.0,0.0,0.0,0.0,0.0,0.0,0.0,0.0,0.0,0.0,0.0,0.0,0.0,0.0,0.0,0.0,0.0,0.0,0.0,0.0,0.0,0.0,0.0,0.0,0.0,0.0,0.0,0.0,0.0,0.0,0.0,0.0,0.0,0.0,0.0,0.0,0.0,0.0,0.0,0.0,0.0,0.0,0.0,0.0,0.0,0.0,0.0,0.0,0.0,0.0,0.0,0.0,0.0,0.0,0.0,0.0,0.0,0.0,0.0,0.0,0.0,0.0,0.0,0.0,0.0,0.0,0.0,0.0,0.0,0.0,0.0,0.0,0.0,0.0,0.0,0.0,0.0,0.0,0.0,0.0,0.0,0.0,0.0,0.0,0.0,0.0,0.0,0.0,0.0,0.0,0.0,0.0,0.0,0.0,0.0,0.0,0.0,0.0,0.0,0.0,0.0,0.0,0.0,0.0,0.0,0.0,0.0,0.0,0.0,0.0,0.0,0.0,0.0,0.0,0.0,0.0,0.0,0.0,0.0,0.0,0.0,0.0,0.0,0.0,0.0,0.0,0.0,0.0,0.0,0.0,0.0,0.0,0.0,0.0,0.0,0.0,0.0,0.0,0.0,0.0,0.0,0.0,0.0,0.0,0.0,0.0,0.0,0.0,0.0,0.0,0.0,0.0,0.0,0.0,0.0,0.0,0.0,0.0,0.0,0.0,0.0,0.0,0.0,0.0,0.0,0.0,0.0,0.0,0.0,0.0,0.0,0.0,0.0,0.0,0.0,0.0,0.0,0.0,0.0,0.0,0.0,0.0,0.0,0.0,0.0,0.0,0.0,0.0,0.0,0.0,0.0,0.0,0.0,0.0,0.0,0.0,0.0,0.0,0.0,0.0,0.0,0.0,0.0,0.0,0.0,0.0,0.0,0.0,0.0,0.0,0.0,0.0,0.0,0.0,0.0,0.0,0.0,0.0,0.0,0.0,0.0,0.0,0.0,0.0,0.0,0.0,0.0,0.0,0.0,0.0,0.0,0.0,0.0,0.0,0.0,0.0,0.0,0.0,0.0,0.0,0.0,0.0,0.0,0.0,0.0,0.0,0.0,0.0,0.0,0.0,0.0,0.0,0.0,0.0,0.0,0.0,0.0,0.0,0.0,0.0,0.0,0.0,0.0,0.0,0.0,0.0,0.0,0.0,0.0,0.0,0.0,0.0,0.0,0.0,0.0,0.0,0.0,0.0,0.0,0.0,0.0,0.0,0.0,0.0,0.0,0.0,0.0,0.0,0.0,0.0,0.0,0.0,0.0,0.0,0.0,0.0,0.0,0.0,0.0,0.0,0.0,0.0,0.0,0.0,0.0,0.0,0.0,0.0,0.0,0.0,0.0,0.0,0.0,0.0,0.0,0.0,0.0,0.0,0.0,0.0,0.0,0.0,0.0,0.0,0.0,0.0,0.0,0.0,0.0,0.0,0.0,0.0,0.0,0.0,0.0,0.0,0.0,0.0,0.0,0.0,0.0,0.0,0.0,0.0,0.0,0.0,0.0,0.0,0.0,0.0,0.0,0.0,0.0,0.0,0.0,0.0,0.0,0.0,0.0,0.0,0.0,0.0,0.0,0.0,0.0,0.0,0.0,0.0,0.0,0.0,0.0,0.0,0.0,0.0,0.0,0.0,0.0,0.0,0.0,0.0,0.0,0.0,0.0,0.0,0.0,0.0,0.0,0.0,0.0,0.0,0.0,0.0,0.0,0.0,0.0,0.0,0.0,0.0,0.0,0.0,0.0,0.0,0.0,0.0,0.0,0.0,0.0,0.0,0.0,0.0,0.0,0.0,0.0,0.0,0.0,0.0,0.0,0.0,0.0,0.0,0.0,0.0,0.0,0.0,0.0,0.0,0.0,0.0,0.0,0.0,0.0,0.0,0.0,0.0,0.0,0.0,0.0,0.0,0.0,0.0,0.0,0.0,0.0,0.0,0.0,0.0,0.0,0.0,0.0,0.0,0.0,0.0,0.0,0.0,0.0,0.0,0.0,0.0,0.0,0.0,0.0,0.0,0.0,0.0,0.0,0.0,0.0,0.0,0.0,0.0,0.0,0.0,0.0,0.0,0.0,0.0,0.0,0.0,0.0,0.0,0.0,0.0,0.0,0.0,0.0,0.0,0.0,0.0,0.0,0.0,0.0,0.0,0.0,0.0,0.0,0.0,0.0,0.0,0.0,0.0,0.0,0.0,0.0,0.0,0.0,0.0,0.0,0.0,0.0,0.0,0.0,0.0,0.0,0.0,0.0,0.0,0.0,0.0,0.0,0.0,0.0,0.0,0.0,0.0,0.0,0.0,0.0,0.0,0.0,0.0,0.0,0.0,0.0,0.0,0.0,0.0,0.0,0.0,0.0,0.0,0.0,0.0,0.0,0.0,0.0,0.0,0.0,0.0,0.0,0.0,0.0,0.0,0.0,0.0,0.0,0.0,0.0,0.0,0.0,0.0,0.0,0.0,0.0,0.0,0.0,0.0,0.0,0.0,0.0,0.0,0.0,0.0,0.0,0.0,0.0,0.0,0.0,0.0,0.0,0.0,0.0,0.0,0.0,0.0,0.0,0.0,0.0,0.0,0.0,0.0,0.0,0.0,0.0,0.0,0.0,0.0,0.0,0.0,0.0,0.0,0.0,0.0,0.0,0.0,0.0,0.0,0.0,0.0,0.0,0.0,0.0,0.0,0.0,0.0,0.0,0.0,0.0,0.0,0.0,0.0,0.0,0.0,0.0,0.0,0.0,0.0,0.0,0.0,0.0,0.0,0.0,0.0,0.0,0.0,0.0,0.0,0.0,0.0,0.0,0.0,0.0,0.0,0.0,0.0,0.0,0.0,0.0,0.0,0.0,0.0,0.0,0.0,0.0,0.0,0.0,0.0,0.0,0.0,0.0,0.0,0.0,0.0,0.0,0.0,0.0,0.0,0.0,0.0,0.0,0.0,0.0,0.0,0.0,0.0,0.0,0.0,0.0,0.0,0.0,0.0,0.0,0.0,0.0,0.0,0.0,0.0,0.0,0.0,0.0,0.0,0.0,0.0,0.0,0.0,0.0,0.0,0.0,0.0,0.0,0.0,2.4977,0.0,0.0,0.0,0.0,0.0,0.0,0.0,0.0,0.0,0.0,0.0,0.0,0.0,0.0,0.0,0.0,0.0,0.0,0.0,0.0,0.0,0.0,0.0,0.0,2.1171,2.1274,2.1557,2.1538,0.0,0.0,0.0,0.0,0.0,0.0,0.0,2.0213,2.0213,2.0614,2.1468,2.1719,2.2698,2.4305,2.3728,2.3025,2.2246,0.0,0.0,0.0,0.0,0.0,0.0,0.0,0.0,0.0,0.0,0.0,0.0,0.0,0.0,0.0,0.0,0.0,0.0,0.0,0.0,0.0,0.0,0.0,0.0,0.0,0.0,0.0,0.0,0.0,0.0,0.0,0.0,0.0,0.0,0.0,0.0,0.0,0.0,0.0,0.0,0.0,0.0,0.0,0.0,0.0,0.0,0.0,0.0,0.0,0.0,0.0,0.0,0.0,0.0,0.0,0.0,0.0,0.0,0.0,0.0,0.0,0.0,0.0,0.0,0.0,0.0,0.0,0.0,0.0,0.0,0.0,2.4453,0.0,0.0,0.0,0.0,0.0,0.0,0.0,0.0,0.0,0.0,0.0,0.0,0.0,0.0,0.0,0.0,0.0,0.0,0.0,0.0,0.0,1.93,2.0472,2.0729,2.1096,2.1594,2.1719,2.1694,2.1493,2.1568,0.0,0.0,0.0,0.0,2.0966,2.1393,2.1995,2.2749,2.3602,2.4707,2.6038,2.6515,2.5762,2.3954,2.2749,0.0,0.0,0.0,0.0,0.0,0.0,0.0,0.0,0.0,0.0,0.0,0.0,0.0,0.0,0.0,0.0,0.0,0.0,0.0,0.0,0.0,0.0,0.0,0.0,0.0,0.0,0.0,0.0,0.0,0.0,0.0,0.0,0.0,0.0,0.0,0.0,0.0,0.0,0.0,0.0,0.0,0.0,0.0,0.0,0.0,0.0,0.0,0.0,0.0,0.0,0.0,0.0,0.0,0.0,0.0,0.0,0.0,0.0,0.0,0.0,0.0,0.0,0.0,2.4727,2.4766,2.4766,2.4844,2.4863,2.4863,2.4785,2.5176,2.5801,0.0,0.0,0.0,0.0,0.0,0.0,0.0,0.0,0.0,0.0,0.0,0.0,0.0,0.0,0.0,0.0,0.0,0.0,0.0,0.0,1.8904,2.0547,2.1096,2.1594,2.2146,2.2648,2.2498,2.1543,2.1945,0.0,0.0,0.0,2.1669,2.2096,2.2171,2.2949,2.4481,2.649,2.757,2.777,2.7846,2.772,2.7369,2.5762,2.4304,2.3013,0.0,0.0,0.0,0.0,0.0,0.0,0.0,0.0,0.0,0.0,0.0,0.0,0.0,0.0,0.0,0.0,0.0,0.0,0.0,0.0,0.0,0.0,0.0,0.0,0.0,0.0,0.0,0.0,0.0,0.0,0.0,0.0,0.0,0.0,0.0,0.0,0.0,0.0,0.0,0.0,0.0,2.4158,2.374,0.0,0.0,0.0,0.0,0.0,0.0,0.0,0.0,0.0,0.0,0.0,0.0,0.0,0.0,2.498,2.498,2.5176,2.5566,2.5957,2.6133,2.6133,2.6504,2.668,2.666,2.6289,0.0,2.6328,2.6562,0.0,0.0,0.0,0.0,0.0,0.0,0.0,0.0,0.0,0.0,0.0,0.0,0.0,0.0,0.0,0.0,0.0,0.0,0.0,0.0,0.0,2.1895,2.2774,2.3653,2.4506,2.4531,2.3427,2.3577,0.0,0.0,2.2246,2.2523,2.2774,2.3401,2.4682,2.6666,2.7946,2.8725,2.9051,2.8393,2.8139,2.8013,2.6705,2.5392,2.4048,2.2252,0.0,0.0,0.0,0.0,0.0,0.0,0.0,0.0,0.0,0.0,0.0,0.0,0.0,0.0,0.0,0.0,0.0,0.0,0.0,0.0,0.0,0.0,0.0,0.0,0.0,0.0,0.0,0.0,0.0,0.0,0.0,0.0,0.0,0.0,0.0,0.0,0.0,0.0,0.0,2.4956,2.5284,2.5227,2.5227,2.5104,0.0,0.0,0.0,0.0,0.0,0.0,0.0,0.0,0.0,2.5137,2.5156,2.5488,2.6152,2.6172,2.6269,2.6465,2.6641,2.6738,2.6738,2.6077,2.5722,2.5722,2.4927,2.4649,2.4736,2.6294,2.6992,2.6894,0.0,0.0,0.0,0.0,2.5239,2.5434,0.0,0.0,0.0,0.0,0.0,0.0,0.0,0.0,0.0,0.0,0.0,0.0,2.1744,2.3025,2.4155,2.5159,2.5988,2.5988,2.4883,2.4833,2.413,2.2598,2.266,2.2884,2.3065,2.4506,2.6239,2.8323,2.8549,2.8944,2.9365,2.8187,2.7683,2.7602,2.6678,2.5619,2.4511,2.2585,2.1208,2.0134,0.0,0.0,0.0,0.0,0.0,0.0,0.0,0.0,0.0,0.0,0.0,0.0,0.0,0.0,0.0,0.0,0.0,0.0,0.0,0.0,0.0,0.0,0.0,0.0,0.0,0.0,0.0,0.0,0.0,0.0,0.0,0.0,0.0,0.0,0.0,0.0,0.0,2.5248,2.5999,2.6383,2.6238,2.6144,0.0,0.0,0.0,0.0,0.0,0.0,2.457,2.4687,2.5098,2.5879,2.6016,2.6367,2.7012,2.7012,2.6807,2.6481,2.6576,2.6427,2.6012,2.5128,2.4667,2.4578,2.3871,2.3595,2.3673,2.5611,2.6199,2.6031,2.5798,2.5637,2.5509,2.5693,2.5748,2.5858,0.0,0.0,0.0,0.0,0.0,0.0,0.0,0.0,0.0,0.0,0.0,2.1794,2.2924,2.4506,2.5711,2.6382,2.6508,2.5988,2.4883,2.4833,2.4305,2.309,2.2372,2.231,2.3065,2.5259,2.7193,2.8875,2.8373,2.814,2.8164,2.7035,2.6565,2.6588,2.5787,2.5019,2.4214,2.3587,2.251,2.0996,1.9727,0.0,0.0,0.0,0.0,0.0,0.0,0.0,0.0,0.0,0.0,0.0,0.0,0.0,0.0,0.0,0.0,0.0,0.0,0.0,0.0,0.0,0.0,0.0,0.0,0.0,0.0,0.0,0.0,0.0,0.0,0.0,0.0,0.0,0.0,0.0,0.0,0.0,0.0,2.5114,2.5526,0.0,0.0,0.0,0.0,2.4414,2.4414,2.459,2.5019,2.5449,2.5879,2.6348,2.6738,2.6973,2.7012,2.7012,2.6256,2.4873,2.5339,2.4773,2.3402,2.4082,2.4284,2.4317,2.4548,2.458,2.4563,2.4433,2.4711,2.4845,2.2906,2.2534,2.2777,2.2458,2.2221,2.2498,0.0,0.0,0.0,1.956,1.9258,1.9083,1.9208,1.8957,1.8932,1.9459,2.0991,2.2297,2.299,2.5259,2.6917,2.7469,2.8499,2.8649,2.7544,2.6791,2.5766,2.4396,2.303,2.306,2.4832,2.6287,2.7475,2.8397,2.7532,2.7035,2.7058,2.6209,2.5765,2.5787,2.5043,2.4636,2.4315,2.4155,2.3434,2.2441,2.1953,2.1016,0.0,0.0,0.0,0.0,0.0,0.0,0.0,0.0,0.0,0.0,0.0,0.0,0.0,0.0,0.0,0.0,0.0,0.0,0.0,0.0,0.0,0.0,0.0,0.0,0.0,0.0,0.0,0.0,0.0,0.0,0.0,0.0,0.0,0.0,0.0,0.0,0.0,2.5019,2.5215,0.0,0.0,2.5059,2.5117,2.5254,2.5527,2.5879,2.6289,2.5522,2.5274,2.5767,2.4968,2.4738,2.4966,2.4984,2.478,2.4454,2.459,2.4553,2.4106,2.3457,2.3114,2.3114,2.2171,2.1752,2.1766,2.1973,2.3123,2.4662,2.4066,2.3991,2.4412,2.415,2.4388,2.4907,0.0,0.0,0.0,1.9811,1.951,1.9409,1.9761,1.951,1.961,2.0539,2.2121,2.3502,2.4431,2.6841,2.8549,2.8925,3.0131,3.0156,2.8473,2.7454,2.5966,2.4017,2.3214,2.3671,2.5597,2.6552,2.716,2.7522,2.664,2.6143,2.6143,2.5434,2.5043,2.5064,2.4802,2.4629,2.4648,2.4805,2.4453,2.3789,2.3477,2.2578,2.1406,0.0,0.0,0.0,0.0,0.0,0.0,0.0,0.0,0.0,0.0,0.0,0.0,0.0,0.0,0.0,0.0,0.0,0.0,0.0,0.0,0.0,0.0,0.0,0.0,0.0,0.0,0.0,0.0,0.0,0.0,0.0,0.0,0.0,0.0,0.0,2.4746,2.5039,2.5195,2.5293,2.5293,2.543,2.5644,2.5937,2.5929,2.5971,2.6237,2.4999,2.4332,2.4683,2.3846,2.3529,2.4003,2.4003,2.3861,2.3642,2.3642,2.352,2.315,2.2228,2.1939,2.1818,2.0971,2.0588,2.0695,2.0895,2.2128,2.3825,2.3718,2.3794,2.4009,2.4117,2.4439,2.4949,0.0,0.0,1.9811,1.9811,1.9811,1.9811,1.9811,1.9811,2.0413,2.2096,2.3803,2.5485,2.7118,2.9302,3.0633,3.0633,3.111,3.0256,2.7544,2.6553,2.4776,2.2068,2.2971,2.4073,2.5237,2.6,2.6433,2.6505,2.5722,2.5347,2.5367,2.4766,2.4434,2.4453,2.4902,2.5098,2.5117,2.5547,2.5488,2.5019,2.418,2.3574,2.3086,0.0,0.0,0.0,0.0,0.0,0.0,0.0,0.0,0.0,0.0,0.0,0.0,0.0,0.0,0.0,0.0,0.0,0.0,0.0,0.0,0.0,0.0,0.0,0.0,0.0,0.0,0.0,0.0,0.0,0.0,0.0,0.0,0.0,2.4375,2.4805,2.5078,2.5078,2.5469,2.5742,2.5762,2.6133,2.6406,2.6326,2.5414,2.4787,2.4787,2.3759,2.3201,2.3201,2.3435,2.3795,2.4138,2.4155,2.3541,2.2498,2.2498,2.1675,2.0281,2.0575,2.0708,2.0735,2.1015,2.1296,2.1563,2.1563,2.1737,2.1951,2.167,2.1563,2.1603,2.1884,2.1991,2.2004,2.0643,2.0188,1.9811,1.9811,1.9811,1.9811,1.9811,1.9811,2.0413,2.2096,2.4104,2.6013,2.7695,2.9854,3.1185,3.1185,3.1662,3.116,2.9227,2.7531,2.5419,2.2754,2.426,2.5292,2.5599,2.5661,2.5743,2.5744,2.4995,2.4675,2.4695,2.4874,2.4883,2.4902,2.5352,2.5547,2.5566,2.5684,2.5664,2.5527,2.5293,2.4746,2.4043,0.0,0.0,0.0,0.0,0.0,0.0,0.0,0.0,0.0,0.0,0.0,0.0,0.0,0.0,0.0,0.0,0.0,0.0,0.0,0.0,0.0,0.0,0.0,0.0,0.0,0.0,0.0,0.0,0.0,0.0,0.0,0.0,2.4766,2.4863,2.5,2.5195,2.5508,2.5664,2.5859,2.6172,2.6309,2.6218,2.5737,2.5445,2.4862,2.4166,2.2736,2.2015,2.2015,2.1335,2.0971,2.1057,2.1284,2.1314,2.1162,2.1162,2.1135,2.1189,2.1269,2.143,2.163,2.171,2.179,2.1871,2.1871,2.1911,2.1977,2.1897,2.1871,2.1884,2.1951,2.2124,2.2325,2.0238,2.0037,1.9811,1.9811,1.9811,1.9886,2.0137,1.9962,2.084,2.3678,2.4958,2.659,2.9202,3.0834,3.1738,3.1738,3.1612,3.0673,2.8694,2.621,2.4557,2.3875,2.498,2.5561,2.5605,2.5486,2.5254,2.5015,2.4842,2.4687,2.4707,2.5137,2.5352,2.5352,2.5625,2.5742,2.5742,2.5742,2.5742,2.5742,2.5742,2.5312,2.4687,2.4687,2.4121,2.3281,2.3105,2.2891,2.2656,2.248,0.0,0.0,0.0,0.0,0.0,0.0,0.0,0.0,0.0,0.0,0.0,0.0,0.0,0.0,0.0,0.0,0.0,0.0,0.0,0.0,0.0,0.0,0.0,0.0,2.4909,2.5684,2.5859,2.5566,2.5508,2.5957,2.6016,2.5974,2.5755,2.5843,2.5607,2.4558,2.4064,2.3591,2.2911,2.1606,2.0888,2.0888,2.0287,2.004,2.016,2.0334,2.0561,2.0855,2.0989,2.1229,2.155,2.1683,2.183,0.0,2.1991,2.2058,2.2164,2.2164,2.2245,0.0,0.0,0.0,0.0,0.0,2.2458,2.2632,1.9886,1.9886,1.9886,1.9886,1.9886,2.0062,2.0643,2.0288,2.1543,2.5954,2.6063,2.7243,3.106,3.1989,3.2315,3.2315,3.1311,2.9539,2.6959,2.4306,2.3598,2.5324,2.5574,2.5613,2.5546,2.5606,2.5255,2.4492,2.4922,2.5137,2.5156,2.5547,2.5742,2.5742,2.5742,2.5742,2.5742,2.5742,2.5742,2.5742,2.5742,2.5508,2.5137,2.5137,2.4902,2.4512,2.4141,2.4004,2.3945,2.3555,0.0,0.0,0.0,0.0,0.0,0.0,0.0,0.0,0.0,0.0,0.0,0.0,0.0,0.0,0.0,0.0,0.0,0.0,0.0,0.0,0.0,0.0,0.0,0.0,2.4994,2.6261,2.6423,2.5948,2.572,2.6206,2.6245,2.5774,2.4682,2.4916,2.4593,2.3141,2.2081,2.1487,2.1417,0.0,0.0,0.0,0.0,2.0414,2.0668,2.0708,2.0869,2.1162,2.143,2.159,2.1657,2.1924,2.2058,2.2084,2.2084,2.2231,2.2472,2.2472,2.2619,2.2832,2.2565,2.2472,2.2498,2.2766,2.2859,2.2859,2.0567,2.0567,2.0567,2.0567,2.0567,2.0592,2.0693,2.0941,2.2447,2.6055,2.6741,2.8247,3.1687,3.2566,3.2918,3.2918,3.1888,3.0015,2.6983,2.692,2.6822,2.6538,2.7593,2.7741,2.6753,2.6683,2.6033,2.4941,2.5391,2.5605,2.5605,2.5703,2.5742,2.5742,2.5742,2.5742,2.5742,2.5742,2.5742,2.5742,2.5742,2.5684,2.5605,2.5605,2.5547,2.5469,2.5391,2.5352,2.5352,2.5273,2.4941,2.4512,2.416,2.3769,0.0,0.0,0.0,0.0,0.0,0.0,0.0,0.0,0.0,0.0,0.0,0.0,0.0,0.0,0.0,0.0,0.0,0.0,0.0,2.3925,2.4543,2.4679,2.3474,2.4313,2.4984,2.5076,2.5076,2.47,2.3577,2.357,2.319,2.203,2.1768,2.1147,2.0151,1.9878,0.0,2.0147,2.0441,2.0615,2.0681,2.0909,2.1176,2.147,0.0,0.0,2.2258,2.2311,2.2458,2.2699,2.2699,2.2726,2.2779,2.2779,2.2806,2.2859,2.2806,2.2779,2.2779,2.2846,2.2859,2.2859,2.1493,2.1267,2.1066,2.1066,2.1066,2.1167,2.1443,2.1493,2.2573,2.5636,2.6038,2.6992,2.9478,3.0005,3.0055,2.9779,2.8922,2.7828,2.6746,2.7164,2.748,2.7454,2.8402,2.8156,2.6628,2.6801,2.6361,2.541,2.5625,2.5742,2.5742,2.5742,2.5742,2.5742,2.5742,2.5742,2.5742,2.5742,2.5859,2.6055,2.582,2.5859,2.6035,2.582,2.5742,2.5762,2.5996,2.6055,2.6094,2.6309,2.623,2.5996,2.5781,2.543,2.4828,0.0,0.0,0.0,0.0,0.0,0.0,0.0,0.0,0.0,0.0,0.0,0.0,0.0,0.0,2.4805,2.4805,0.0,2.3514,2.3514,2.3998,2.4037,2.3293,2.382,2.4184,2.4012,2.3977,2.3594,2.253,2.2495,2.2101,2.0815,2.0854,2.0656,2.0013,2.016,2.0307,2.0454,2.0735,2.0962,2.1109,2.1256,2.1483,2.1777,2.1924,2.2138,2.2418,2.2579,2.2726,2.2859,2.2859,2.2859,2.2859,2.2859,2.2859,2.2859,2.2859,2.2859,2.2859,2.2859,2.2966,2.31,2.2447,2.2121,2.1769,2.1669,2.1644,2.1794,2.2246,2.202,2.2723,2.5259,2.5234,2.5611,2.7268,2.7444,2.7168,2.6584,2.6156,2.6088,2.6615,2.7139,2.769,2.8378,2.9027,2.8533,2.6797,2.7174,2.6941,2.611,2.5839,2.5742,2.5742,2.5742,2.5742,2.5742,2.5742,2.5742,2.5742,2.582,2.6074,2.6367,2.6094,2.6191,2.6465,2.6113,2.5937,2.5918,2.6348,2.6406,2.6348,2.6836,2.6914,2.6797,2.6973,2.668,2.5935,2.4403,2.3441,0.0,0.0,0.0,0.0,0.0,0.0,0.0,0.0,0.0,2.5937,2.5775,2.4976,2.4253,2.3931,2.325,2.2738,2.2738,2.3164,2.3473,2.3133,2.336,2.3376,2.264,2.2767,2.2497,2.1318,2.1511,2.1142,1.9999,2.0094,2.0254,2.0307,2.0548,2.0695,2.0762,2.1042,2.1309,2.155,2.1617,2.1777,2.2071,2.2311,2.2445,2.2512,2.2752,2.2859,2.2859,2.2859,2.2859,2.2859,2.2859,2.2859,2.2873,2.2993,2.3046,2.3033,2.2979,2.318,2.35,2.2949,2.294,2.2799,2.2297,2.2221,2.2246,2.2297,2.2673,2.3602,2.536,2.5536,2.6138,2.7821,2.8021,2.7595,2.6609,2.7723,2.8149,2.7243,2.8625,2.9499,2.9624,3.0598,3.0548,2.923,2.9105,2.8522,2.741,2.6284,2.5742,2.5742,2.5742,2.5742,2.5742,2.5742,2.5742,2.5762,2.6152,2.6348,2.6426,2.6738,2.6894,2.6934,2.6894,2.6641,2.6367,2.6797,2.6465,2.5937,2.6738,2.6504,2.6016,2.6777,2.6465,2.5762,2.5954,2.5179,2.4009,2.2967,2.2786,2.2743,2.1936,2.3651,2.5508,0.0,0.0,2.666,2.6185,2.5991,2.545,2.4014,2.2893,2.213,2.213,2.2462,2.2127,2.0842,2.177,2.2112,2.0667,2.1452,2.1525,2.0087,2.024,2.0295,2.0187,2.0214,2.0347,2.0615,2.0655,2.0802,2.1056,2.1349,2.1523,2.155,2.1804,2.2084,2.2378,2.2405,2.2552,2.2819,2.2846,2.2859,2.2859,2.2859,2.2859,2.2859,2.2859,2.2859,2.2913,2.346,2.3674,2.3634,2.338,2.3621,2.4102,2.2965,2.3065,2.299,2.2824,2.2799,2.2799,2.2799,2.3,2.3276,2.3627,2.3954,2.418,2.4255,2.4255,2.4205,2.4054,2.5862,2.6942,2.6816,2.8674,2.993,3.0256,3.0984,3.1017,3.0105,3.0313,2.9852,2.868,2.741,2.686,2.6744,2.6014,2.5742,2.5742,2.5742,2.5742,2.5742,2.5937,2.6152,2.6387,2.6309,2.6562,2.7012,2.7012,2.707,2.709,2.6758,2.6426,0.0,2.7109,2.7148,2.7051,2.8144,2.7734,2.6734,2.5926,2.4189,2.2575,2.2698,2.2498,0.0,0.0,2.5869,2.6275,2.5803,2.6092,2.6203,2.4989,2.4881,2.4811,2.4248,2.3068,2.226,0.0,2.168,2.0939,2.0227,2.0698,2.0939,2.0227,2.086,2.0939,2.0067,2.0321,2.0494,2.0494,2.0641,2.0802,2.0922,2.1096,2.1243,2.1363,2.1657,2.1884,2.2058,2.2178,2.2378,2.2672,2.2672,2.2739,2.2859,2.2859,2.2859,2.2859,2.2859,2.2859,2.2873,2.306,2.314,2.3193,2.3794,2.4128,2.4262,2.4142,2.4356,2.4716,2.2799,2.2899,2.2949,2.304,2.3065,2.3065,2.3065,2.3065,2.2949,2.2397,2.2648,2.2598,2.1794,2.1845,2.2096,2.2498,2.4406,2.5837,2.6483,2.8398,2.988,3.0583,3.111,3.1224,3.0869,3.1137,3.0777,2.9852,2.868,2.8143,2.8049,2.6839,2.6207,2.6207,2.582,2.5742,2.5742,2.5859,2.6094,2.6367,2.6172,2.6523,2.7187,2.7187,2.7324,2.7402,2.6777,2.6406,2.6309,2.6934,2.6973,2.6973,2.8144,2.7715,2.6676,2.5759,2.3877,2.2247,2.3014,2.2963,0.0,2.7088,2.7767,2.7554,2.7138,2.7049,2.6481,2.4457,2.4334,2.417,2.3378,2.2498,2.2016,2.2016,2.1133,2.0468,2.0468,2.0468,2.0468,2.0468,2.0668,2.0708,2.0494,2.0668,2.0802,2.0802,2.1069,2.1229,2.1229,2.151,2.167,2.167,2.1951,2.2205,2.2418,2.2498,2.2645,2.2859,2.2859,2.2859,2.2859,2.2859,2.2859,2.2859,2.2859,2.2913,2.3006,2.3233,2.342,2.3621,2.4209,2.4623,2.4903,2.5064,2.5211,2.5317,2.2221,2.2347,2.2498,2.299,2.3065,2.3065,2.3065,2.3065,2.2949,2.2397,2.2322,2.2322,2.2297,2.2774,2.304,2.304,2.4632,2.5837,2.6483,2.8021,2.9453,3.0557,3.111,3.1637,3.2106,3.1487,3.1223,3.1134,2.9943,2.9326,2.9326,2.8143,2.7505,2.7505,2.6284,2.5742,2.5762,2.6191,2.6387,2.6426,2.6816,2.7246,2.7656,2.7656,2.7402,2.7031,2.7012,2.6465,2.5762,2.5781,2.5234,2.4668,2.5566,2.5234,2.4766,2.6035,2.5327,2.4314,2.4832,2.5213,2.5702,2.6664,2.8293,2.9492,2.9531,2.9531,2.8596,2.5558,2.4878,2.3959,2.0925,2.0577,2.0779,2.0779,2.0895,2.1082,2.1082,2.1082,2.1082,2.1082,2.1096,2.1096,0.0,2.1096,2.1096,2.1096,2.1376,2.1537,2.1537,2.1817,2.1977,2.1977,2.2258,2.2405,2.2418,2.2699,2.2859,2.2859,2.2859,2.2859,2.2859,2.2859,2.2859,2.2859,2.2859,2.3033,2.3313,2.3327,2.3661,2.4235,2.4823,2.5237,2.5558,2.6132,2.6159,2.5932,2.1644,2.2071,2.2372,2.2548,2.2598,2.2598,2.2598,2.2598,2.2272,2.1343,2.1543,0.0,0.0,0.0,0.0,0.0,2.433,2.531,2.5862,2.7444,2.9051,3.0557,3.111,3.1838,3.2767,3.2599,3.2438,3.2438,3.1223,3.0574,3.0598,2.9304,2.8773,2.8773,2.7484,2.6935,2.6955,2.6269,2.5957,2.5977,2.6113,2.625,2.6387,2.6387,2.6289,2.6094,0.0,2.5117,2.4902,2.5195,2.5098,2.5059,2.6211,2.5781,2.4733,2.4272,2.4647,2.5303,2.61,2.6755,2.7618,2.9145,2.9987,3.0199,2.9216,2.8984,2.8011,2.4795,2.419,2.3399,2.104,2.0762,2.0895,2.0708,2.1082,2.1403,2.1403,2.1577,2.1697,2.1697,2.1697,0.0,0.0,0.0,0.0,2.1403,2.167,2.1844,2.1844,2.2111,2.2271,2.2271,2.2565,2.2712,2.2712,2.2806,2.2859,2.2859,2.2859,2.2859,2.2859,2.2859,2.2979,2.3166,2.3166,2.334,2.3634,2.3834,2.4142,2.4556,2.5144,2.5545,2.5852,2.6239,2.6453,2.6507,0.0,2.1769,2.2146,2.2548,2.2447,0.0,0.0,0.0,0.0,0.0,0.0,0.0,0.0,0.0,0.0,0.0,0.0,2.4757,2.5285,2.6515,2.7971,2.9654,3.003,3.0733,3.1888,3.1913,3.1989,3.219,3.1553,3.1477,3.1865,3.0598,3.0148,3.0308,2.8839,2.8236,2.8121,2.6935,2.63,2.6044,2.5681,2.5508,2.5508,2.5508,2.541,0.0,2.4629,2.4219,2.4004,2.4277,2.4375,2.4551,2.5547,2.5508,2.5061,2.4515,2.5386,2.6616,2.7996,2.8744,2.9521,3.0955,3.1348,3.0972,2.9342,2.8962,2.7974,2.4656,2.3953,2.3319,2.1393,2.1136,2.1176,2.0882,2.1243,2.155,2.155,2.171,2.1871,2.1977,2.1991,2.1991,0.0,0.0,0.0,2.171,2.1977,2.2138,2.2138,2.2418,2.2579,2.2579,2.2766,2.2859,2.2859,2.2859,2.2859,2.2859,2.2859,2.2859,2.2859,2.2979,2.314,2.334,2.3434,2.3714,2.4102,2.4289,2.4649,2.5144,2.5518,2.5919,2.6293,2.648,2.6734,2.6934,0.0,0.0,2.182,0.0,0.0,0.0,0.0,0.0,0.0,0.0,0.0,0.0,0.0,0.0,0.0,0.0,0.0,0.0,2.4732,2.5259,2.6314,2.7996,2.8097,2.8624,2.9779,2.9804,3.0055,3.0583,3.111,3.1888,3.2943,3.168,3.1413,3.1889,3.0102,2.9237,2.9145,2.7964,2.717,2.666,2.5491,2.5019,2.5,2.5,2.4727,2.4355,2.4355,2.3828,2.3144,2.3164,2.3203,2.332,2.375,2.4473,2.541,2.6699,2.7441,2.8281,3.0391,3.0996,3.1211,3.2031,3.2226,3.1841,3.0043,2.9635,2.8584,2.5304,2.4247,2.3501,0.0,2.151,2.143,2.1136,2.1376,2.159,2.159,2.1617,2.1724,0.0,0.0,0.0,0.0,0.0,0.0,2.2058,0.0,2.2445,2.2445,2.2712,2.2859,2.2859,2.2859,2.2859,2.2859,2.2859,2.2859,2.2859,2.2859,2.2873,2.2899,2.3193,2.334,2.3394,2.3688,2.4142,2.4663,2.4676,2.5184,2.5959,2.5972,2.6319,2.6827,2.6841,2.7028,2.7241,0.0,0.0,0.0,0.0,0.0,0.0,0.0,0.0,0.0,0.0,0.0,0.0,0.0,0.0,0.0,0.0,0.0,0.0,2.418,2.4732,2.5762,2.7419,2.7896,2.8624,2.9779,2.9804,2.9854,3.0005,3.0557,3.0959,3.126,3.0507,3.0238,3.0272,2.8099,2.705,2.6982,2.5727,2.5133,2.5033,2.4663,2.4394,2.4121,2.4121,2.3848,2.3457,2.3457,2.332,2.3184,2.3516,2.4043,0.0,0.0,2.582,2.6699,2.7676,0.0,3.0332,3.1523,3.2305,3.2832,3.3047,3.3105,3.2961,3.2565,3.1053,2.9208,2.6947,2.4875,2.2892,0.0,2.0922,2.1122,2.0842,2.1577,0.0,2.2205,2.2392,0.0,2.2632,0.0,2.2645,2.2645,2.2699,0.0,0.0,2.2712,2.2752,2.2752,2.2819,2.2859,2.2859,2.2859,2.2859,2.2859,2.2859,2.2859,2.2859,2.2859,2.2979,2.3207,2.3287,2.3567,2.3995,2.4289,2.4623,2.4983,2.5197,2.5558,2.5972,2.6199,2.6507,2.6854,2.7068,2.7335,2.7575,0.0,0.0,0.0,0.0,0.0,0.0,0.0,0.0,0.0,0.0,0.0,0.0,0.0,0.0,0.0,0.0,0.0,0.0,0.0,2.4155,2.4983,2.6163,2.6716,2.7419,2.8298,2.8323,2.8574,2.9051,2.9377,2.9905,3.0608,3.0072,2.9894,3.0031,2.8057,2.7316,2.7323,2.5612,2.4916,0.0,0.0,2.3887,2.3496,2.3496,2.3359,2.3144,2.3144,2.3379,2.3789,2.4434,2.4961,2.543,2.5879,2.6621,2.75,2.8555,0.0,3.1113,3.2168,3.293,3.3418,3.3418,3.3418,3.2922,3.1135,2.9672,2.7997,2.5171,2.3311,0.0,2.1037,2.1082,0.0,0.0,0.0,0.0,2.2418,2.2565,2.2712,0.0,2.2859,0.0,2.2859,2.2859,2.2859,0.0,2.2859,2.2859,2.2859,2.2859,2.2859,2.2859,2.2859,2.2859,2.2859,2.2859,2.2859,2.2859,2.3006,2.3153,2.334,2.3594,2.3888,2.4222,0.0,2.4997,2.5291,2.5585,2.5959,2.636,2.652,2.6841,2.7228,2.7388,2.7642,2.7896,0.0,0.0,0.0,0.0,0.0,0.0,0.0,0.0,0.0,0.0,2.0363,2.0916,2.1518,2.202,0.0,0.0,0.0,0.0,0.0,0.0,2.4255,2.4808,2.531,2.5837,2.6408,2.6339,2.6791,2.767,2.7745,2.8549,3.0055,2.9474,2.9496,3.0019,2.853,2.8051,2.8234,2.6363,2.555,2.5312,2.4364,2.3565,2.3144,0.0,2.3144,2.3144,2.3144,2.3652,2.4473,2.543,2.582,2.5996,2.6484,2.7226,2.8144,2.9316,3.0332,3.1309,3.248,3.3105,3.3418,3.3418,3.3418,3.2409,2.8776,2.7512,2.61,2.2341,2.1094,2.0668,2.1216,2.1349,2.1483,2.1817,0.0,2.2338,2.2405,2.2418,2.2525,2.2819,2.2859,2.2859,2.2859,2.2899,2.2899,2.2859,2.2899,2.2899,2.2859,2.2859,2.2859,2.2859,2.2859,2.2859,2.2859,2.2859,2.2886,2.2926,2.3193,2.3394,2.3514,2.4022,2.4302,2.4409,0.0,0.0,2.5598,2.5932,2.6373,2.6827,2.6907,2.7255,2.7709,2.7749,2.7923,2.8136,0.0,0.0,0.0,0.0,0.0,0.0,0.0,0.0,0.0,0.0,2.0668,2.1041,0.0,0.0,0.0,0.0,0.0,0.0,0.0,0.0,0.0,2.4808,2.531,2.5636,2.5737,2.5737,2.5636,2.5385,2.5812,2.6414,2.7193,2.6627,2.6617,2.7143,2.5922,2.543,2.5543,2.5547,2.5092,2.4326,2.4511,2.4034,2.3144,2.3144,0.0,0.0,2.3144,2.3477,2.4082,2.5312,2.6211,2.6934,2.7715,2.8555,2.9355,2.9922,3.0976,3.207,3.2637,3.3105,3.3418,3.3418,3.3418,3.3058,3.1712,2.885,0.0,0.0,2.1803,1.9693,2.004,2.0307,2.0641,2.1176,0.0,0.0,0.0,2.2418,2.2525,0.0,2.2859,2.2859,2.2859,0.0,0.0,0.0,0.0,0.0,2.2873,2.2859,2.2859,2.2859,2.2859,2.2859,2.2859,2.2859,2.2993,2.3247,2.33,2.3701,2.4409,2.4516,2.4823,2.5304,2.5651,0.0,2.5919,2.6453,2.6734,2.6867,2.7362,2.7602,2.7722,2.7976,2.8096,2.8136,0.0,0.0,0.0,0.0,0.0,0.0,0.0,2.0489,2.092,2.1443,2.1518,2.182,2.2648,2.3,2.3401,0.0,0.0,0.0,0.0,0.0,0.0,2.5209,2.546,2.5586,2.5586,2.5586,2.5611,2.5661,0.0,2.5636,2.6465,2.5906,2.5749,2.6017,2.5245,2.5056,2.5233,2.4925,2.4856,2.4794,2.4534,2.426,2.3887,2.3299,0.0,0.0,2.3144,2.3418,2.3926,2.4766,2.5625,2.6582,2.7871,2.873,2.9277,2.9473,3.0469,3.1601,3.2012,3.2598,3.3144,3.3359,3.3418,3.2816,3.0774,0.0,0.0,0.0,2.2383,2.0628,2.1109,2.0602,2.0468,2.1216,2.159,2.1924,2.2352,2.2552,0.0,2.2846,2.3006,2.3046,0.0,2.3287,0.0,0.0,0.0,0.0,2.2886,2.2859,2.2859,2.2859,2.302,2.3033,2.2859,2.3327,2.3567,2.3567,2.4022,2.4462,2.4877,2.5024,2.5251,2.5531,2.5825,0.0,2.6213,2.664,2.7001,2.7308,2.7589,2.7789,2.7949,2.8096,2.8136,2.8136,0.0,0.0,0.0,0.0,0.0,0.0,2.0643,2.0819,2.1192,2.2171,2.2523,2.2874,2.3452,2.3803,2.423,0.0,0.0,0.0,0.0,0.0,0.0,0.0,0.0,2.5435,2.5435,0.0,0.0,2.6113,2.5234,0.0,0.0,0.0,0.0,0.0,2.5456,2.5516,2.5756,2.5117,2.5219,0.0,0.0,2.4887,2.5041,0.0,0.0,0.0,0.0,2.3359,2.373,2.4238,2.4883,2.5723,2.7266,2.8164,2.8691,2.8867,2.9785,3.0879,3.1484,3.2207,3.2891,3.332,3.3418,3.2594,2.9766,2.8783,0.0,2.4906,2.3151,2.2109,2.2378,2.137,2.0686,2.1343,2.1496,2.1777,2.2258,2.2525,2.2726,0.0,2.3073,0.0,2.2886,0.0,0.0,0.0,0.0,0.0,2.3086,2.2993,2.2993,2.306,2.33,2.334,2.3153,2.3848,2.4155,2.4062,2.4743,2.5144,2.5277,2.5504,2.5638,2.5718,2.5945,0.0,0.0,2.68,2.7228,2.7709,2.7762,2.7936,2.8136,2.8136,2.8136,2.815,0.0,0.0,0.0,0.0,0.0,0.0,2.0643,2.1091,2.1619,2.2221,2.3201,2.4054,2.4607,2.428,2.423,0.0,0.0,0.0,0.0,0.0,0.0,0.0,0.0,0.0,0.0,0.0,0.0,2.4983,2.4883,0.0,0.0,0.0,0.0,0.0,0.0,2.6421,2.6427,2.6831,0.0,0.0,0.0,0.0,0.0,0.0,0.0,0.0,0.0,2.3164,2.332,2.4141,2.4473,2.4707,2.5664,2.6797,2.793,2.8691,0.0,0.0,3.1777,3.2441,3.2891,3.332,3.3418,3.2969,3.1151,0.0,2.8074,2.626,2.471,2.3263,2.2281,2.1754,2.1321,2.0848,2.0548,2.0775,2.1871,2.2044,2.2258,2.2806,0.0,0.0,2.2859,0.0,0.0,0.0,0.0,0.0,0.0,2.3434,2.3407,2.3674,2.3714,2.3848,2.4075,2.4168,2.4462,2.4957,2.5037,2.5358,2.5879,2.5905,2.6066,2.6306,2.6333,0.0,0.0,2.7108,2.7415,2.7722,2.7989,2.8123,2.8136,2.8136,2.8136,2.8177,0.0,0.0,0.0,0.0,0.0,0.0,2.1016,2.1066,2.1543,2.3125,2.3427,2.3929,2.5159,2.5084,2.5184,2.5762,0.0,0.0,0.0,0.0,0.0,0.0,0.0,0.0,0.0,0.0,2.5285,2.5285,2.4983,0.0,0.0,0.0,0.0,0.0,0.0,2.6533,2.6533,2.676,0.0,0.0,0.0,0.0,0.0,0.0,0.0,0.0,0.0,0.0,2.3184,2.3535,2.3828,2.4102,2.4453,2.5273,2.6269,0.0,2.8359,2.9648,3.0703,3.168,3.2578,3.3242,3.3047,3.2285,3.082,2.9603,2.8426,2.727,2.581,2.4706,2.4513,2.2893,2.1624,2.1718,2.1052,2.1216,2.3235,2.3679,2.4363,2.5859,2.6405,0.0,0.0,0.0,0.0,0.0,0.0,0.0,0.0,2.3848,2.3728,2.4022,2.4195,2.4342,2.4462,2.4997,2.5291,2.5344,2.5692,2.5985,2.6213,2.6213,2.6373,2.6653,2.6653,0.0,0.0,2.7482,2.7696,2.7976,2.8096,2.8136,2.8136,2.8136,2.8257,2.8444,0.0,0.0,0.0,0.0,0.0,2.0137,2.1091,2.1066,2.1518,2.3276,2.3427,2.3904,2.5234,2.5511,2.5837,2.6483,2.6533,0.0,0.0,0.0,0.0,0.0,0.0,0.0,0.0,0.0,2.5686,2.5862,2.5485,2.5485,0.0,0.0,2.5862,2.5862,0.0,0.0,0.0,0.0,0.0,0.0,0.0,0.0,0.0,0.0,0.0,0.0,0.0,0.0,0.0,0.0,0.0,2.3594,2.3594,2.4102,2.4922,2.6055,2.7422,2.8828,3.0059,3.1172,3.2207,3.3184,3.2695,3.168,3.0488,2.9453,2.8496,2.7656,2.6683,2.6074,2.5919,2.4293,2.289,2.3052,2.2482,2.2661,2.4868,2.5442,2.6043,2.7178,0.0,0.0,0.0,0.0,0.0,0.0,0.0,0.0,0.0,2.4329,2.4249,2.4449,2.4743,2.493,2.5024,2.5651,2.5892,2.5772,2.6186,2.6386,2.6386,2.6386,2.6547,2.6827,0.0,0.0,0.0,2.7696,2.7869,2.8136,2.8136,2.8136,2.8136,2.8136,2.8337,2.8617,0.0,0.0,0.0,0.0,0.0,0.0,2.0643,2.1142,2.1694,2.2246,2.3301,2.4205,2.4757,2.5285,2.5837,2.6483,2.6533,0.0,0.0,0.0,0.0,0.0,0.0,0.0,0.0,0.0,2.5887,2.6508,2.6508,2.6508,2.6508,2.6508,2.6508,2.6508,0.0,0.0,0.0,0.0,0.0,0.0,0.0,0.0,2.7924,0.0,0.0,0.0,0.0,0.0,0.0,0.0,0.0,0.0,0.0,2.3437,2.4141,2.5879,2.7012,2.8144,3.0293,3.1191,3.1836,3.3105,3.2461,3.1289,3.0391,2.9219,2.8047,2.7207,2.7363,2.7218,2.5681,2.5775,2.5622,2.4431,2.4565,2.5156,2.6241,2.6734,2.6584,0.0,0.0,0.0,0.0,0.0,0.0,0.0,0.0,0.0,0.0,2.4917,2.5064,2.5064,2.5358,2.5651,2.5932,2.5959,2.6106,2.6386,2.6386,2.6386,2.6386,2.6386,2.6547,0.0,0.0,0.0,0.0,2.7696,2.7869,2.8136,2.8136,2.8136,2.8136,2.8136,2.8337,2.8644,0.0,0.0,0.0,0.0,0.0,0.0,2.0643,2.0869,2.1393,2.2698,2.3175,2.3778,2.4732,2.5285,2.5661,2.5862,2.6239,0.0,0.0,0.0,0.0,0.0,0.0,0.0,0.0,2.5988,2.6289,2.6533,2.6533,2.6533,2.6533,2.6533,2.6533,2.6533,2.6533,2.6533,0.0,0.0,0.0,0.0,0.0,2.9106,2.8004,0.0,0.0,0.0,0.0,0.0,0.0,0.0,0.0,0.0,0.0,0.0,0.0,2.4805,2.5879,2.707,2.834,2.9199,2.9902,3.0605,3.0039,2.916,2.8594,2.7695,2.6914,2.6641,2.6699,2.6851,2.6998,2.6217,2.572,2.6101,2.5524,2.5831,2.8324,2.8764,0.0,3.0646,0.0,0.0,0.0,0.0,0.0,0.0,0.0,0.0,0.0,2.7121,2.6706,2.5371,2.5665,2.5959,2.6253,2.6253,2.6306,2.6386,2.6386,2.6386,2.64,2.66,0.0,0.0,0.0,0.0,0.0,2.8003,2.8056,2.8136,2.8136,2.8136,2.8163,2.8377,2.8644,2.8951,0.0,0.0,0.0,0.0,0.0,0.0,2.0288,2.0514,2.1117,2.2347,2.2698,2.3251,2.4381,2.4983,2.5385,2.5586,2.6113,0.0,0.0,0.0,0.0,0.0,0.0,0.0,2.5912,2.6289,2.6533,2.6533,2.6533,2.6533,2.6533,2.6533,2.6533,2.6533,2.6533,2.6533,0.0,0.0,0.0,0.0,2.9327,2.9365,2.8609,0.0,0.0,0.0,0.0,0.0,0.0,0.0,0.0,0.0,0.0,0.0,0.0,0.0,2.4883,2.5937,2.7305,2.8164,2.8828,2.9414,2.8809,2.7988,2.7734,2.6875,2.6133,2.6133,2.6269,2.6602,2.7285,2.6769,2.6621,2.7846,2.7236,2.749,3.0055,3.0382,0.0,3.2169,0.0,0.0,0.0,0.0,0.0,0.0,0.0,0.0,0.0,0.0,2.7949,2.6864,2.6425,2.6199,2.6386,2.6386,2.6386,2.6386,2.6386,2.6453,2.656,2.6734,0.0,0.0,0.0,0.0,0.0,2.8136,2.8136,2.8136,2.8136,2.8136,2.8177,2.8497,2.8791,2.9085,0.0,0.0,0.0,0.0,0.0,0.0,0.0,2.0288,2.092,2.1418,2.197,2.2723,2.3828,2.4431,2.4983,2.5485,2.6063,0.0,0.0,0.0,0.0,0.0,0.0,0.0,2.6433,2.6508,2.6533,2.6533,2.6533,2.6533,2.6533,2.6533,2.6533,2.6533,2.6483,2.6458,2.6533,2.7544,0.0,0.0,2.9302,2.9754,0.0,0.0,0.0,0.0,0.0,0.0,0.0,0.0,0.0,0.0,0.0,0.0,0.0,0.0,0.0,0.0,0.0,2.7793,2.8301,2.9101,2.8398,2.7539,2.7539,2.6602,0.0,2.5742,2.6055,2.6484,2.6934,2.7363,2.8086,2.9316,2.957,3.0059,3.1309,3.1582,0.0,0.0,0.0,0.0,0.0,0.0,0.0,0.0,0.0,0.0,0.0,0.0,2.8943,2.929,2.7622,2.6689,2.6544,2.6544,2.6386,2.6386,2.6386,2.6547,2.6827,2.6841,0.0,0.0,0.0,0.0,0.0,2.8136,2.8136,2.8136,2.8136,2.8163,2.8217,2.8524,2.8818,2.9112,0.0,0.0,0.0,0.0,0.0,0.0,0.0,0.0,0.0,0.0,2.197,2.2573,2.3251,2.3853,2.4406,0.0,0.0,0.0,0.0,0.0,0.0,0.0,0.0,0.0,2.5787,2.6239,2.6533,2.6533,2.6533,2.6533,2.6533,2.6533,2.6533,2.6508,2.5988,2.5812,2.5837,2.654,0.0,0.0,2.885,2.9402,0.0,0.0,0.0,0.0,2.4872,2.4532,0.0,0.0,0.0,0.0,0.0,0.0,0.0,0.0,2.4082,2.4609,2.5449,0.0,2.6387,2.6582,2.6406,2.6191,0.0,2.5957,2.5742,2.5742,2.582,2.6133,2.6875,2.7363,2.7969,2.8926,2.9629,3.0273,3.0937,3.2148,0.0,3.2719,0.0,0.0,0.0,0.0,0.0,0.0,0.0,0.0,0.0,0.0,3.2436,3.175,3.1236,3.0361,2.8686,2.7148,2.6386,2.6386,2.6386,2.6547,2.6827,2.7054,0.0,0.0,0.0,0.0,2.8136,2.8136,2.8136,2.8136,2.8136,2.8283,2.8537,2.8831,2.9125,2.9419,0.0,0.0,0.0,0.0,0.0,0.0,0.0,0.0,0.0,0.0,2.1744,2.2246,2.299,2.3653,2.423,0.0,0.0,0.0,0.0,0.0,0.0,0.0,0.0,2.5435,2.5988,2.6289,2.6533,2.6533,2.6533,2.6533,2.6508,2.6189,2.6063,2.6038,2.5485,2.5385,2.5636,2.6214,2.7092,2.8147,2.8699,0.0,0.0,0.0,0.0,0.0,2.521,2.5126,0.0,2.3627,2.4211,2.5294,0.0,0.0,0.0,0.0,2.3926,2.4473,2.4707,2.5234,2.5742,2.5742,2.5742,2.5742,2.5742,2.5742,2.5742,2.5742,2.5742,2.5996,2.6855,2.7363,2.8144,2.959,3.0215,3.0742,3.1387,3.2598,3.3496,3.3691,0.0,0.0,0.0,0.0,0.0,0.0,0.0,0.0,0.0,0.0,3.4102,3.3833,3.2944,3.1437,2.9449,2.8374,2.7305,2.6386,2.6386,2.6613,2.7028,2.8298,2.8454,0.0,0.0,0.0,2.8136,2.8136,2.8796,2.9607,2.8628,2.8988,2.9957,2.9258,2.9232,2.9526,0.0,0.0,0.0,0.0,0.0,0.0,0.0,0.0,0.0,0.0,0.0,0.0,0.0,0.0,0.0,0.0,0.0,0.0,0.0,0.0,0.0,0.0,2.5912,2.5837,2.6382,2.6483,2.6533,2.6533,2.6533,2.6533,2.6508,2.5963,2.5636,2.546,2.5109,2.5134,2.5511,2.6088,2.6967,2.8021,2.8574,0.0,0.0,0.0,0.0,0.0,0.0,0.0,0.0,2.38,2.4467,2.588,2.3714,0.0,0.0,0.0,0.0,0.0,2.4394,2.5059,2.5762,2.582,2.5742,2.5664,2.5801,2.5742,2.5664,2.5723,2.584,2.6191,2.7051,2.7676,2.8672,3.0586,3.0937,3.1289,3.2148,3.2988,3.3652,3.4023,0.0,0.0,0.0,0.0,0.0,0.0,0.0,0.0,0.0,0.0,0.0,3.5942,3.4301,3.2489,3.0346,3.0053,2.8983,2.7305,2.7305,2.7624,2.8381,3.01,3.0144,0.0,0.0,0.0,2.8628,2.8628,2.9941,3.1722,2.9453,2.9986,3.1667,3.0121,2.9771,3.0097,0.0,0.0,0.0,0.0,0.0,0.0,0.0,0.0,0.0,0.0,0.0,0.0,0.0,0.0,0.0,0.0,0.0,0.0,0.0,0.0,0.0,2.6533,2.5912,2.5636,2.5737,2.6214,2.6533,2.6533,2.6533,2.6533,2.6533,2.6433,2.5837,2.4958,2.531,2.5285,2.4983,2.5511,2.6389,2.7444,2.8021,0.0,0.0,0.0,0.0,0.0,0.0,0.0,0.0,2.356,2.3973,2.4787,2.356,0.0,0.0,0.0,0.0,0.0,2.4316,2.5059,2.582,2.6191,2.5723,2.5371,2.6113,2.5703,2.5273,2.5664,2.6309,2.709,2.793,2.9043,3.0039,3.0781,3.1191,3.1719,0.0,0.0,3.4004,0.0,0.0,0.0,0.0,0.0,0.0,0.0,0.0,0.0,0.0,0.0,0.0,3.8078,3.7805,3.6737,3.4601,3.2944,3.1896,3.159,3.159,3.1959,3.2633,3.2949,3.2377,0.0,0.0,3.1241,3.091,3.091,3.2217,3.4002,3.1722,3.1431,3.2134,3.2052,3.2278,3.2808,0.0,0.0,0.0,0.0,0.0,0.0,0.0,0.0,0.0,0.0,0.0,0.0,0.0,0.0,0.0,0.0,0.0,0.0,0.0,0.0,2.6533,2.6533,2.6189,2.6063,2.6063,2.6382,2.6533,2.6533,2.6533,2.6533,2.6508,2.5862,2.5159,2.4381,2.4632,2.4757,2.4858,2.5385,2.6239,2.7344,0.0,0.0,0.0,0.0,0.0,0.0,0.0,0.0,0.0,0.0,2.3342,2.4263,2.3117,0.0,0.0,0.0,0.0,0.0,2.4023,2.4531,2.5293,2.6445,2.6602,2.6582,2.6992,2.6934,2.6738,2.6484,2.6934,2.7637,2.8476,2.9297,3.0312,3.1699,0.0,3.2773,3.3398,0.0,0.0,0.0,0.0,0.0,0.0,0.0,0.0,0.0,0.0,0.0,0.0,0.0,0.0,0.0,3.8574,3.8117,3.7179,3.6294,3.4619,3.2505,3.2505,3.2885,3.3578,3.483,3.4609,3.3186,0.0,3.4327,3.3186,3.3186,3.4489,3.6299,3.4212,3.4435,3.5774,3.5168,3.5004,3.5288,0.0,0.0,0.0,0.0,0.0,0.0,0.0,0.0,0.0,0.0,0.0,0.0,0.0,0.0,0.0,0.0,0.0,0.0,0.0,2.6013,2.6314,2.6508,2.6533,2.6533,2.6533,2.6533,2.6533,2.6533,2.6533,2.6533,2.6508,2.5611,2.4908,2.4381,2.4506,2.4732,2.5034,2.5561,2.6364,2.7344,0.0,0.0,0.0,0.0,0.0,0.0,0.0,0.0,0.0,0.0,0.0,0.0,0.0,0.0,0.0,2.2969,2.3379,2.3769,2.3672,2.418,2.5039,2.6387,2.6816,2.709,2.7793,2.791,2.7734,2.7383,2.7812,2.8457,2.9101,2.9746,0.0,3.2383,3.3086,0.0,0.0,0.0,0.0,0.0,0.0,0.0,0.0,0.0,0.0,0.0,0.0,0.0,0.0,0.0,0.0,0.0,3.8574,3.8574,3.8574,3.8574,3.7051,3.3868,3.3868,3.4263,3.5158,3.6723,3.6827,3.546,3.7241,3.6922,3.546,3.546,3.6762,3.8426,3.6592,3.7153,3.8994,3.7929,3.8032,3.8374,0.0,0.0,0.0,0.0,0.0,0.0,0.0,0.0,0.0,0.0,0.0,0.0,0.0,0.0,0.0,0.0,0.0,0.0,0.0,2.5636,2.5887,2.6508,2.6533,2.6533,2.6533,2.6533,2.6533,2.6533,2.6533,2.6533,2.6533,2.6458,2.6038,2.5511,2.6038,2.6013,2.5586,2.6163,2.6741,2.7344,2.7871,0.0,0.0,0.0,0.0,0.0,0.0,0.0,0.0,0.0,0.0,0.0,0.0,0.0,2.2051,2.2441,2.3144,2.3711,2.332,2.4394,2.5684,2.5801,2.5234,2.5391,2.8184,2.7637,2.6836,2.7969,2.916,3.0039,3.0098,3.1133,3.2031,3.2187,3.2891,0.0,0.0,0.0,0.0,0.0,0.0,0.0,0.0,0.0,0.0,0.0,0.0,0.0,0.0,0.0,0.0,0.0,0.0,3.8574,3.8574,3.8574,3.8428,3.8117,3.8117,3.858,3.943,3.9581,3.8915,3.7737,3.7896,3.7737,3.7737,3.7737,3.904,4.0685,3.8585,3.824,3.934,3.9784,4.1453,4.2844,0.0,0.0,0.0,0.0,0.0,0.0,0.0,0.0,0.0,0.0,0.0,0.0,0.0,0.0,0.0,0.0,0.0,0.0,0.0,2.5234,2.5561,2.5435,2.5762,2.5762,2.546,2.6113,2.6533,2.6533,2.6533,2.6533,2.6508,2.6088,2.5812,2.5611,2.5812,2.5812,2.5661,2.659,2.7092,2.7344,2.7871,2.7507,0.0,0.0,0.0,0.0,0.0,0.0,0.0,0.0,2.125,2.1504,2.166,2.1797,2.1914,2.207,2.2539,2.2969,2.2793,2.4023,2.5391,2.5664,2.5488,2.582,2.8027,2.8652,2.8828,2.9043,2.9687,3.0293,3.0566,3.168,3.2559,3.2559,0.0,0.0,0.0,0.0,0.0,0.0,0.0,0.0,0.0,0.0,0.0,0.0,0.0,0.0,0.0,0.0,0.0,0.0,0.0,3.8574,3.8574,3.8574,3.8574,3.8574,3.8574,3.9043,3.9902,3.9902,3.9874,4.0021,4.0021,4.0021,4.0021,4.0021,4.0509,4.123,4.075,4.1295,4.2055,4.2378,4.301,4.3526,0.0,0.0,0.0,0.0,0.0,0.0,0.0,0.0,0.0,0.0,0.0,0.0,0.0,0.0,0.0,0.0,0.0,0.0,2.3979,2.4682,2.5008,2.4833,2.5159,2.5184,2.4833,2.5711,2.6189,2.6189,2.6433,2.6533,2.6508,2.6063,2.5862,2.5862,2.5862,2.5862,2.5912,2.6691,2.7118,2.7318,2.7381,2.6749,0.0,0.0,0.0,0.0,0.0,0.0,0.0,0.0,2.0762,2.1055,2.1191,2.1348,2.1523,2.1797,2.2383,2.2891,2.2754,2.3965,2.5352,2.5664,2.5937,2.6562,2.8125,2.8848,2.9297,2.9687,3.0117,3.0547,3.0996,3.1797,0.0,0.0,0.0,0.0,0.0,0.0,0.0,0.0,0.0,0.0,0.0,0.0,0.0,0.0,0.0,0.0,0.0,0.0,0.0,0.0,0.0,3.8574,3.8574,3.8574,3.8574,3.8574,3.8711,3.916,3.9902,4.0039,4.0488,4.1172,4.1172,4.1172,4.1172,4.1172,4.125,4.1445,4.2148,4.2871,4.3516,4.3652,4.3711,4.3711,0.0,0.0,0.0,0.0,0.0,0.0,0.0,0.0,0.0,0.0,0.0,0.0,0.0,0.0,0.0,0.0,0.0,0.0,2.3954,2.4004,2.423,2.4782,2.4808,2.4833,2.4808,2.5335,2.5586,2.5611,2.6189,2.6533,2.6533,2.6533,2.6465,2.6465,2.6465,2.6465,2.6465,2.6465,2.6791,2.7197,2.6191,2.5827,2.5656,0.0,0.0,0.0,0.0,0.0,0.0,0.0,2.0566,2.0644,2.1094,2.0918,2.0742,2.1621,2.2793,2.3691,2.3262,2.4414,2.5762,2.5742,2.6387,2.7363,2.8633,2.793,2.7637,2.9746,3.0566,3.1035,3.1445,3.1523,0.0,0.0,0.0,0.0,0.0,0.0,0.0,0.0,0.0,0.0,0.0,0.0,0.0,0.0,0.0,0.0,0.0,0.0,0.0,0.0,0.0,0.0,3.8574,3.8574,3.8574,3.8574,3.9004,3.9453,3.9902,4.0332,4.0762,4.1172,4.1172,4.1172,4.1172,4.1172,4.1426,4.1855,4.2266,4.2695,4.3125,4.3555,4.3711,4.3711,0.0,0.0,0.0,0.0,0.0,0.0,0.0,0.0,0.0,0.0,0.0,0.0,0.0,0.0,0.0,0.0,0.0,0.0,2.3376,2.3778,2.3879,2.3653,2.4406,2.4632,2.4255,2.5134,2.5787,2.6189,2.6433,2.6533,2.6533,2.6533,2.6094,2.5441,2.5441,2.5441,2.5465,2.5828,2.6117,2.6191,2.59,2.4992,2.3689,0.0,0.0,0.0,0.0,0.0,0.0,0.0,0.0,0.0,2.0723,2.0898,2.1152,2.1719,2.2578,2.3379,2.3555,2.5312,2.6953,2.6348,2.7285,2.8457,2.8828,2.8633,2.8535,2.916,3.0625,3.1641,3.1172,3.1816,0.0,0.0,0.0,0.0,0.0,0.0,0.0,0.0,0.0,0.0,0.0,0.0,0.0,0.0,0.0,0.0,0.0,0.0,0.0,0.0,0.0,3.8574,3.8574,3.8574,3.8574,3.8594,3.9336,3.9766,3.9902,4.0332,4.0762,4.1172,4.1172,4.1172,4.1172,4.1172,4.1601,4.2246,4.2383,4.2871,4.3535,4.3652,4.3711,4.3711,0.0,0.0,0.0,0.0,0.0,0.0,0.0,0.0,0.0,0.0,2.546,2.541,0.0,0.0,0.0,0.0,0.0,0.0,2.3065,2.3452,2.3602,2.3477,2.413,2.4531,2.4632,2.5259,2.5887,2.6533,2.6239,2.6113,2.6113,2.6113,2.561,2.4707,2.4921,2.4684,2.4213,2.4874,2.4992,2.4632,2.4609,2.3772,2.2436,0.0,0.0,0.0,0.0,0.0,0.0,0.0,0.0,0.0,2.1035,2.1387,2.1836,2.2266,2.3223,2.4277,2.4707,2.6328,2.7871,2.7695,2.8418,2.918,2.918,2.9297,2.9473,2.9668,3.0879,3.1855,3.168,3.2285,0.0,0.0,0.0,0.0,0.0,0.0,0.0,0.0,0.0,0.0,0.0,0.0,0.0,0.0,0.0,0.0,0.0,0.0,0.0,0.0,0.0,3.8574,3.8574,3.8574,3.8574,3.8594,3.9473,3.9902,3.9922,4.0508,4.0918,4.1172,4.1172,4.1172,4.1172,4.1172,4.166,4.2422,4.2422,4.2949,4.3711,4.3711,4.3711,4.3711,0.0,0.0,0.0,0.0,0.0,0.0,0.0,0.0,0.0,2.4933,2.5259,2.536,0.0,0.0,0.0,2.4004,2.3477,2.3065,2.3065,2.3065,2.3401,2.3979,2.4079,2.4632,2.5661,2.5661,2.5937,2.6533,2.5887,2.5586,2.5586,2.5586,2.505,2.4117,2.459,2.4024,2.2809,2.3537,2.3444,2.267,2.2577,2.2215,2.1748,2.0874,0.0,0.0,0.0,0.0,0.0,0.0,0.0,0.0,2.1758,2.2168,2.2598,2.3008,2.4316,2.5723,2.625,2.7324,2.8496,2.9355,2.9629,2.9687,2.9687,2.998,3.0351,3.0703,0.0,3.1816,3.2598,0.0,0.0,0.0,0.0,0.0,0.0,0.0,0.0,0.0,0.0,0.0,0.0,0.0,0.0,0.0,0.0,0.0,0.0,0.0,0.0,0.0,0.0,3.8574,3.8574,3.8574,3.8574,0.0,3.9473,3.9902,3.9922,4.0781,4.1172,4.1172,4.1172,4.1172,4.1172,4.1172,4.166,4.2422,4.2422,4.2949,4.3711,4.3711,4.3711,4.3711,0.0,0.0,0.0,0.0,0.0,0.0,0.0,0.0,2.4079,2.5285,2.5184,2.5109,2.5385,2.4582,0.0,2.4004,2.3477,2.3065,2.3065,2.3065,2.3401,2.3979,2.4808,2.5586,2.6264,2.6332,2.6339,2.6533,2.5887,2.5586,2.5586,2.5586,2.4687,2.2999,2.3276,2.2755,2.1688,2.1609,2.1388,2.1246,2.1246,2.0876,2.0341,2.0134,2.0273,0.0,0.0,0.0,0.0,0.0,0.0,0.0,2.1855,2.2168,2.2598,2.3008,2.3887,2.4941,2.6074,2.7324,2.8496,2.9355,3.0098,3.0605,3.0605,3.0684,3.0566,2.998,3.1016,3.209,0.0,0.0,0.0,0.0,0.0,0.0,0.0,0.0,0.0,0.0,0.0,0.0,0.0,0.0,0.0,0.0,0.0,0.0,0.0,0.0,0.0,0.0,0.0,3.8574,3.8574,3.8574,3.8574,0.0,3.9473,3.9902,3.9922,4.0781,4.1172,4.1172,4.1172,4.1172,4.1172,4.1172,4.166,4.2422,4.2422,4.2949,4.3711,4.3711,4.3711,4.3711,0.0,0.0,0.0,0.0,0.0,0.0,0.0,0.0,2.4431,2.4782,2.4833,2.4833,2.4833,2.4079,0.0,0.0,2.2924,2.2749,2.2749,2.3,2.3502,2.4356,2.5435,2.6138,2.6508,2.6533,2.6533,2.6533,2.5636,2.5234,2.5209,2.4542,2.338,2.1954,2.1919,2.119,2.0053,2.0302,2.0149,1.9798,2.0219,2.0063,1.9629,1.9844,2.0059,2.0273,2.0488,0.0,0.0,0.0,0.0,0.0,0.0,0.0,2.3164,2.3379,2.4199,2.5332,2.6641,2.7773,2.8848,2.9941,3.0547,3.0898,3.0898,3.0898,3.0879,3.082,3.1543,0.0,0.0,0.0,0.0,0.0,0.0,0.0,0.0,0.0,0.0,0.0,0.0,0.0,0.0,0.0,0.0,0.0,0.0,0.0,0.0,0.0,0.0,0.0,3.8359,3.8574,3.8574,3.8574,3.8574,3.8594,3.9473,4.0117,4.0527,4.0976,4.1172,4.1172,4.1172,4.1172,4.1172,4.1172,4.166,4.2422,4.2422,4.2949,4.3711,4.3711,4.3711,4.3711,0.0,0.0,0.0,0.0,0.0,0.0,0.0,0.0,0.0,2.4079,2.4305,2.4356,2.3904,2.3351,2.2774,0.0,0.0,0.0,2.2322,2.2924,2.3753,2.4782,2.5787,2.6433,2.6533,2.6533,2.6483,2.6314,2.531,2.4693,2.44,2.3264,2.2185,2.1197,2.0797,1.9868,1.8633,1.93,1.9191,1.8535,1.9259,1.9404,1.9219,1.9648,1.9844,1.998,2.041,2.0605,2.0742,2.1113,0.0,0.0,0.0,0.0,2.3574,2.3574,2.4434,2.5664,2.6894,2.8047,2.9238,3.0566,3.0898,3.0898,3.0898,3.0898,3.1133,3.1992,0.0,0.0,0.0,0.0,0.0,0.0,0.0,0.0,0.0,0.0,0.0,0.0,0.0,0.0,0.0,0.0,0.0,0.0,0.0,0.0,0.0,0.0,3.6641,3.7988,3.8379,3.8574,3.8574,3.8574,3.8574,3.8594,3.9473,4.0351,4.1172,4.1172,4.1172,4.1172,4.1172,4.1172,4.1172,4.1172,4.166,4.2422,4.2422,4.2949,4.3711,4.3711,4.3711,4.3711,0.0,0.0,0.0,0.0,0.0,0.0,0.0,0.0,0.0,0.0,2.3627,2.3265,2.3251,2.2749,2.2196,2.1644,2.202,2.2322,2.2322,0.0,0.0,2.4782,2.5385,2.5937,2.6508,2.6533,2.6214,2.5711,2.5109,2.4171,2.2951,2.2815,2.2185,2.1174,2.0522,1.9561,1.8613,1.838,1.8154,1.8086,1.8222,1.8409,1.8769,1.9199,1.959,1.998,2.041,2.082,2.1152,2.1211,2.1523,0.0,0.0,0.0,2.2676,2.2676,2.334,2.4258,2.5156,2.7129,2.9238,3.0566,3.0898,3.0898,3.0898,3.0898,3.1133,0.0,0.0,0.0,0.0,0.0,0.0,0.0,0.0,0.0,0.0,0.0,0.0,0.0,0.0,0.0,0.0,0.0,0.0,0.0,0.0,0.0,0.0,3.5996,3.6777,3.8437,3.8555,3.8574,3.8574,3.8574,3.8574,3.8594,3.9473,4.0351,4.1172,4.1172,4.1172,4.1172,4.1172,4.1172,4.1172,4.1172,4.166,4.2422,4.2422,4.2949,4.3711,4.3711,4.3711,4.3711,0.0,0.0,0.0,0.0,0.0,0.0,0.0,0.0,0.0,0.0,0.0,2.2965,2.2698,2.2171,2.1619,2.1066,2.1242,2.1644,2.2272,2.3075,2.3778,2.433,2.5159,2.5711,2.5963,2.5988,2.5862,2.5586,2.4279,2.3207,2.2273,2.1019,2.0313,2.0115,1.9266,1.8694,1.8281,1.8086,1.8008,1.8008,1.8008,1.8418,1.9004,1.8945,1.9492,2.0273,2.0215,2.0488,2.0859,2.0859,2.1152,2.1523,2.1523,0.0,0.0,0.0,2.2773,2.3418,2.5019,2.7148,2.9121,2.9941,3.0527,3.0898,3.0898,3.0898,3.1055,0.0,0.0,0.0,0.0,0.0,0.0,0.0,0.0,0.0,0.0,0.0,0.0,0.0,0.0,0.0,0.0,0.0,0.0,0.0,0.0,0.0,3.5937,3.6016,3.6797,3.8516,3.8574,3.8574,3.8574,3.8574,3.8828,3.9316,3.9707,4.0351,4.1172,4.1172,4.1172,4.1172,4.1172,4.1172,4.1191,4.1426,4.1875,4.2461,4.2695,4.3164,4.3711,4.3711,4.3711,4.3711,0.0,0.0,0.0,0.0,0.0,0.0,0.0,0.0,0.0,0.0,0.0,2.2924,2.2372,0.0,0.0,0.0,2.0718,2.1066,2.2046,2.2498,2.305,2.3753,2.4556,2.5109,2.5385,2.541,2.5178,2.483,2.3434,2.2178,2.1082,1.938,1.8593,1.8647,1.8061,1.791,1.8008,1.8008,1.8008,1.8027,1.8242,1.8711,1.9297,1.9297,1.9902,2.0684,2.0234,2.0352,2.0703,2.0469,2.0703,2.1074,2.1074,2.1367,0.0,0.0,0.0,2.3086,2.5039,2.6719,2.8164,2.916,2.9902,3.0488,3.082,0.0,0.0,0.0,0.0,0.0,0.0,0.0,0.0,0.0,0.0,0.0,0.0,0.0,0.0,0.0,0.0,0.0,0.0,0.0,0.0,0.0,0.0,0.0,3.5781,3.5957,3.6758,3.8359,3.8516,3.8574,3.8574,3.8574,3.9023,3.9902,3.9902,4.0351,4.1172,4.1172,4.1172,4.1172,4.1172,4.1172,4.1211,4.1621,4.2051,4.2461,4.291,4.334,4.3711,4.3711,4.3711,4.3711,0.0,0.0,0.0,0.0,0.0,0.0,0.0,0.0,0.0,0.0,0.0,2.2924,2.2372,2.182,2.1267,2.0769,2.0718,2.097,2.1493,2.1568,2.2046,2.3065,2.3165,0.0,2.4833,2.4858,2.4196,2.2862,2.275,2.1353,1.8765,1.868,1.7963,1.688,1.7227,1.7637,1.8008,1.8008,1.8008,1.8086,1.8887,1.9238,1.9414,2.0644,2.1152,2.1133,2.0684,2.082,2.1074,2.0234,2.0234,2.0605,2.0605,2.0898,2.1348,0.0,0.0,0.0,2.4746,2.5176,2.5859,2.834,2.8984,2.9355,3.0605,0.0,0.0,0.0,0.0,0.0,0.0,0.0,0.0,0.0,0.0,0.0,0.0,0.0,0.0,0.0,0.0,0.0,0.0,0.0,0.0,0.0,0.0,0.0,3.5351,3.5801,3.6621,3.791,3.8359,3.8574,3.8574,3.8574,3.9023,3.9902,3.9902,4.0351,4.1172,4.1172,4.1172,4.1172,4.1172,4.1172,4.1211,4.1621,4.2051,4.2461,4.291,4.334,4.3711,4.3711,4.3711,4.3711,0.0,0.0,0.0,0.0,0.0,0.0,0.0,0.0,0.0,0.0,0.0,0.0,0.0,2.182,2.1267,2.0769,2.0338,2.0363,2.097,2.0966,2.1468,2.2548,2.2949,2.3502,2.428,2.3747,2.3176,2.2726,2.1212,1.9705,1.8176,1.7632,1.7014,1.6328,1.6777,1.7207,1.7598,1.7598,1.7773,1.8125,1.9551,2.0449,2.1016,2.1484,2.2168,2.2773,2.207,2.1738,2.168,2.1914,2.1543,2.0996,2.0996,2.0898,2.0957,2.168,2.248,2.3301,2.4043,2.4648,2.5352,2.6582,2.7695,2.8633,2.9121,3.0098,0.0,0.0,0.0,0.0,0.0,0.0,0.0,0.0,0.0,0.0,0.0,0.0,0.0,0.0,0.0,0.0,0.0,0.0,0.0,0.0,0.0,0.0,3.5332,3.6055,3.6894,3.7891,3.8359,3.8574,3.8574,3.8574,3.9023,3.9902,3.9902,4.0351,4.1172,4.1172,4.1172,4.1172,4.1172,4.1172,4.123,4.1914,4.2285,4.25,4.3203,4.3574,4.3711,4.3711,4.3711,4.3711,0.0,0.0,0.0,0.0,0.0,0.0,0.0,0.0,2.3491,2.3115,0.0,0.0,0.0,0.0,2.1192,2.0439,2.0037,1.9962,2.0363,2.0618,2.0957,2.1568,2.2135,2.2555,2.2844,2.2273,2.1864,2.1541,2.003,1.8781,1.7801,1.7189,1.6719,1.6309,1.6602,1.6973,1.7402,1.7539,1.7754,1.8164,1.9883,2.0742,2.1113,2.1973,2.2656,0.0,0.0,0.0,0.0,2.332,2.291,2.207,2.1934,2.1387,2.0937,2.168,2.2383,2.3027,2.3457,2.3984,2.4629,2.5508,2.6484,2.7441,2.8301,0.0,0.0,0.0,0.0,0.0,0.0,0.0,0.0,0.0,0.0,0.0,0.0,0.0,0.0,0.0,0.0,0.0,0.0,0.0,0.0,0.0,0.0,0.0,3.5117,3.5976,3.6914,3.7891,3.8359,3.8574,3.8574,3.8711,3.916,3.9902,4.0039,4.0488,4.1172,4.1172,4.1172,4.1172,4.1172,4.1172,4.123,4.1933,4.2305,4.25,4.3223,4.3574,4.3711,4.3711,4.3711,4.3711,0.0,0.0,0.0,0.0,0.0,0.0,2.4205,2.4481,2.4431,2.3265,0.0,0.0,0.0,0.0,0.0,1.9936,1.9861,1.9861,1.9784,2.0363,2.0533,2.0226,2.0665,2.088,2.059,2.059,2.0139,1.933,1.9309,1.8619,1.7383,1.7383,1.7148,1.6675,1.6675,1.6992,1.7422,1.7812,1.8008,1.8164,1.9902,2.0117,1.9687,2.2246,0.0,0.0,2.2969,2.3535,0.0,2.4375,0.0,0.0,0.0,2.2227,2.1309,2.1758,2.2187,2.2598,0.0,0.0,0.0,2.5234,2.5352,2.5703,2.8223,0.0,0.0,0.0,0.0,0.0,0.0,0.0,0.0,0.0,0.0,0.0,0.0,0.0,0.0,0.0,0.0,0.0,0.0,0.0,0.0,0.0,0.0,3.4258,3.4668,3.5566,3.6641,3.7891,3.8359,3.8574,3.8574,3.8984,3.9434,3.9902,4.0332,4.0762,4.1172,4.1172,4.1172,4.1172,4.1172,4.1172,4.1211,4.1621,4.2051,4.2461,4.291,4.334,4.3711,4.3711,4.3711,4.3711,0.0,0.0,0.0,0.0,0.0,2.5059,2.5134,2.4958,2.4707,0.0,0.0,0.0,2.319,2.2146,2.1368,2.1041,2.1016,2.0772,2.0137,2.0225,2.0192,1.9848,2.0007,2.0443,2.1018,2.0118,1.9656,1.9724,1.8805,1.8061,1.7383,1.7383,1.7148,1.6675,1.707,1.7266,1.7383,1.75,1.7734,1.8223,2.0566,2.1738,0.0,0.0,0.0,0.0,0.0,2.582,2.5781,0.0,2.5449,2.3496,0.0,2.125,2.1309,2.1758,2.2187,2.2598,2.3027,0.0,0.0,0.0,0.0,0.0,0.0,0.0,0.0,0.0,0.0,0.0,0.0,0.0,0.0,0.0,0.0,0.0,0.0,0.0,0.0,0.0,0.0,0.0,0.0,0.0,0.0,0.0,3.4101,3.457,3.4687,3.6133,3.7246,3.791,3.8359,3.8574,3.8574,3.8984,3.9434,3.9902,4.0332,4.0762,4.1172,4.1172,4.1172,4.1172,4.1172,4.1172,4.1211,4.1621,4.2051,4.2461,4.291,4.334,4.3711,4.3711,4.3711,4.3711,0.0,0.0,2.6414,2.6741,2.6465,2.6138,2.5988,2.5887,2.5611,0.0,0.0,0.0,2.3215,2.2253,2.151,2.0986,2.0653,2.0226,1.9679,1.9887,1.978,1.9206,1.9487,1.9663,1.9889,1.9287,1.9015,1.9097,1.8508,1.8047,1.7637,1.7637,1.75,1.7285,1.7539,1.7637,1.7637,1.7637,1.7891,1.8457,2.0508,0.0,0.0,2.4394,2.5391,0.0,0.0,0.0,2.6348,2.793,2.6855,0.0,0.0,2.1582,2.1562,2.1816,2.2187,2.2598,2.3027,2.3144,2.3184,2.3359,0.0,0.0,0.0,0.0,0.0,0.0,0.0,0.0,0.0,0.0,0.0,0.0,0.0,0.0,0.0,0.0,0.0,0.0,0.0,0.0,0.0,0.0,0.0,0.0,3.4219,3.4863,3.5234,3.6387,3.7226,3.7656,3.8086,3.8398,3.8574,3.918,3.9629,3.9902,4.0508,4.0918,4.1172,4.1172,4.1172,4.1172,4.1172,4.1172,4.1191,4.1426,4.1894,4.2461,4.2695,4.3164,4.3711,4.3711,4.3711,4.3711,0.0,0.0,2.7293,2.7293,2.7745,2.777,2.6791,2.6992,2.6791,0.0,2.5419,2.4978,2.3393,2.2418,2.1384,2.0382,1.9531,1.9088,1.8967,1.9364,1.9293,1.8508,1.8882,1.8798,1.8086,1.8437,1.8477,1.8144,1.8477,1.8437,1.8086,1.8027,1.8008,1.8008,1.8008,1.8008,1.8008,1.8008,1.834,1.8965,2.0215,2.0801,0.0,0.0,2.4531,2.4551,2.6523,2.6777,2.6484,2.8574,2.8086,0.0,0.0,0.0,2.2148,2.2051,2.2201,2.2485,2.2766,2.2775,2.2871,2.3345,2.3241,0.0,2.5644,2.6248,0.0,0.0,0.0,0.0,0.0,0.0,0.0,0.0,0.0,0.0,0.0,0.0,0.0,0.0,0.0,0.0,0.0,0.0,3.3418,3.3418,3.4219,3.5078,3.5976,3.6445,3.6855,3.7285,3.7715,3.8125,3.8574,3.9394,3.9844,3.9902,4.0723,4.1133,4.1172,4.1172,4.1172,4.1172,4.1172,4.1172,4.1172,4.1172,4.166,4.2422,4.2422,4.2949,4.3711,4.3711,4.3711,4.3711,2.6339,2.6892,2.7293,2.7293,2.7745,2.8021,2.7821,2.7494,2.7318,2.7444,2.611,2.4867,2.4054,2.2379,2.1215,2.1012,2.0587,1.9982,1.9275,1.9295,1.8965,1.814,1.822,1.8301,1.8516,1.8523,1.8769,1.9043,1.8769,1.8523,1.8516,1.8164,1.8008,1.8008,1.8008,1.8008,1.8008,1.8008,1.8848,2.0273,2.125,0.0,2.3398,2.5664,2.6894,2.7519,2.8281,2.8672,2.8691,2.7812,2.7695,2.7363,0.0,0.0,2.3789,2.3105,2.232,2.1566,2.164,2.0944,2.0421,2.1482,2.1713,0.0,2.3919,2.3312,0.0,0.0,0.0,0.0,0.0,0.0,0.0,0.0,0.0,0.0,0.0,0.0,0.0,0.0,0.0,0.0,0.0,0.0,3.3418,3.3418,3.4219,3.5078,3.5976,3.6445,3.6855,3.7285,3.7715,3.8125,3.8574,3.9082,3.9531,3.9902,4.041,4.084,4.1172,4.1172,4.1172,4.1172,4.1172,4.1172,4.1172,4.1172,4.166,4.2422,4.2422,4.2949,4.3711,4.3711,4.3711,4.3711,2.6458,2.7118,2.7695,2.7695,2.8398,2.87,2.7851,2.7482,2.699,2.628,2.5031,2.3976,2.3213,2.1842,2.0812,2.0268,1.9701,1.911,1.8664,1.8664,1.8462,1.8008,1.8008,1.8105,1.832,1.875,1.8965,1.8965,1.8965,1.8848,1.8633,1.8203,1.8242,1.8633,1.8203,1.8242,1.8633,1.8418,1.8945,2.0039,2.1348,0.0,2.4629,2.6348,2.7422,2.8066,2.8691,2.9336,2.9629,2.791,2.748,0.0,0.0,2.4805,2.401,2.3461,2.2483,2.1482,2.0637,1.9951,1.9679,2.0206,2.0387,0.0,0.0,0.0,0.0,0.0,0.0,0.0,0.0,0.0,0.0,0.0,0.0,0.0,0.0,0.0,0.0,0.0,0.0,0.0,0.0,0.0,3.3516,3.373,3.4336,3.5,3.5664,3.6113,3.6543,3.6973,3.7402,3.7812,3.8242,3.8887,3.9434,3.9902,4.0332,4.0762,4.1172,4.1172,4.1172,4.1172,4.1172,4.1172,4.1172,4.1172,4.166,4.2422,4.2422,4.2949,4.3711,4.3711,4.3711,4.3711,2.5931,2.689,2.773,2.7558,2.8393,2.8724,2.738,2.7058,2.6302,2.4475,2.3771,2.3283,2.2697,2.1546,2.0678,2.0218,1.9133,1.8437,1.8262,1.8262,1.8262,1.8262,1.8105,1.8086,1.8262,1.8926,1.9121,1.875,1.9121,1.9102,1.875,1.832,1.8496,1.9141,1.8691,1.8848,1.9394,1.9121,1.9453,2.0273,0.0,2.3144,2.4629,2.6269,2.7109,2.7578,2.875,2.9668,3.0078,2.8359,2.7656,2.7461,2.7226,2.5957,0.0,2.3312,2.2528,2.1468,1.9629,1.8948,1.8856,1.9131,1.9131,1.9369,0.0,0.0,0.0,0.0,0.0,0.0,0.0,0.0,0.0,0.0,0.0,0.0,0.0,0.0,0.0,0.0,0.0,0.0,0.0,0.0,3.3516,3.4023,3.4394,3.4824,3.5371,3.5801,3.623,3.666,3.7012,3.7422,3.791,3.8613,3.9277,3.9902,4.0234,4.0664,4.1172,4.1172,4.1172,4.1172,4.1172,4.1172,4.1172,4.1172,4.166,4.2422,4.2422,4.2949,4.3711,4.3711,4.3711,4.3711,2.3818,2.5382,2.6411,2.5547,2.6211,2.6789,2.664,2.6174,2.5442,2.4323,2.3807,2.3845,2.4767,2.2616,2.1728,2.3097,2.146,1.9961,1.9199,1.9141,1.9141,1.9141,1.8418,1.8359,1.9121,1.9238,1.9258,1.9219,1.9258,1.9258,1.9199,1.8769,1.8613,1.875,1.9805,2.0117,1.9863,2.0195,2.1484,0.0,2.3496,2.3047,0.0,2.5391,2.6484,2.6855,2.9199,3.0371,3.0547,0.0,2.8691,2.8828,0.0,2.623,2.6575,2.3146,2.1812,2.0962,1.8582,1.7124,1.648,1.7591,1.787,1.8257,0.0,0.0,1.813,0.0,0.0,0.0,0.0,0.0,0.0,0.0,0.0,0.0,0.0,0.0,0.0,0.0,0.0,0.0,0.0,0.0,0.0,3.4023,3.4121,3.4512,3.5351,3.5801,3.623,3.666,3.6719,3.7129,3.791,3.8027,3.8691,3.9902,3.9941,4.0391,4.1172,4.1172,4.1172,4.1172,4.1172,4.1172,4.1172,4.1172,4.166,4.2422,4.2422,4.2949,4.3711,4.3711,4.3711,4.3711,2.3379,2.4634,2.5378,2.47,2.5632,2.6206,2.5261,2.4175,2.3184,2.2542,2.2063,2.2022,2.2491,2.1104,2.07,2.211,0.0,2.0254,0.0,0.0,2.0039,2.0039,1.8965,1.8769,1.9629,1.9414,1.9414,1.9648,1.9414,1.9414,1.9629,1.8965,1.9043,1.9785,2.0586,2.1133,2.1426,2.1621,2.1934,0.0,0.0,0.0,0.0,2.5703,2.7441,2.8066,2.9629,3.0488,3.082,0.0,2.9414,0.0,0.0,0.0,0.0,2.4003,2.2192,2.0276,1.8548,1.8178,1.8277,1.8103,1.858,0.0,1.766,0.0,1.6574,0.0,0.0,0.0,0.0,0.0,0.0,0.0,0.0,0.0,0.0,0.0,0.0,0.0,0.0,0.0,0.0,0.0,0.0,0.0,0.0,3.3711,3.459,3.5508,3.6094,3.6289,3.6543,3.6836,3.7187,3.7441,3.7969,3.8769,3.9258,3.9824,4.0449,4.0957,4.1172,4.1172,4.1172,4.1172,4.1172,4.1172,4.1523,4.209,4.2324,4.2949,4.3711,4.3711,4.3711,4.3711,2.2563,2.3591,2.4193,2.3742,2.4594,2.5016,2.393,2.2611,2.1602,2.1269,2.0957,2.0977,2.153,2.076,2.084,2.2469,2.1568,2.1211,0.0,0.0,2.1035,2.1269,1.9805,0.0,2.043,1.9922,1.9727,1.9922,1.9609,1.9609,1.9902,1.9277,1.9492,2.041,2.1113,2.1894,2.2695,2.2812,2.2852,2.2871,2.3496,2.3574,2.3652,2.6426,2.8086,2.9043,3.0039,3.0527,3.0742,3.1055,3.0,0.0,3.1055,0.0,2.5891,2.5308,2.3721,2.1858,1.9987,1.9853,0.0,0.0,0.0,0.0,0.0,0.0,0.0,0.0,0.0,0.0,0.0,0.0,0.0,1.6112,0.0,0.0,0.0,0.0,0.0,0.0,0.0,0.0,0.0,0.0,0.0,0.0,0.0,0.0,3.4004,3.5078,3.5762,3.6016,3.6328,3.6543,3.668,3.6973,3.7402,3.793,3.8789,3.9453,3.9922,4.0781,4.1172,4.1172,4.1172,4.1172,4.1172,4.1172,4.1426,4.1836,4.2266,4.2891,4.3555,4.3672,4.3711,4.3711,2.0722,2.1818,2.2584,2.2106,2.231,2.2605,2.2605,2.1797,2.125,0.0,0.0,0.0,0.0,0.0,0.0,0.0,0.0,2.3496,2.3125,0.0,2.2207,0.0,0.0,2.0488,0.0,2.0977,2.0332,1.9922,1.9902,1.9902,1.9922,1.9883,1.9902,1.998,2.1289,2.2324,2.3144,2.3574,2.4941,2.6836,2.6855,2.7598,2.8555,0.0,2.7812,2.9082,3.0391,0.0,0.0,3.0234,3.0488,0.0,0.0,0.0,0.0,0.0,0.0,0.0,0.0,0.0,0.0,2.0638,0.0,0.0,0.0,0.0,1.5832,0.0,0.0,0.0,0.0,1.5832,1.5832,1.5845,1.5858,0.0,0.0,0.0,0.0,0.0,0.0,0.0,0.0,0.0,0.0,0.0,0.0,0.0,3.3965,3.4492,3.5137,3.5996,3.6035,3.625,3.666,3.668,3.7109,3.793,3.8789,3.9453,3.9922,4.0781,4.1172,4.1172,4.1172,4.1172,4.1172,4.1172,4.1426,4.1836,4.2266,4.2695,4.3144,4.3555,4.3711,4.3711,2.1016,2.1669,2.2008,2.1565,2.2051,2.2519,2.2519,2.2031,0.0,0.0,0.0,0.0,0.0,0.0,2.3319,0.0,0.0,2.3965,2.4394,2.3887,0.0,0.0,0.0,2.1973,0.0,2.1602,2.0781,2.0352,2.0059,2.0059,2.0332,2.0059,2.0078,2.041,2.1719,2.293,2.4004,2.4453,2.5391,0.0,0.0,2.7266,2.7773,0.0,0.0,2.9492,3.0527,3.0976,0.0,3.1406,3.123,3.1016,3.168,3.0723,2.9211,2.8329,2.7545,0.0,0.0,0.0,2.5687,2.41,0.0,0.0,0.0,0.0,0.0,0.0,0.0,0.0,0.0,1.6745,1.6239,1.7674,1.6745,1.5872,0.0,0.0,0.0,0.0,0.0,0.0,0.0,0.0,0.0,0.0,0.0,0.0,0.0,3.4766,3.5547,3.6426,3.6445,3.6387,3.623,3.623,3.6387,3.668,3.7812,3.8594,3.9062,4.0215,4.0898,4.1172,4.1172,4.1172,4.1172,4.1172,4.125,4.1426,4.1855,4.2266,4.2734,4.3437,4.3711,4.3711,2.1465,2.1699,2.1836,2.1719,2.2148,2.2559,2.2715,0.0,0.0,0.0,2.2402,0.0,2.3477,0.0,2.3535,0.0,2.457,2.4551,2.5254,2.4883,0.0,2.5508,2.418,0.0,0.0,0.0,2.1934,2.1484,2.0742,2.0605,2.1016,2.043,2.0391,2.084,2.1523,2.2695,2.4219,2.4648,2.5527,0.0,0.0,2.7519,0.0,0.0,2.9434,2.8887,0.0,3.1191,3.1406,3.2148,3.2129,3.1992,3.3086,3.209,3.0568,3.0528,2.9761,2.8897,2.8728,2.8793,0.0,2.7172,2.5755,0.0,2.1361,0.0,1.8918,0.0,0.0,0.0,0.0,1.7711,1.6334,1.8009,1.6843,1.5872,0.0,1.6246,0.0,0.0,0.0,0.0,0.0,0.0,0.0,0.0,0.0,0.0,0.0,0.0,3.5469,3.6641,3.6816,3.668,3.625,3.625,3.6172,3.6035,3.7168,3.793,3.8379,3.9531,4.0371,4.0937,4.0937,4.1035,4.1172,4.1172,4.1172,4.1211,4.1641,4.2051,4.2519,4.3223,4.3574,4.3711,2.1914,2.1934,2.207,2.248,2.2559,0.0,0.0,0.0,2.2559,0.0,2.293,2.3184,2.3223,2.3613,2.4219,2.5039,2.5117,0.0,2.5742,2.5391,0.0,0.0,2.5625,2.5352,2.5762,0.0,0.0,0.0,2.1875,2.1484,2.1875,2.0996,2.084,2.125,2.0801,2.1797,2.3848,2.4238,2.5449,2.7148,2.7637,2.8496,2.9512,2.9629,2.8594,2.75,3.0449,3.1289,3.1172,3.2383,3.3066,3.3418,3.3418,3.3418,3.3418,3.3418,3.3418,3.3164,3.1934,3.0439,2.9319,2.9676,0.0,0.0,0.0,0.0,2.4054,0.0,0.0,0.0,0.0,0.0,1.6386,1.7211,1.6505,1.5925,0.0,0.0,0.0,0.0,0.0,0.0,0.0,0.0,0.0,0.0,0.0,0.0,0.0,0.0,0.0,3.6582,3.7031,3.7031,3.6621,3.6601,3.6387,3.5957,3.6875,3.7519,3.7949,3.8809,3.9687,4.0527,4.0547,4.0781,4.1172,4.1172,4.1172,4.1211,4.1621,4.2031,4.248,4.2949,4.3359,4.3711,2.2363,2.2598,2.2852,0.0,2.3242,2.3496,0.0,0.0,0.0,0.0,2.375,2.3867,2.4512,2.498,2.5332,2.5547,2.5859,0.0,0.0,0.0,0.0,2.7305,2.6816,2.6426,2.623,2.4922,0.0,2.3144,2.2187,2.1777,2.1875,2.1328,2.1289,2.1699,2.1269,2.2246,2.4258,2.4375,2.5977,2.8535,2.9629,2.9492,0.0,0.0,2.9941,2.8691,3.0781,3.1855,3.2363,3.2676,3.3066,3.3418,3.3418,3.3418,3.3418,3.3418,3.3418,3.3359,3.3027,3.2584,3.2169,3.1719,3.0049,2.841,0.0,0.0,0.0,0.0,0.0,0.0,0.0,0.0,0.0,2.0253,1.7829,1.5858,0.0,0.0,0.0,0.0,0.0,0.0,0.0,0.0,0.0,0.0,0.0,0.0,0.0,0.0,0.0,3.6133,3.6289,3.6152,3.5723,3.5723,3.5488,3.5059,3.6582,3.7519,3.7949,3.8809,3.9687,4.0547,4.0859,4.1074,4.1172,4.1172,4.1172,4.1191,4.1289,4.1777,4.2519,4.3262,4.3613,4.3711,2.2793,2.2969,0.0,2.3144,0.0,0.0,2.4043,0.0,0.0,2.4629,2.4668,0.0,2.5039,2.5469,2.582,2.5996,2.625,0.0,2.6641,0.0,0.0,2.7656,2.7598,2.7461,2.7226,2.6133,0.0,2.4277,0.0,2.2617,2.2422,2.1199,2.0957,2.1334,2.0338,2.0789,2.23,2.3598,2.5676,2.8184,2.9316,2.9492,0.0,3.0703,3.0976,3.0742,3.1719,3.2383,3.2832,3.3008,3.3223,3.3418,3.3418,3.3418,3.3418,3.3418,3.3418,3.3418,3.3418,3.3555,3.3594,3.3125,3.2585,3.1834,3.0622,3.0018,2.966,0.0,0.0,0.0,0.0,0.0,0.0,0.0,0.0,0.0,0.0,0.0,0.0,0.0,0.0,0.0,0.0,0.0,0.0,0.0,0.0,0.0,0.0,0.0,0.0,3.5684,3.5742,3.5449,3.4824,3.5566,3.5527,3.4726,3.6465,3.7519,3.7949,3.8613,3.9414,4.0273,4.0703,4.0879,4.0898,4.1094,4.1172,4.1191,4.1367,4.1855,4.25,4.3183,4.3555,4.3711,2.3144,2.3184,0.0,0.0,0.0,0.0,0.0,2.4824,0.0,2.5234,0.0,2.5781,2.5449,2.5801,2.623,2.6602,0.0,2.6797,2.7168,2.7539,2.7754,2.7754,2.8105,2.8301,2.8301,2.7461,0.0,0.0,0.0,2.3345,2.2843,2.0802,2.0057,2.0517,1.9003,1.8968,2.0247,2.2975,2.5357,2.7422,2.834,2.9375,3.043,3.0937,3.1836,3.2793,3.2851,3.2871,3.293,3.3301,3.3418,3.3418,3.3418,3.3418,3.3418,3.3418,3.3418,3.3437,3.3496,3.3789,3.4101,3.4219,3.4824,3.5019,3.3555,3.3789,3.4219,3.3848,3.1675,3.0377,0.0,0.0,0.0,0.0,0.0,0.0,0.0,0.0,0.0,0.0,0.0,0.0,0.0,0.0,0.0,0.0,0.0,0.0,0.0,0.0,0.0,3.498,3.5215,0.0,3.4004,0.0,3.6016,3.4726,3.6523,3.7578,3.7949,3.8379,3.9062,3.9922,4.0332,4.0547,4.0644,4.1016,4.1172,4.1211,4.1641,4.2031,4.2402,4.2891,4.3301,4.3633,2.3144,2.3437,2.3574,0.0,0.0,2.4043,2.4844,2.5019,2.5332,2.6055,2.6523,2.6894,2.7187,2.7598,2.7871,2.7949,2.7949,0.0,0.0,0.0,0.0,2.8184,2.8262,2.8301,2.8301,2.7461,2.6602,0.0,0.0,2.2392,2.1551,1.9849,1.9229,1.9653,1.9018,2.0314,2.326,2.4808,0.0,2.9238,3.0469,3.1094,3.1367,3.2168,3.2598,3.2832,3.3184,3.332,3.332,3.3398,3.3418,3.3418,3.3418,3.3418,3.3418,3.3418,3.3418,3.3496,3.3867,3.4023,3.4258,3.498,3.5273,3.541,3.5449,3.5566,3.5664,3.5586,3.5179,3.4409,3.3425,0.0,0.0,0.0,0.0,0.0,0.0,0.0,0.0,0.0,0.0,0.0,0.0,0.0,0.0,0.0,0.0,0.0,0.0,0.0,0.0,0.0,0.0,0.0,0.0,0.0,3.6016,3.4726,3.6816,3.7851,3.7949,3.8379,3.9062,3.9922,4.0332,4.0723,4.1074,4.1152,4.1172,4.1211,4.1641,4.1836,4.2012,4.2793,4.3125,4.3242,2.3809,2.3789,2.373,0.0,0.0,0.0,0.0,2.5977,0.0,2.6992,2.7422,2.7754,2.7969,2.8164,2.8379,2.8594,2.8613,2.8613,2.8613,2.8613,2.8516,2.8301,2.8301,0.0,2.8301,2.7891,2.7031,2.5742,0.0,2.2586,2.1284,1.9225,1.8347,1.8611,1.8973,2.0457,2.2775,2.5195,0.0,2.9668,3.0762,3.1582,3.2226,3.2637,3.293,3.3144,3.334,3.3418,3.3418,3.3418,3.3418,3.3418,3.3418,3.3418,3.3418,3.3418,3.3574,3.3809,3.4023,3.4414,3.4863,3.5293,3.5566,3.5762,3.5976,3.6016,3.6016,3.6016,3.6016,3.5142,3.2676,2.9258,0.0,0.0,0.0,0.0,0.0,0.0,0.0,0.0,0.0,0.0,0.0,0.0,0.0,0.0,0.0,0.0,0.0,0.0,0.0,0.0,0.0,0.0,0.0,0.0,0.0,3.4394,3.7012,3.8262,3.8281,3.8711,3.9258,3.9922,4.0332,4.0644,4.0859,4.1074,4.1172,4.1191,4.1387,4.1601,4.1875,4.2519,4.2891,4.3144,2.4707,2.4512,0.0,0.0,2.4473,0.0,2.5996,2.709,2.7871,2.8047,2.8437,2.873,2.8828,2.8848,2.8984,2.9316,2.9258,2.916,2.9062,2.8965,2.873,2.832,2.8301,2.8301,2.8301,2.8301,2.7598,0.0,0.0,2.2804,2.1298,1.8955,1.8082,1.8704,1.9688,2.1042,0.0,0.0,2.7845,2.9922,3.0801,3.1758,3.2676,3.2851,3.3125,3.3418,3.3418,3.3418,3.3418,3.3418,3.3418,3.3418,3.3418,3.3418,3.3437,3.3535,3.3809,3.4121,3.4297,3.4863,3.541,3.5508,3.5781,3.6016,3.6016,3.6016,3.6016,3.6016,3.6016,3.5103,3.2016,3.047,0.0,0.0,0.0,0.0,0.0,0.0,0.0,0.0,0.0,0.0,0.0,0.0,0.0,0.0,0.0,0.0,0.0,0.0,0.0,0.0,0.0,3.2508,3.2277,0.0,3.6348,0.0,3.7344,3.8574,3.8594,3.8926,3.9316,3.9766,4.0195,4.0488,4.0684,4.1035,4.1172,4.1172,4.1172,4.1367,4.1719,4.2129,4.2558,4.3008,0.0,0.0,0.0,0.0,0.0,0.0,2.7285,2.791,2.8516,2.9297,2.9746,3.0176,3.0605,3.0644,3.0664,3.0703,3.0312,2.9922,2.9531,2.9141,2.873,2.832,2.8301,2.8301,2.8301,2.8301,2.8027,0.0,0.0,2.1928,2.1324,1.9255,1.9474,2.1678,2.1778,0.0,0.0,2.6865,2.8446,3.084,3.1699,3.2129,3.2305,3.3066,3.3379,3.3418,3.3418,3.3418,3.3418,3.3418,3.3418,3.3418,3.3418,3.3418,3.3496,3.3887,3.4043,3.4258,3.5059,3.5332,3.5488,3.5859,3.5996,3.6016,3.6016,3.6016,3.6016,3.6016,3.6016,3.5469,3.3564,3.2579,3.0445,0.0,0.0,0.0,0.0,0.0,0.0,2.3518,0.0,0.0,0.0,0.0,0.0,0.0,2.0135,0.0,0.0,0.0,0.0,2.9428,0.0,3.0369,3.0825,3.4701,0.0,3.7012,3.8066,3.8574,3.8574,3.8613,3.8867,3.9297,3.9766,4.0391,4.1113,4.1152,4.1172,4.1172,4.1172,4.1191,4.1289,4.1699,4.2129,4.2558,0.0,0.0,0.0,0.0,0.0,0.0,0.0,2.9004,2.9668,3.0273,3.0508,3.0684,3.0859,3.0898,3.0898,3.0898,3.0723,3.043,2.998,2.9551,2.9121,2.8691,2.8437,2.8301,2.8301,2.8535,2.834,0.0,0.0,0.0,2.2821,2.1014,2.1163,2.2978,2.4403,2.5811,2.716,2.871,3.0084,3.1269,3.1367,3.1719,3.2168,3.2246,3.2441,3.2695,3.2949,3.3047,3.3086,3.334,3.3418,3.3418,3.3418,3.3594,3.3848,3.4023,3.4453,3.4941,3.5293,3.5586,3.5801,3.5976,3.6016,3.6016,3.6016,3.6016,3.6016,3.6016,3.6016,3.5801,3.5117,3.4085,3.245,0.0,0.0,0.0,0.0,0.0,0.0,2.4669,0.0,2.6633,0.0,0.0,0.0,0.0,0.0,0.0,0.0,0.0,0.0,2.7869,0.0,3.1653,3.2986,3.4463,3.5724,3.6934,3.8047,3.8574,3.8574,3.8574,3.8965,3.9648,4.0078,4.0625,4.1172,4.1172,4.1172,4.1172,4.1172,4.1172,4.123,4.1641,4.207,4.25,2.7324,0.0,2.709,0.0,2.7832,2.832,2.916,2.9805,3.0371,3.082,3.0898,3.0898,3.0898,3.0898,3.0898,3.0898,3.0898,3.0703,3.0234,2.9805,2.9375,2.8945,2.8516,0.0,2.8476,2.8769,2.875,2.8418,2.6218,0.0,2.4856,2.3402,2.3582,0.0,2.7013,2.7996,2.8295,3.0142,3.1055,3.1328,3.1152,3.1445,3.1953,3.1777,3.1894,3.2226,3.2656,3.2793,3.2871,3.3418,3.3613,3.3613,3.3613,3.3828,3.4121,3.4375,3.4902,3.543,3.5547,3.5801,3.6016,3.6016,3.6016,3.6016,3.6016,3.6016,3.6016,3.6016,3.6016,3.6016,3.6016,3.5273,3.3989,3.2187,0.0,0.0,0.0,2.8731,0.0,0.0,2.6149,0.0,0.0,0.0,0.0,0.0,0.0,0.0,0.0,0.0,0.0,0.0,0.0,0.0,0.0,3.344,3.4883,3.7246,3.8144,3.8574,3.8574,3.8574,3.9062,3.9922,4.0215,4.0664,4.1172,4.1172,4.1172,4.1172,4.1172,4.1172,4.1211,4.1504,4.1875,4.2305,2.8281,2.8281,2.8398,2.8828,2.8906,2.9199,3.0059,3.0195,3.0371,3.082,3.0898,3.0898,3.0898,3.0898,3.0898,3.0898,3.0898,3.0703,3.0234,2.9805,2.9375,0.0,0.0,2.8496,2.8906,2.8926,2.9336,3.0176,0.0,0.0,2.705,2.6117,2.706,2.9531,2.9551,3.0039,3.0859,3.0879,3.0898,3.0937,3.1348,3.1523,3.1562,3.1992,3.2168,3.2226,3.2656,3.2793,3.293,3.3769,3.4062,3.4062,3.4062,3.4062,3.4238,3.5117,3.5391,3.5488,3.5898,3.6016,3.6016,3.6016,3.6016,3.6016,3.6016,3.6016,3.6016,3.6016,3.6016,3.6016,3.6016,3.6016,3.4892,3.1612,0.0,0.0,0.0,0.0,0.0,2.413,0.0,0.0,2.6996,0.0,0.0,0.0,0.0,0.0,0.0,0.0,0.0,2.4386,2.3686,0.0,2.9478,3.1399,3.4471,3.8555,3.8574,3.8574,3.8574,3.8574,3.9062,3.9902,3.9902,4.0391,4.1172,4.1172,4.1172,4.1172,4.1172,4.1172,4.1172,4.1172,4.1445,4.1875,2.8242,2.8301,2.8516,2.9238,2.9355,2.9648,3.0527,3.0664,3.0723,3.0879,3.0898,3.0898,3.0898,3.0898,3.0898,0.0,3.0898,3.082,0.0,3.0254,2.9941,2.9805,2.9394,2.9219,2.9355,2.9648,2.9922,3.0195,0.0,0.0,0.0,2.8377,2.9138,3.0469,3.0469,3.0625,3.0898,3.0898,3.0898,3.0898,3.1035,3.1094,3.1113,3.125,3.1465,3.1777,3.2207,3.2559,3.293,3.3789,3.4082,3.418,3.4785,3.498,3.5019,3.5312,3.5605,3.5859,3.5996,3.6016,3.6016,3.6016,3.6016,3.6016,3.6016,3.6016,3.6016,3.6016,3.6016,3.6016,3.6016,3.6016,3.5047,3.2298,3.3575,0.0,2.7682,0.0,3.0644,2.7437,2.7118,0.0,0.0,2.7634,0.0,0.0,0.0,0.0,0.0,0.0,0.0,0.0,2.9848,0.0,3.4421,3.3845,3.5276,3.8574,3.8574,3.8574,3.8574,3.8574,3.9062,3.9922,4.0195,4.0644,4.1172,4.1172,4.1172,4.1172,4.1172,4.1172,4.1172,4.1172,4.1445,4.1855,2.8516,2.8672,2.9043,2.9922,3.0195,3.0547,3.1269,3.1367,3.1367,3.1367,3.1367,3.1367,3.1367,3.1367,0.0,3.0918,3.0898,3.0898,3.0898,3.0449,3.0195,3.0195,2.9785,2.9648,2.9805,3.0059,0.0,3.0449,2.9922,2.9668,2.9668,2.9941,3.0371,3.0898,3.0898,3.0898,3.0898,3.0898,3.0898,3.0898,3.0898,3.0996,3.1133,3.1133,3.1387,3.1836,3.2422,3.2715,3.2969,3.416,3.4453,3.4453,3.5351,3.5625,3.5625,3.5625,3.582,3.6016,3.6016,3.6016,3.6016,3.6016,3.6016,3.6016,3.6016,3.6016,3.6016,3.6016,3.6016,3.6016,3.6016,3.6016,3.5549,3.3913,3.4969,3.4545,3.0628,0.0,3.2271,0.0,0.0,0.0,0.0,3.0045,0.0,0.0,0.0,0.0,0.0,0.0,0.0,3.068,3.1637,0.0,3.5788,3.4752,3.5594,3.832,3.8164,3.8184,3.834,3.8496,3.9062,3.9922,4.0332,4.0781,4.1172,4.1172,4.1172,4.1172,4.1172,4.1172,4.1172,4.1172,4.1348,4.1621,2.9141,2.9375,2.9922,0.0,3.125,0.0,3.2109,3.2168,3.2168,3.2168,3.2168,3.2168,3.2168,3.2168,3.1855,3.1055,0.0,0.0,0.0,3.0547,3.0293,3.0293,2.9883,2.9844,3.0234,3.0234,3.0449,3.0898,3.0898,3.0898,3.0898,3.0898,3.0898,3.0898,3.0898,3.0898,3.0898,3.0898,3.0918,3.0937,3.0937,3.1191,3.1562,3.1562,3.1836,3.2324,3.3105,3.3144,3.3086,3.4785,3.5059,3.4844,3.5742,3.6016,3.6016,3.6016,3.6016,3.6016,3.6016,3.6016,3.6016,3.6016,3.6016,3.6016,3.6016,3.6016,3.6016,3.6016,3.6016,3.6016,3.6016,3.6016,3.6016,3.6016,3.6016,3.5143,3.2643,3.4296,3.3652,0.0,0.0,0.0,0.0,3.1336,3.1635,0.0,0.0,0.0,0.0,0.0,2.8554,3.0361,3.0412,3.1755,3.444,3.444,3.568,3.791,3.75,3.75,3.7891,3.8359,3.9043,3.9883,4.0351,4.0801,4.1172,4.1172,4.1172,4.1172,4.1172,4.1172,4.1172,4.1172,4.1172,4.123,0.0,0.0,3.0742,3.1269,3.1445,3.166,3.2109,3.2168,3.2168,3.2168,3.2168,3.2168,3.2168,3.2168,3.209,3.1875,3.1875,3.1875,3.1875,3.1445,3.1211,3.1211,3.0801,3.0625,3.0723,3.0723,3.0781,3.0898,3.0898,3.0898,3.0898,3.0898,3.0898,3.0898,3.0898,3.0898,3.0898,3.0898,3.1074,3.1367,3.1367,3.1621,3.2012,3.2012,3.2285,3.2676,3.2871,3.3086,3.3437,3.4492,3.4785,3.4844,3.5742,3.6016,3.6016,3.6016,3.6016,3.6016,3.6016,3.6016,3.6016,3.6016,3.6016,3.6016,3.6016,3.6016,3.6016,3.6016,3.6016,3.6016,3.6016,3.6016,3.6016,3.6016,3.6016,3.5143,3.2643,3.2832,3.2703,0.0,3.1588,3.2766,3.4643,3.4853,3.4013,0.0,0.0,0.0,0.0,3.2869,3.4978,3.6417,3.6474,3.6914,3.7509,3.7509,3.7595,3.791,3.75,3.7344,3.7461,3.8223,3.8867,3.9434,4.0547,4.1074,4.1172,4.1172,4.1172,4.1172,4.1172,4.1172,4.1172,4.1172,4.1172,4.123,3.0937,3.1055,3.1309,3.1738,3.1973,3.2246,3.2676,3.2734,3.2734,3.2734,3.2734,3.2734,3.2734,3.2734,3.2656,3.248,3.2285,3.209,3.1875,3.1836,3.1641,3.125,3.1387,3.1289,3.0898,3.1074,3.1074,3.0898,3.0898,3.0898,3.0898,3.0898,3.0898,3.0898,3.0898,3.0996,3.1172,3.1172,3.1426,3.1816,3.1816,3.207,3.2461,3.2461,3.2715,3.3125,3.3535,3.3555,3.3613,3.4883,3.5039,3.4844,3.5742,3.6016,3.6016,3.6016,3.6016,3.6016,3.6016,3.6016,3.6016,3.6016,3.6016,3.6016,3.6016,3.6016,3.6016,3.6016,3.6016,3.6016,3.6016,3.6016,3.6016,3.6016,3.4988,3.3876,3.2454,3.2266,3.2266,3.2266,3.3285,3.4526,3.584,3.6016,3.553,3.4183,3.4221,0.0,3.3093,3.4658,3.5793,3.6618,3.7953,3.8574,3.8574,3.8184,3.7871,3.7637,3.7012,3.6914,3.7324,3.7988,3.873,3.957,4.0488,4.0996,4.1172,4.1172,4.1172,4.1172,4.1172,4.1172,4.1172,4.1172,4.1172,4.1211,3.1348,3.1562,3.1914,3.2285,3.2656,3.3008,3.3359,3.3418,3.3418,3.3418,3.3418,3.3418,3.3418,3.3418,3.3281,3.293,3.2559,3.2168,3.1738,3.2051,3.1934,3.1211,3.1758,3.1738,3.0996,3.1269,3.125,3.0898,3.0898,3.0898,3.0898,3.0898,3.0898,3.0898,3.0957,3.1191,3.1523,3.1582,3.1875,3.2266,3.2266,3.2519,3.2891,3.2969,3.3203,3.3613,3.4336,3.418,3.3848,3.5312,3.5371,3.4941,3.5762,3.6016,3.6016,3.6016,3.6016,3.6016,3.6016,3.6016,3.6016,3.6016,3.6016,3.6016,3.6016,3.6016,3.6016,3.6016,3.6016,3.6016,3.6016,3.6016,3.5821,3.5472,3.3629,3.2193,3.1745,3.2005,3.2266,3.2266,3.4507,3.6016,3.6016,3.6074,3.6289,3.6738,3.484,3.4752,3.7209,3.5755,3.4655,3.4189,3.699,3.8574,3.8574,3.7851,3.7461,3.7383,3.6582,3.6621,3.7402,3.7754,3.8652,3.9922,4.0332,4.0781,4.1172,4.1172,4.1172,4.1172,4.1172,4.1172,4.1172,4.1172,4.1172,4.1172,3.3047,3.3086,3.3144,3.3223,3.3281,3.334,3.3418,3.3418,3.3418,3.3418,3.3418,3.3418,3.3418,3.3418,3.3398,3.332,3.3262,3.3047,3.2637,3.2656,3.2637,3.25,3.1934,3.1562,3.1426,3.1133,3.0957,3.0898,3.0898,3.0898,3.0898,3.0898,3.0898,3.0898,3.1269,3.1445,3.1543,3.1914,3.2305,3.2695,3.2695,3.2949,3.3359,3.373,3.3906,3.3984,3.4121,3.4316,3.4551,3.4805,3.5078,3.5371,3.5859,3.6016,3.6016,3.6016,3.6016,3.6016,3.6016,3.6016,3.6016,3.6016,3.6016,3.6016,3.6016,3.6016,3.6016,3.6016,3.6016,3.6016,3.6016,3.6016,3.524,3.2784,3.2386,3.1504,2.9042,3.0804,3.2266,3.2266,3.4507,3.6016,3.6016,3.6348,3.6738,3.7168,3.7119,3.6437,3.4815,3.6713,3.6732,3.4348,3.699,3.8574,3.8574,3.8437,3.8203,3.7812,3.7344,3.7344,3.7832,3.7891,3.8652,3.9922,4.0332,4.0781,4.1172,4.1172,4.1172,4.1172,4.1172,4.1172,4.1172,4.1172,4.1172,4.1172,3.3125,3.3086,3.3086,3.3086,3.3086,3.3164,3.3379,3.3418,3.3418,3.3418,3.3418,3.3418,3.3418,3.3418,3.332,3.3105,3.3281,3.3242,3.2832,3.2793,3.248,3.1797,3.2051,3.2109,3.1875,3.123,3.0898,3.0898,3.0898,3.0898,3.0898,3.0898,3.1016,3.123,3.1426,3.1777,3.2226,3.2422,3.2754,3.3125,3.3125,3.3242,3.3476,3.3906,3.3926,3.3789,3.4238,3.4394,3.4434,3.4922,3.5215,3.5469,3.5879,3.6016,3.6016,3.6016,3.6016,3.6016,3.6016,3.6016,3.6016,3.6016,3.6016,3.6016,3.6016,3.6016,3.6016,3.6016,3.6016,3.6016,3.6016,3.6016,3.5104,3.2556,3.2138,3.1371,2.8702,3.069,3.2266,3.2266,3.4507,3.6113,3.6348,3.6543,3.6934,3.7598,3.7812,3.7546,3.6637,3.7788,3.7991,3.6656,3.7953,3.8574,3.8574,3.834,3.8125,3.793,3.7734,3.7851,3.8281,3.8516,3.9082,3.9922,4.0332,4.0644,4.084,4.1074,4.1172,4.1172,4.1172,4.1172,4.1172,4.1172,4.1172,4.1211,3.3008,3.2949,3.2949,3.2949,3.2949,3.3047,3.3379,3.3418,3.3418,3.3418,3.3418,3.3418,3.3418,3.3418,3.3301,3.2969,3.3242,3.3203,3.2676,3.2656,3.2246,3.1367,3.209,3.2305,3.1875,3.1328,3.0996,3.0898,3.0996,3.0996,3.0898,3.0996,3.1211,3.1523,3.1719,3.2187,3.2793,3.2891,3.3125,3.3437,3.3535,3.3574,3.3613,3.4043,3.4004,3.3789,3.4355,3.4473,3.4473,3.5039,3.5371,3.5586,3.5918,3.6016,3.6016,3.6016,3.6016,3.6016,3.6016,3.6016,3.6016,3.6016,3.6016,3.6016,3.6016,3.6016,3.6016,3.6016,3.6016,3.6016,3.6016,3.6016,3.5143,3.2533,3.2193,3.1612,2.9567,3.0999,3.2509,3.3206,3.5065,3.6348,3.6777,3.6894,3.7226,3.7871,3.8027,3.8223,3.8555,3.8574,3.8574,3.8574,3.8574,3.8574,3.8574,3.8242,3.8125,3.8223,3.8125,3.8418,3.9043,3.9141,3.957,4.0195,4.043,4.0586,4.0703,4.1035,4.1172,4.1172,4.1172,4.1172,4.1172,4.1172,4.1172,4.123,3.3379,3.3379,3.3379,3.3379,3.3379,3.3379,3.3418,3.3418,3.3418,3.3418,3.3418,3.3418,3.3418,3.3418,3.3418,3.3379,3.3398,3.3086,3.2266,3.2207,3.2344,3.2637,3.1992,3.1426,3.0996,3.1309,3.1269,3.0898,3.1269,3.1269,3.0898,3.1289,3.1484,3.1562,3.2344,3.2734,3.2812,3.3203,3.3398,3.3457,3.3867,3.4023,3.4062,3.4492,3.4629,3.4551,3.4238,3.4629,3.5234,3.4883,3.5293,3.5976,3.6016,3.6016,3.6016,3.6016,3.6016,3.6016,3.6016,3.6016,3.6016,3.6016,3.6016,3.6016,3.6016,3.6016,3.6016,3.6016,3.6016,3.6016,3.6016,3.6016,3.5047,3.2298,3.2144,3.2102,3.1665,3.1993,3.336,3.6092,3.6582,3.6797,3.7207,3.7598,3.7851,3.791,3.8301,3.8535,3.8574,3.8574,3.8574,3.8574,3.8574,3.8574,3.8574,3.8555,3.873,3.9101,3.8711,3.918,4.0351,3.957,3.9883,4.1055,4.0684,4.0762,4.1133,4.1172,4.1172,4.1172,4.1172,4.1172,4.1172,4.1172,4.1172,4.123,3.3418,3.3418,3.3418,3.3418,3.3418,3.3418,3.3418,3.3418,3.3418,3.3418,3.3418,3.3418,3.3418,3.3418,3.3418,3.3418,3.3418,3.3281,3.2969,3.2949,3.2793,3.2422,3.1836,3.1699,3.207,3.1699,3.1445,3.1269,3.1172,3.1055,3.0898,3.1328,3.166,3.1953,3.2539,3.293,3.3203,3.3652,3.3828,3.3867,3.4297,3.4297,3.4141,3.4863,3.4785,3.4355,3.4746,3.5098,3.5371,3.5195,3.5527,3.6016,3.6016,3.6016,3.6016,3.6016,3.6016,3.6016,3.6016,3.6016,3.6016,3.6016,3.6016,3.6016,3.6016,3.6016,3.6016,3.6016,3.6016,3.6016,3.6016,3.6016,3.5124,3.2593,3.3535,3.4029,3.2386,3.3554,3.5103,3.6582,3.668,3.6934,3.7617,3.7832,3.8027,3.8301,3.8476,3.8574,3.8574,3.8574,3.8574,3.8574,3.8574,3.8574,3.8574,3.8574,3.8789,3.9199,3.9336,3.9785,4.0527,4.0449,4.0547,4.0781,4.0879,4.0859,4.0781,4.1055,4.1172,4.1172,4.1172,4.1172,4.1172,4.1172,4.1348,4.1621,3.3418,3.3418,3.3418,3.3418,3.3418,3.3418,3.3418,3.3418,3.3418,3.3418,3.3418,3.3418,3.3418,3.3418,3.3418,3.3418,3.3418,3.3359,3.3242,3.3105,3.2832,3.2383,3.1953,3.1934,3.2383,3.1953,3.1601,3.1328,3.1172,3.1094,3.1094,3.1523,3.1953,3.2383,3.2812,3.3144,3.3437,3.375,3.3867,3.3926,3.4473,3.4531,3.4355,3.5098,3.5019,3.4551,3.5,3.5273,3.5391,3.5391,3.5664,3.6016,3.6016,3.6016,3.6016,3.6016,3.6016,3.6016,3.6016,3.6016,3.6016,3.6016,3.6016,3.6016,3.6016,3.6016,3.6016,3.6016,3.6016,3.6016,3.6016,3.6016,3.5394,3.3704,3.4931,3.5394,3.3685,3.495,3.623,3.6797,3.6875,3.7187,3.8047,3.8125,3.8262,3.8555,3.8574,3.8574,3.8574,3.8574,3.8574,3.8574,3.8574,3.8574,3.8574,3.8574,3.8867,3.9414,3.9746,4.0195,4.0742,4.1035,4.1016,4.0742,4.1035,4.0996,4.0742,4.1055,4.1172,4.1172,4.1172,4.1172,4.1172,4.1172,4.1445,4.1855,3.3418,3.3418,3.3418,3.3418,3.3418,3.3418,3.3418,3.3418,3.3418,3.3418,3.3418,3.3418,3.3418,3.3418,3.3418,3.3418,3.3418,3.3242,3.2832,3.2402,3.2363,3.2793,3.2402,3.1973,3.1543,3.1953,3.1738,3.0898,3.1309,3.1523,3.1523,3.1973,3.2402,3.2812,3.3242,3.3418,3.3418,3.3437,3.3437,3.3516,3.4355,3.4707,3.4766,3.5215,3.5391,3.5332,3.4883,3.5,3.5391,3.5391,3.5664,3.6016,3.6016,3.6016,3.6016,3.6016,3.6016,3.6016,3.6016,3.6016,3.6016,3.6016,3.6016,3.6016,3.6016,3.6016,3.6016,3.6016,3.6016,3.6016,3.6016,3.6016,3.6016,3.6016,3.6016,3.6016,3.6016,3.6035,3.6348,3.7207,3.7305,3.7637,3.8496,3.8574,3.8574,3.8574,3.8574,3.8574,3.8574,3.8574,3.8574,3.8574,3.8574,3.8574,3.8574,3.8574,3.9023,3.9902,3.9902,4.0351,4.1172,4.1172,4.1172,4.1172,4.1172,4.1172,4.1172,4.1172,4.1172,4.1172,4.1172,4.1172,4.1172,4.1172,4.1445,4.1855,3.365,3.3418,3.3418,3.3418,3.3418,3.3418,3.3418,3.3418,3.3418,3.3418,3.3418,3.3418,3.3418,3.3418,3.3418,3.3418,3.3418,3.3379,3.3242,3.3125,3.3105,3.3223,3.2559,3.2246,3.2402,3.1953,3.1582,3.1328,3.1445,3.1523,3.1543,3.2266,3.2676,3.2812,3.3242,3.3418,3.3457,3.4062,3.4316,3.4394,3.5273,3.5449,3.5234,3.5664,3.5644,3.541,3.5566,3.5723,3.584,3.584,3.5918,3.6016,3.6016,3.6016,3.6016,3.6016,3.6016,3.6016,3.6016,3.6016,3.6016,3.6016,3.6016,3.6016,3.6016,3.6016,3.6016,3.6016,3.6016,3.6016,3.6016,3.6016,3.6016,3.6016,3.6016,3.6133,3.6426,3.6484,3.6797,3.7637,3.7734,3.7949,3.8516,3.8574,3.8574,3.8574,3.8574,3.8574,3.8574,3.8574,3.8574,3.8574,3.8574,3.8574,3.8574,3.8574,3.9023,3.9902,3.9902,4.0351,4.1172,4.1172,4.1172,4.1172,4.1172,4.1172,4.1172,4.1172,4.1172,4.1172,4.1172,4.1172,4.1172,4.1172,4.1621,4.2266,3.4487,3.3902,3.3418,3.3418,3.3418,3.3418,3.3418,3.3418,3.3418,3.3418,3.3418,3.3418,3.3418,3.3418,3.3418,3.3418,3.3418,3.3418,3.3418,3.3418,3.3418,3.3418,3.2773,3.2461,3.2539,3.2031,3.1777,3.1777,3.1777,3.2031,3.2539,3.2871,3.3144,3.3301,3.3379,3.3516,3.3711,3.4238,3.4551,3.4766,3.5488,3.5625,3.543,3.5859,3.5859,3.5664,3.5937,3.6016,3.6016,3.6016,3.6016,3.6016,3.6016,3.6016,3.6016,3.6016,3.6016,3.6016,3.6016,3.6016,3.6016,3.6016,3.6016,3.6016,3.6016,3.6016,3.6016,3.6016,3.6016,3.6016,3.6016,3.6016,3.6016,3.6016,3.6016,3.6172,3.6601,3.668,3.6992,3.7812,3.793,3.8086,3.8535,3.8574,3.8574,3.8574,3.8574,3.8574,3.8574,3.8574,3.8574,3.8574,3.8574,3.8574,3.8574,3.875,3.918,3.9902,3.9902,4.0351,4.1172,4.1172,4.1172,4.1172,4.1172,4.1172,4.1172,4.1172,4.1172,4.1172,4.1172,4.1172,4.1172,4.1172,4.1699,4.2422,3.5806,3.4612,3.3544,3.3418,3.3418,3.3418,3.3418,3.3418,3.3418,3.3418,3.3418,3.3418,3.3418,3.3418,3.3418,3.3418,3.3418,3.3418,3.3418,3.3418,3.3418,3.3418,3.3086,3.2715,3.2285,3.2246,3.2226,3.2226,3.2305,3.291,3.4004,3.3652,3.3691,3.4062,3.3652,3.373,3.4141,3.418,3.4414,3.4805,3.5273,3.5449,3.5488,3.5879,3.6016,3.6016,3.6016,3.6016,3.6016,3.6016,3.6016,3.6016,3.6016,3.6016,3.6016,3.6016,3.6016,3.6016,3.6016,3.6016,3.6016,3.6016,3.6016,3.6016,3.6016,3.6016,3.6016,3.6016,3.6016,3.6016,3.6016,3.6016,3.6016,3.6016,3.6055,3.623,3.666,3.6758,3.709,3.7891,3.7988,3.8144,3.8535,3.8574,3.8574,3.8574,3.8574,3.8574,3.8574,3.8574,3.8574,3.8574,3.8574,3.8574,3.8574,3.8984,3.9434,3.9902,3.9941,4.0391,4.1172,4.1172,4.1172,4.1172,4.1172,4.1172,4.1172,4.1172,4.1172,4.1172,4.1172,4.1172,4.1172,4.1172,4.1699,4.2441,3.6274,3.556,3.484,3.365,3.3418,3.3418,3.3418,3.3418,3.3418,3.3418,3.3418,3.3418,3.3418,3.3418,3.3418,3.3418,3.3418,3.3418,3.3418,3.3418,3.3418,3.3418,3.3672,3.3594,3.3164,3.2832,3.2656,3.2656,3.334,3.3633,3.3574,3.3809,3.3984,3.4062,3.3965,3.416,3.459,3.4941,3.5156,3.5273,3.5703,3.5879,3.5898,3.5996,3.6016,3.6016,3.6016,3.6016,3.6016,3.6016,3.6016,3.6016,3.6016,3.6016,3.6016,3.6016,3.6016,3.6016,3.6016,3.6016,3.6016,3.6016,3.6016,3.6016,3.6016,3.6016,3.6016,3.6016,3.6016,3.6016,3.6016,3.6016,3.6016,3.6016,3.6309,3.668,3.7109,3.7441,3.7851,3.8359,3.8437,3.8476,3.8555,3.8574,3.8574,3.8574,3.8574,3.8574,3.8574,3.8574,3.8574,3.8574,3.8574,3.8574,3.8574,3.8984,3.9434,3.9902,4.0234,4.0664,4.1172,4.1172,4.1172,4.1172,4.1172,4.1172,4.1172,4.1172,4.1172,4.1172,4.1172,4.1172,4.1172,4.1172,4.1699,4.2519,3.8439,3.6881,3.556,3.4736,3.3902,3.3418,3.3418,3.3418,3.3418,3.3418,3.3418,3.3418,3.3418,3.3418,3.3418,3.3418,3.3418,3.3418,3.3418,3.3418,3.3516,3.373,3.3945,3.4062,3.4023,3.4043,3.3926,3.3711,3.416,3.4375,3.4355,3.4375,3.4375,3.4355,3.416,3.4434,3.5039,3.5293,3.5508,3.5703,3.5937,3.6016,3.6016,3.6016,3.6016,3.6016,3.6016,3.6016,3.6016,3.6016,3.6016,3.6016,3.6016,3.6016,3.6016,3.6016,3.6016,3.6016,3.6016,3.6016,3.6016,3.6016,3.6016,3.6016,3.6016,3.6016,3.6016,3.6016,3.6016,3.6016,3.6016,3.6016,3.6094,3.6289,3.6523,3.6894,3.75,3.7793,3.8086,3.8516,3.8574,3.8574,3.8574,3.8574,3.8574,3.8574,3.8574,3.8574,3.8574,3.8574,3.8574,3.8574,3.8574,3.8574,3.8574,3.9219,3.9648,3.9902,4.0332,4.0762,4.1172,4.1172,4.1172,4.1172,4.1172,4.1172,4.1172,4.1172,4.1172,4.1172,4.1172,4.1172,4.1191,4.1406,4.2012,4.2832,4.0592,3.8439,3.6517,3.6295,3.5088,3.4153,3.3902,3.3776,3.365,3.3418,3.3418,3.3418,3.3418,3.3418,3.3418,3.3418,3.3418,3.3418,3.3418,3.3418,3.3613,3.4062,3.4141,3.4375,3.4805,3.5273,3.5273,3.4824,3.4883,3.5039,3.5273,3.4961,3.4766,3.4687,3.4414,3.4746,3.5508,3.5508,3.5703,3.6016,3.6016,3.6016,3.6016,3.6016,3.6016,3.6016,3.6016,3.6016,3.6016,3.6016,3.6016,3.6016,3.6016,3.6016,3.6016,3.6016,3.6016,3.6016,3.6016,3.6016,3.6016,3.6016,3.6016,3.6016,3.6016,3.6016,3.6016,3.6016,3.6016,3.6016,3.6016,3.6016,3.6152,3.6601,3.6738,3.7051,3.7812,3.7988,3.8164,3.8535,3.8574,3.8574,3.8574,3.8574,3.8574,3.8574,3.8574,3.8574,3.8574,3.8574,3.8574,3.8574,3.8574,3.8574,3.8574,3.9453,3.9902,3.9902,4.0391,4.082,4.1172,4.1172,4.1172,4.1172,4.1172,4.1172,4.1172,4.1172,4.1172,4.1172,4.1172,4.1172,4.123,4.1719,4.2402,4.3144,4.0822,4.0245,3.9522,3.8104,3.7746,3.7144,3.5683,3.5437,3.4964,3.3544,3.3418,3.3418,3.3418,3.3418,3.3418,3.3418,3.3418,3.3418,3.3418,3.3418,3.3613,3.4062,3.4414,3.4824,3.5293,3.5723,3.5723,3.5293,3.5664,3.5488,3.4805,3.5137,3.5078,3.4726,3.5059,3.5488,3.5937,3.5937,3.5976,3.6016,3.6016,3.6016,3.6016,3.6016,3.6016,3.6016,3.6016,3.6016,3.6016,3.6016,3.6016,3.6016,3.6016,3.6016,3.6016,3.6016,3.6016,3.6016,3.6016,3.6016,3.6016,3.6016,3.6016,3.6016,3.6016,3.6016,3.6016,3.6016,3.6016,3.6016,3.6016,3.6016,3.6152,3.6601,3.6973,3.7383,3.7851,3.8242,3.8516,3.8574,3.8574,3.8574,3.8574,3.8574,3.8574,3.8574,3.8574,3.8574,3.8574,3.8574,3.8574,3.8574,3.8574,3.8574,3.8574,3.9453,3.9902,3.9902,4.0703,4.1113,4.1172,4.1172,4.1172,4.1172,4.1172,4.1172,4.1172,4.1172,4.1172,4.1172,4.1172,4.1172,4.1269,4.2051,4.2656,4.3144,4.2012,4.1191,4.0361,3.9639,3.8817,3.7985,3.7243,3.6396,3.556,3.484,3.4027,3.3418,3.3418,3.3418,3.3418,3.3418,3.3652,3.3789,3.3789,3.4004,3.4336,3.4785,3.5,3.5293,3.5742,3.5918,3.5937,3.5742,3.5937,3.5703,3.5098,3.5293,3.5293,3.5098,3.5293,3.5625,3.6016,3.6016,3.6016,3.6016,3.6016,3.6016,3.6016,3.6016,3.6016,3.6016,3.6016,3.6016,3.6016,3.6016,3.6016,3.6016,3.6016,3.6016,3.6016,3.6016,3.6016,3.6016,3.6016,3.6016,3.6016,3.6016,3.6016,3.6016,3.6016,3.6016,3.6016,3.6016,3.6016,3.6016,3.6016,3.6016,3.625,3.6914,3.7168,3.7519,3.8203,3.8457,3.8574,3.8574,3.8574,3.8574,3.8574,3.8574,3.8574,3.8574,3.8574,3.8574,3.8574,3.8574,3.8574,3.8574,3.8574,3.8574,3.8574,3.9453,3.9902,3.9902,4.0762,4.1172,4.1172,4.1172,4.1172,4.1172,4.1172,4.1172,4.1172,4.1172,4.1172,4.1172,4.1172,4.1465,4.1914,4.2285,4.2851,4.3457]},{"header":{"parameterUnit":"m.s-1","parameterCategory":1,"la1":30.6,"la2":28.766,"lo1":-90.7593,"lo2":-88.6598,"dx":0.0162,"dy":0.0183,"nx":116,"ny":114,"refTime":"2022-11-09T06:00:00:Z","depth":0,"parameterNumber":3,"parameterNumberName":"V-component_of_WINDS"},"data":[0.0,0.0,0.0,0.0,0.0,0.0,0.0,0.0,0.0,0.0,0.0,0.0,0.0,0.0,0.0,0.0,0.0,0.0,0.0,0.0,0.0,0.0,0.0,0.0,0.0,0.0,0.0,0.0,0.0,0.0,0.0,0.0,0.0,0.0,0.0,0.0,0.0,0.0,0.0,0.0,0.0,0.0,0.0,0.0,0.0,0.0,0.0,0.0,0.0,0.0,0.0,0.0,0.0,0.0,0.0,0.0,0.0,0.0,0.0,0.0,0.0,0.0,0.0,0.0,0.0,0.0,0.0,0.0,0.0,0.0,0.0,0.0,0.0,0.0,0.0,0.0,0.0,0.0,0.0,0.0,0.0,0.0,0.0,0.0,0.0,0.0,0.0,0.0,0.0,0.0,0.0,0.0,0.0,0.0,0.0,0.0,0.0,0.0,0.0,0.0,0.0,0.0,0.0,0.0,0.0,0.0,0.0,0.0,0.0,0.0,0.0,0.0,0.0,0.0,0.0,0.0,0.0,0.0,0.0,0.0,0.0,0.0,0.0,0.0,0.0,0.0,0.0,0.0,0.0,0.0,0.0,0.0,0.0,0.0,0.0,0.0,0.0,0.0,0.0,0.0,0.0,0.0,0.0,0.0,0.0,0.0,0.0,0.0,0.0,0.0,0.0,0.0,0.0,0.0,0.0,0.0,0.0,0.0,0.0,0.0,0.0,0.0,0.0,0.0,0.0,0.0,0.0,0.0,0.0,0.0,0.0,0.0,0.0,0.0,0.0,0.0,0.0,0.0,0.0,0.0,0.0,0.0,0.0,0.0,0.0,0.0,0.0,0.0,0.0,0.0,0.0,0.0,0.0,0.0,0.0,0.0,0.0,0.0,0.0,0.0,0.0,0.0,0.0,0.0,0.0,0.0,0.0,0.0,0.0,0.0,0.0,0.0,0.0,0.0,0.0,0.0,0.0,0.0,0.0,0.0,0.0,0.0,0.0,0.0,0.0,0.0,0.0,0.0,0.0,0.0,0.0,0.0,0.0,0.0,0.0,0.0,0.0,0.0,0.0,0.0,0.0,0.0,0.0,0.0,0.0,0.0,0.0,0.0,0.0,0.0,0.0,0.0,0.0,0.0,0.0,0.0,0.0,0.0,0.0,0.0,0.0,0.0,0.0,0.0,0.0,0.0,0.0,0.0,0.0,0.0,0.0,0.0,0.0,0.0,0.0,0.0,0.0,0.0,0.0,0.0,0.0,0.0,0.0,0.0,0.0,0.0,0.0,0.0,0.0,0.0,0.0,0.0,0.0,0.0,0.0,0.0,0.0,0.0,0.0,0.0,0.0,0.0,0.0,0.0,0.0,0.0,0.0,0.0,0.0,0.0,0.0,0.0,0.0,0.0,0.0,0.0,0.0,0.0,0.0,0.0,0.0,0.0,0.0,0.0,0.0,0.0,0.0,0.0,0.0,0.0,0.0,0.0,0.0,0.0,0.0,0.0,0.0,0.0,0.0,0.0,0.0,0.0,0.0,0.0,0.0,0.0,0.0,0.0,0.0,0.0,0.0,0.0,0.0,0.0,0.0,0.0,0.0,0.0,0.0,0.0,0.0,0.0,0.0,0.0,0.0,0.0,0.0,0.0,0.0,0.0,0.0,0.0,0.0,0.0,0.0,0.0,0.0,0.0,0.0,0.0,0.0,0.0,0.0,0.0,0.0,0.0,0.0,0.0,0.0,0.0,0.0,0.0,0.0,0.0,0.0,0.0,0.0,0.0,0.0,0.0,0.0,0.0,0.0,0.0,0.0,0.0,0.0,0.0,0.0,0.0,0.0,0.0,0.0,0.0,0.0,0.0,0.0,0.0,0.0,0.0,0.0,0.0,0.0,0.0,0.0,0.0,0.0,0.0,0.0,0.0,0.0,0.0,0.0,0.0,0.0,0.0,0.0,0.0,0.0,0.0,0.0,0.0,0.0,0.0,0.0,0.0,0.0,0.0,0.0,0.0,0.0,0.0,0.0,0.0,0.0,0.0,0.0,0.0,0.0,0.0,0.0,0.0,0.0,0.0,0.0,0.0,0.0,0.0,0.0,0.0,0.0,0.0,0.0,0.0,0.0,0.0,0.0,0.0,0.0,0.0,0.0,0.0,0.0,0.0,0.0,0.0,0.0,0.0,0.0,0.0,0.0,0.0,0.0,0.0,0.0,0.0,0.0,0.0,0.0,0.0,0.0,0.0,0.0,0.0,0.0,0.0,0.0,0.0,0.0,0.0,0.0,0.0,0.0,0.0,0.0,0.0,0.0,0.0,0.0,0.0,0.0,0.0,0.0,0.0,0.0,0.0,0.0,0.0,0.0,0.0,0.0,0.0,0.0,0.0,0.0,0.0,0.0,0.0,0.0,0.0,0.0,0.0,0.0,0.0,0.0,0.0,0.0,0.0,0.0,0.0,0.0,0.0,0.0,0.0,0.0,0.0,0.0,0.0,0.0,0.0,0.0,0.0,0.0,0.0,0.0,0.0,0.0,0.0,0.0,0.0,0.0,0.0,0.0,0.0,0.0,0.0,0.0,0.0,0.0,0.0,0.0,0.0,0.0,0.0,0.0,0.0,0.0,0.0,0.0,0.0,0.0,0.0,0.0,0.0,0.0,0.0,0.0,0.0,0.0,0.0,0.0,0.0,0.0,0.0,0.0,0.0,0.0,0.0,0.0,0.0,0.0,0.0,0.0,0.0,0.0,0.0,0.0,0.0,0.0,0.0,0.0,0.0,0.0,0.0,0.0,0.0,0.0,0.0,0.0,0.0,0.0,0.0,0.0,0.0,0.0,0.0,0.0,0.0,0.0,0.0,0.0,0.0,0.0,0.0,0.0,0.0,0.0,0.0,0.0,0.0,0.0,0.0,0.0,0.0,0.0,0.0,0.0,0.0,0.0,0.0,0.0,0.0,0.0,0.0,0.0,0.0,0.0,0.0,0.0,0.0,0.0,0.0,0.0,0.0,0.0,0.0,0.0,0.0,0.0,0.0,0.0,0.0,0.0,0.0,0.0,0.0,0.0,0.0,0.0,0.0,0.0,0.0,0.0,0.0,0.0,0.0,0.0,0.0,0.0,0.0,0.0,0.0,0.0,0.0,0.0,0.0,0.0,0.0,0.0,0.0,0.0,0.0,0.0,0.0,0.0,0.0,0.0,0.0,0.0,0.0,0.0,0.0,0.0,0.0,0.0,0.0,0.0,0.0,0.0,0.0,0.0,0.0,0.0,0.0,0.0,0.0,0.0,0.0,0.0,0.0,0.0,0.0,0.0,0.0,0.0,0.0,0.0,0.0,0.0,0.0,0.0,0.0,0.0,0.0,0.0,0.0,0.0,0.0,0.0,0.0,0.0,0.0,0.0,0.0,0.0,0.0,0.0,0.0,0.0,0.0,0.0,0.0,0.0,0.0,0.0,0.0,0.0,0.0,0.0,0.0,0.0,0.0,0.0,0.0,0.0,0.0,0.0,0.0,0.0,0.0,0.0,0.0,0.0,0.0,0.0,0.0,0.0,0.0,0.0,0.0,0.0,0.0,0.0,0.0,0.0,0.0,0.0,0.0,0.0,0.0,0.0,0.0,0.0,0.0,0.0,0.0,0.0,0.0,0.0,0.0,0.0,0.0,0.0,0.0,0.0,0.0,0.0,0.0,0.0,0.0,0.0,0.0,0.0,0.0,0.0,0.0,0.0,0.0,0.0,0.0,0.0,0.0,0.0,0.0,0.0,0.0,0.0,0.0,0.0,0.0,0.0,0.0,0.0,0.0,0.0,0.0,0.0,0.0,0.0,0.0,0.0,0.0,0.0,0.0,0.0,0.0,0.0,0.0,0.0,0.0,0.0,0.0,0.0,0.0,0.0,0.0,0.0,0.0,0.0,0.0,0.0,0.0,0.0,0.0,0.0,0.0,0.0,0.0,0.0,0.0,0.0,0.0,0.0,0.0,0.0,0.0,0.0,0.0,0.0,0.0,0.0,0.0,0.0,0.0,0.0,0.0,0.0,0.0,0.0,0.0,0.0,0.0,0.0,0.0,0.0,0.0,0.0,0.0,0.0,0.0,0.0,0.0,0.0,0.0,0.0,0.0,0.0,0.0,0.0,0.0,0.0,0.0,0.0,0.0,0.0,0.0,0.0,0.0,0.0,0.0,0.0,0.0,0.0,0.0,0.0,0.0,0.0,0.0,0.0,0.0,0.0,0.0,0.0,0.0,0.0,0.0,0.0,0.0,0.0,0.0,0.0,0.0,0.0,0.0,0.0,0.0,0.0,0.0,0.0,0.0,0.0,0.0,0.0,0.0,0.0,0.0,0.0,0.0,0.0,0.0,0.0,0.0,0.0,0.0,0.0,0.0,0.0,0.0,0.0,0.0,0.0,0.0,0.0,0.0,0.0,0.0,0.0,0.0,0.0,0.0,0.0,0.0,0.0,0.0,0.0,0.0,0.0,0.0,0.0,0.0,0.0,0.0,0.0,0.0,0.0,0.0,0.0,0.0,0.0,0.0,0.0,0.0,0.0,0.0,0.0,0.0,0.0,0.0,0.0,0.0,0.0,0.0,0.0,0.0,0.0,0.0,0.0,0.0,0.0,0.0,0.0,0.0,0.0,0.0,0.0,0.0,0.0,0.0,0.0,0.0,0.0,0.0,0.0,0.0,0.0,0.0,0.0,0.0,0.0,0.0,0.0,0.0,0.0,0.0,0.0,0.0,0.0,0.0,0.0,0.0,0.0,0.0,0.0,0.0,0.0,0.0,0.0,0.0,0.0,0.0,0.0,0.0,0.0,0.0,0.0,0.0,0.0,0.0,0.0,0.0,0.0,0.0,0.0,0.0,0.0,0.0,0.0,0.0,0.0,0.0,0.0,0.0,0.0,0.0,0.0,0.0,0.0,0.0,0.0,0.0,0.0,0.0,0.0,0.0,0.0,0.0,0.0,0.0,0.0,0.0,0.0,0.0,0.0,0.0,0.0,0.0,0.0,0.0,0.0,0.0,0.0,0.0,0.0,0.0,0.0,0.0,0.0,0.0,0.0,0.0,0.0,0.0,0.0,0.0,0.0,0.0,0.0,0.0,0.0,0.0,0.0,0.0,0.0,0.0,0.0,0.0,0.0,0.0,0.0,0.0,0.0,0.0,0.0,0.0,0.0,0.0,0.0,0.0,0.0,0.0,0.0,0.0,0.0,0.0,0.0,0.0,0.0,0.0,0.0,0.0,0.0,0.0,0.0,0.0,0.0,0.0,0.0,0.0,0.0,0.0,0.0,0.0,0.0,0.0,0.0,0.0,0.0,0.0,0.0,0.0,0.0,0.0,0.0,0.0,0.0,0.0,0.0,0.0,0.0,0.0,0.0,0.0,0.0,0.0,0.0,0.0,0.0,0.0,0.0,0.0,0.0,0.0,0.0,0.0,0.0,0.0,0.0,0.0,0.0,0.0,0.0,0.0,0.0,0.0,0.0,0.0,0.0,0.0,0.0,0.0,0.0,0.0,0.0,0.0,0.0,0.0,0.0,0.0,0.0,0.0,0.0,0.0,0.0,0.0,0.0,0.0,0.0,0.0,0.0,0.0,0.0,0.0,0.0,0.0,0.0,0.0,0.0,0.0,0.0,0.0,0.0,0.0,0.0,0.0,0.0,0.0,0.0,0.0,0.0,0.0,0.0,0.0,0.0,0.0,0.0,0.0,0.0,0.0,0.0,0.0,0.0,0.0,0.0,0.0,0.0,0.0,0.0,0.0,0.0,0.0,0.0,0.0,0.0,0.0,0.0,0.0,0.0,0.0,0.0,0.0,0.0,0.0,0.0,0.0,0.0,0.0,0.0,0.0,0.0,0.0,0.0,0.0,0.0,0.0,0.0,0.0,0.0,0.0,0.0,0.0,0.0,0.0,0.0,0.0,0.0,0.0,0.0,0.0,0.0,0.0,0.0,0.0,0.0,0.0,0.0,0.0,0.0,0.0,0.0,0.0,0.0,0.0,0.0,0.0,0.0,0.0,0.0,0.0,0.0,0.0,0.0,0.0,0.0,0.0,0.0,0.0,0.0,0.0,0.0,0.0,0.0,0.0,0.0,0.0,0.0,0.0,0.0,0.0,0.0,0.0,-4.1774,0.0,0.0,0.0,0.0,0.0,0.0,0.0,0.0,0.0,0.0,0.0,0.0,0.0,0.0,0.0,0.0,0.0,0.0,0.0,0.0,0.0,0.0,0.0,0.0,-2.3409,-2.4259,-2.4582,-2.5218,0.0,0.0,0.0,0.0,0.0,0.0,0.0,-2.4088,-2.4088,-2.4567,-2.5585,-2.5884,-2.7051,-2.8966,-2.8278,-2.744,-2.6512,0.0,0.0,0.0,0.0,0.0,0.0,0.0,0.0,0.0,0.0,0.0,0.0,0.0,0.0,0.0,0.0,0.0,0.0,0.0,0.0,0.0,0.0,0.0,0.0,0.0,0.0,0.0,0.0,0.0,0.0,0.0,0.0,0.0,0.0,0.0,0.0,0.0,0.0,0.0,0.0,0.0,0.0,0.0,0.0,0.0,0.0,0.0,0.0,0.0,0.0,0.0,0.0,0.0,0.0,0.0,0.0,0.0,0.0,0.0,0.0,0.0,0.0,0.0,0.0,0.0,0.0,0.0,0.0,0.0,0.0,0.0,-4.2354,0.0,0.0,0.0,0.0,0.0,0.0,0.0,0.0,0.0,0.0,0.0,0.0,0.0,0.0,0.0,0.0,0.0,0.0,0.0,0.0,0.0,-2.1624,-2.3038,-2.4163,-2.503,-2.5734,-2.5884,-2.5854,-2.5615,-2.5704,0.0,0.0,0.0,0.0,-2.4986,-2.5495,-2.6213,-2.7111,-2.8128,-2.9445,-3.1031,-3.1599,-3.0702,-2.8547,-2.7111,0.0,0.0,0.0,0.0,0.0,0.0,0.0,0.0,0.0,0.0,0.0,0.0,0.0,0.0,0.0,0.0,0.0,0.0,0.0,0.0,0.0,0.0,0.0,0.0,0.0,0.0,0.0,0.0,0.0,0.0,0.0,0.0,0.0,0.0,0.0,0.0,0.0,0.0,0.0,0.0,0.0,0.0,0.0,0.0,0.0,0.0,0.0,0.0,0.0,0.0,0.0,0.0,0.0,0.0,0.0,0.0,0.0,0.0,0.0,0.0,0.0,0.0,0.0,-4.2828,-4.2895,-4.2895,-4.3031,-4.3064,-4.3064,-4.2929,-4.3606,-4.4688,0.0,0.0,0.0,0.0,0.0,0.0,0.0,0.0,0.0,0.0,0.0,0.0,0.0,0.0,0.0,0.0,0.0,0.0,0.0,0.0,-2.233,-2.4164,-2.503,-2.5734,-2.6393,-2.6991,-2.6811,-2.5674,-2.6153,0.0,0.0,0.0,-2.5824,-2.6333,-2.6422,-2.735,-2.9175,-3.1569,-3.2856,-3.3095,-3.3185,-3.3036,-3.2617,-3.0702,-2.9879,-2.9855,0.0,0.0,0.0,0.0,0.0,0.0,0.0,0.0,0.0,0.0,0.0,0.0,0.0,0.0,0.0,0.0,0.0,0.0,0.0,0.0,0.0,0.0,0.0,0.0,0.0,0.0,0.0,0.0,0.0,0.0,0.0,0.0,0.0,0.0,0.0,0.0,0.0,0.0,0.0,0.0,0.0,-3.8104,-3.951,0.0,0.0,0.0,0.0,0.0,0.0,0.0,0.0,0.0,0.0,0.0,0.0,0.0,0.0,-4.3267,-4.3267,-4.3606,-4.4282,-4.4959,-4.5263,-4.5263,-4.5906,-4.621,-4.6177,-4.5534,0.0,-4.5602,-4.6007,0.0,0.0,0.0,0.0,0.0,0.0,0.0,0.0,0.0,0.0,0.0,0.0,0.0,0.0,0.0,0.0,0.0,0.0,0.0,0.0,0.0,-2.6093,-2.7141,-2.8188,-2.9205,-2.9235,-2.7919,-2.8098,0.0,0.0,-2.6512,-2.6841,-2.7141,-2.7889,-2.9415,-3.1779,-3.3305,-3.4233,-3.4622,-3.5063,-3.5217,-3.5217,-3.4802,-3.3543,-3.1768,-3.1485,0.0,0.0,0.0,0.0,0.0,0.0,0.0,0.0,0.0,0.0,0.0,0.0,0.0,0.0,0.0,0.0,0.0,0.0,0.0,0.0,0.0,0.0,0.0,0.0,0.0,0.0,0.0,0.0,0.0,0.0,0.0,0.0,0.0,0.0,0.0,0.0,0.0,0.0,0.0,-3.8614,-4.0073,-4.1166,-4.1166,-4.0967,0.0,0.0,0.0,0.0,0.0,0.0,0.0,0.0,0.0,-4.3538,-4.3572,-4.4147,-4.5297,-4.5331,-4.55,-4.5838,-4.6143,-4.6312,-4.6312,-4.7045,-4.7374,-4.7374,-4.7885,-4.8116,-4.8028,-4.7193,-4.6752,-4.6583,0.0,0.0,0.0,0.0,-4.5768,-4.5883,0.0,0.0,0.0,0.0,0.0,0.0,0.0,0.0,0.0,0.0,0.0,0.0,-2.5914,-2.744,-2.8786,-2.9983,-3.0971,-3.0971,-2.9654,-2.9594,-2.8757,-2.6931,-2.7489,-2.776,-2.761,-2.9205,-3.127,-3.3754,-3.4633,-3.5269,-3.5782,-3.6569,-3.6904,-3.6964,-3.7924,-3.6758,-3.4048,-3.4284,-3.3776,-3.2696,0.0,0.0,0.0,0.0,0.0,0.0,0.0,0.0,0.0,0.0,0.0,0.0,0.0,0.0,0.0,0.0,0.0,0.0,0.0,0.0,0.0,0.0,0.0,0.0,0.0,0.0,0.0,0.0,0.0,0.0,0.0,0.0,0.0,0.0,0.0,0.0,0.0,-4.0602,-4.1607,-4.2427,-4.2195,-4.1839,0.0,0.0,0.0,0.0,0.0,0.0,-4.2557,-4.276,-4.347,-4.4823,-4.506,-4.5669,-4.6786,-4.6786,-4.6903,-4.7043,-4.7214,-4.7431,-4.766,-4.8529,-4.8939,-4.9028,-5.0329,-5.089,-5.0767,-4.8938,-4.8003,-4.7695,-4.8264,-4.8217,-4.7976,-4.8321,-4.8424,-4.8631,0.0,0.0,0.0,0.0,0.0,0.0,0.0,0.0,0.0,0.0,0.0,-2.5974,-2.732,-2.9205,-3.0642,-3.1302,-3.1452,-3.0971,-2.9654,-2.9594,-2.8966,-2.764,-2.8125,-2.8174,-2.761,-3.0103,-3.2407,-3.4412,-3.583,-3.6507,-3.6538,-3.7381,-3.7764,-3.7796,-3.9331,-3.9084,-3.7465,-3.6847,-3.6554,-3.6366,-3.4167,0.0,0.0,0.0,0.0,0.0,0.0,0.0,0.0,0.0,0.0,0.0,0.0,0.0,0.0,0.0,0.0,0.0,0.0,0.0,0.0,0.0,0.0,0.0,0.0,0.0,0.0,0.0,0.0,0.0,0.0,0.0,0.0,0.0,0.0,0.0,0.0,0.0,0.0,-4.328,-4.399,0.0,0.0,0.0,0.0,-4.2286,-4.2286,-4.2591,-4.3335,-4.4079,-4.4823,-4.5635,-4.6312,-4.6718,-4.6786,-4.6786,-4.7124,-4.7781,-4.8418,-4.9149,-4.9902,-5.1352,-5.2077,-5.2148,-5.2945,-5.3318,-5.3282,-5.2396,-5.2395,-5.2979,-5.2996,-5.341,-5.3986,-5.323,-5.299,-5.3001,0.0,0.0,0.0,-2.331,-2.2951,-2.2742,-2.2892,-2.2592,-2.2562,-2.3191,-2.5016,-2.6572,-2.752,-3.0103,-3.2078,-3.2736,-3.3963,-3.4143,-3.2826,-3.1928,-3.1257,-3.0807,-2.9743,-2.9917,-3.1359,-3.3196,-3.4696,-3.586,-3.687,-3.7381,-3.7413,-3.8674,-3.9299,-3.9331,-4.0867,-4.1204,-4.0668,-4.04,-3.9783,-3.887,-3.8024,-3.64,0.0,0.0,0.0,0.0,0.0,0.0,0.0,0.0,0.0,0.0,0.0,0.0,0.0,0.0,0.0,0.0,0.0,0.0,0.0,0.0,0.0,0.0,0.0,0.0,0.0,0.0,0.0,0.0,0.0,0.0,0.0,0.0,0.0,0.0,0.0,0.0,0.0,-4.3335,-4.3673,0.0,0.0,-4.3403,-4.3504,-4.3741,-4.4215,-4.4823,-4.5534,-4.6281,-4.7038,-4.7705,-4.8479,-4.9079,-4.9532,-4.9567,-4.9975,-5.0699,-5.0981,-5.1475,-5.2289,-5.331,-5.3799,-5.3799,-5.4532,-5.4869,-5.4905,-5.5075,-5.4475,-5.3495,-5.3423,-5.3885,-5.451,-5.4242,-5.4777,-5.5615,0.0,0.0,0.0,-2.361,-2.3251,-2.3131,-2.355,-2.3251,-2.337,-2.4477,-2.6363,-2.8008,-2.9116,-3.1988,-3.4023,-3.4472,-3.5908,-3.5938,-3.3933,-3.3156,-3.2353,-3.13,-3.039,-3.127,-3.4123,-3.4918,-3.5879,-3.7024,-3.8046,-3.8577,-3.8577,-4.0117,-4.0867,-4.09,-4.2105,-4.2658,-4.2692,-4.2963,-4.2354,-4.1204,-4.0663,-3.9106,-3.7077,0.0,0.0,0.0,0.0,0.0,0.0,0.0,0.0,0.0,0.0,0.0,0.0,0.0,0.0,0.0,0.0,0.0,0.0,0.0,0.0,0.0,0.0,0.0,0.0,0.0,0.0,0.0,0.0,0.0,0.0,0.0,0.0,0.0,0.0,0.0,-4.2861,-4.3369,-4.3639,-4.3809,-4.3809,-4.4045,-4.4418,-4.4925,-4.583,-4.6613,-4.709,-4.8023,-4.8802,-4.9237,-4.9995,-5.0748,-5.1475,-5.1475,-5.2057,-5.31,-5.31,-5.3453,-5.4209,-5.5015,-5.5341,-5.5389,-5.609,-5.6565,-5.6859,-5.7409,-5.6903,-5.579,-5.5538,-5.5718,-5.6221,-5.6472,-5.7227,-5.807,0.0,0.0,-2.361,-2.361,-2.361,-2.361,-2.361,-2.361,-2.4328,-2.6333,-2.8368,-3.0372,-3.2317,-3.4921,-3.6507,-3.6507,-3.7075,-3.6058,-3.2826,-3.3084,-3.1998,-2.8759,-2.9937,-3.2238,-3.5545,-3.5137,-3.5886,-3.7854,-3.942,-4.0172,-4.0205,-4.1627,-4.232,-4.2354,-4.3132,-4.347,-4.3504,-4.4248,-4.4147,-4.3335,-4.188,-4.0832,-3.9986,0.0,0.0,0.0,0.0,0.0,0.0,0.0,0.0,0.0,0.0,0.0,0.0,0.0,0.0,0.0,0.0,0.0,0.0,0.0,0.0,0.0,0.0,0.0,0.0,0.0,0.0,0.0,0.0,0.0,0.0,0.0,0.0,0.0,-4.2219,-4.2963,-4.3436,-4.3436,-4.4113,-4.4587,-4.4621,-4.5263,-4.5737,-4.5828,-4.7052,-4.787,-4.787,-4.9257,-5.0039,-5.0039,-5.0835,-5.1615,-5.236,-5.2395,-5.3187,-5.4652,-5.4652,-5.5025,-5.5721,-5.6528,-5.6895,-5.6969,-5.774,-5.851,-5.9245,-5.9245,-5.9722,-6.0309,-5.9538,-5.9245,-5.9355,-6.0126,-6.0419,-6.0456,-2.4492,-2.4059,-2.361,-2.361,-2.361,-2.361,-2.361,-2.361,-2.4328,-2.6333,-2.8727,-3.1001,-3.3006,-3.5579,-3.7165,-3.7165,-3.7734,-3.7135,-3.4831,-3.4303,-3.3277,-3.1462,-3.3699,-3.5458,-3.639,-3.7866,-3.8893,-3.9453,-4.0988,-4.1681,-4.1715,-4.2652,-4.3098,-4.3132,-4.391,-4.4248,-4.4282,-4.4485,-4.4451,-4.4215,-4.3809,-4.2861,-4.1644,0.0,0.0,0.0,0.0,0.0,0.0,0.0,0.0,0.0,0.0,0.0,0.0,0.0,0.0,0.0,0.0,0.0,0.0,0.0,0.0,0.0,0.0,0.0,0.0,0.0,0.0,0.0,0.0,0.0,0.0,0.0,0.0,-4.2895,-4.3064,-4.3301,-4.3639,-4.4181,-4.4451,-4.479,-4.5331,-4.5568,-4.634,-4.7898,-4.8363,-4.906,-5.0101,-5.1066,-5.1551,-5.1551,-5.2806,-5.3581,-5.3799,-5.4381,-5.5166,-5.6227,-5.6227,-5.6905,-5.8217,-5.8437,-5.8877,-5.9428,-5.9648,-5.9869,-6.0089,-6.0089,-6.0199,-6.0382,-6.0162,-6.0089,-6.0126,-6.0309,-6.0786,-6.1337,-2.4118,-2.3879,-2.361,-2.361,-2.361,-2.3699,-2.3999,-2.3789,-2.4837,-2.8218,-2.9744,-3.1689,-3.4801,-3.6746,-3.7823,-3.7823,-3.7674,-3.688,-3.512,-3.3851,-3.3338,-3.3782,-3.5345,-3.6846,-3.814,-3.9434,-4.0415,-4.1021,-4.2173,-4.276,-4.2794,-4.3538,-4.391,-4.391,-4.4384,-4.4587,-4.4587,-4.4587,-4.4587,-4.4587,-4.4587,-4.3842,-4.276,-4.276,-4.1779,-4.0324,-4.002,-3.9648,-3.9242,-3.8937,0.0,0.0,0.0,0.0,0.0,0.0,0.0,0.0,0.0,0.0,0.0,0.0,0.0,0.0,0.0,0.0,0.0,0.0,0.0,0.0,0.0,0.0,0.0,0.0,-4.3803,-4.4485,-4.479,-4.4282,-4.4181,-4.4959,-4.506,-4.5445,-4.6464,-4.6862,-4.7657,-4.9256,-4.989,-5.059,-5.1458,-5.2485,-5.3026,-5.3026,-5.4261,-5.506,-5.539,-5.5868,-5.6492,-5.7299,-5.7666,-5.8327,-5.9208,-5.9575,-5.9979,0.0,-6.0419,-6.0603,-6.0896,-6.0896,-6.1117,0.0,0.0,0.0,0.0,0.0,-6.1704,-6.2181,-2.3699,-2.3699,-2.3699,-2.3699,-2.3699,-2.3909,-2.4492,-2.4178,-2.5674,-3.0795,-3.1061,-3.2467,-3.7015,-3.8123,-3.8512,-3.8512,-3.7315,-3.5993,-3.4506,-3.2698,-3.278,-3.534,-3.5689,-3.7094,-3.9907,-4.0193,-4.1012,-4.2422,-4.3166,-4.3538,-4.3572,-4.4248,-4.4587,-4.4587,-4.4587,-4.4587,-4.4587,-4.4587,-4.4587,-4.4587,-4.4587,-4.4181,-4.3538,-4.3538,-4.3132,-4.2455,-4.1813,-4.1576,-4.1474,-4.0798,0.0,0.0,0.0,0.0,0.0,0.0,0.0,0.0,0.0,0.0,0.0,0.0,0.0,0.0,0.0,0.0,0.0,0.0,0.0,0.0,0.0,0.0,0.0,0.0,-4.5323,-4.618,-4.6941,-4.5864,-4.523,-4.5852,-4.5919,-4.6498,-4.7923,-4.8638,-4.9326,-5.0196,-5.1395,-5.2196,-5.2351,0.0,0.0,0.0,0.0,-5.6088,-5.6785,-5.6895,-5.7336,-5.8143,-5.8877,-5.9318,-5.9501,-6.0236,-6.0603,-6.0676,-6.0676,-6.108,-6.1741,-6.1741,-6.2144,-6.2732,-6.1998,-6.1741,-6.1814,-6.2548,-6.2805,-6.2805,-2.4403,-2.4403,-2.4403,-2.4403,-2.4403,-2.4433,-2.4552,-2.4956,-2.6752,-3.0914,-3.1869,-3.3664,-3.7764,-3.8811,-3.923,-3.923,-3.8003,-3.6411,-3.4537,-3.3541,-3.3569,-3.4585,-3.6286,-3.7834,-3.9108,-4.0893,-4.2275,-4.32,-4.3978,-4.435,-4.435,-4.4519,-4.4587,-4.4587,-4.4587,-4.4587,-4.4587,-4.4587,-4.4587,-4.4587,-4.4587,-4.4485,-4.435,-4.435,-4.4248,-4.4113,-4.3978,-4.391,-4.391,-4.3775,-4.32,-4.2455,-4.1847,-4.117,0.0,0.0,0.0,0.0,0.0,0.0,0.0,0.0,0.0,0.0,0.0,0.0,0.0,0.0,0.0,0.0,0.0,0.0,0.0,-4.6204,-4.6896,-4.7661,-4.8397,-4.7717,-4.7237,-4.741,-4.741,-4.7958,-4.9431,-4.9694,-5.0303,-5.1587,-5.191,-5.2671,-5.3895,-5.4246,0.0,-5.5354,-5.6161,-5.6638,-5.6822,-5.7446,-5.818,-5.8988,0.0,0.0,-6.1153,-6.13,-6.1704,-6.2365,-6.2365,-6.2438,-6.2585,-6.2585,-6.2658,-6.2805,-6.2658,-6.2585,-6.2585,-6.2768,-6.2805,-6.2805,-2.5615,-2.5345,-2.5106,-2.5106,-2.5106,-2.5226,-2.5555,-2.5615,-2.6901,-3.0552,-3.1031,-3.2168,-3.513,-3.5759,-3.5818,-3.5489,-3.5085,-3.4364,-3.3029,-3.3545,-3.4393,-3.5457,-3.6848,-3.8401,-4.004,-4.1468,-4.2808,-4.4012,-4.4384,-4.4587,-4.4587,-4.4587,-4.4587,-4.4587,-4.4587,-4.4587,-4.4587,-4.4587,-4.479,-4.5128,-4.4722,-4.479,-4.5094,-4.4722,-4.4587,-4.4621,-4.5026,-4.5128,-4.5196,-4.5568,-4.5432,-4.5026,-4.4654,-4.4045,-4.322,0.0,0.0,0.0,0.0,0.0,0.0,0.0,0.0,0.0,0.0,0.0,0.0,0.0,0.0,-4.4981,-4.4981,0.0,-4.7681,-4.7681,-4.8662,-4.9556,-4.9953,-4.9661,-4.9311,-4.896,-4.889,-4.9466,-5.0901,-5.1428,-5.2066,-5.3181,-5.3627,-5.4164,-5.4987,-5.539,-5.5794,-5.6198,-5.6969,-5.7593,-5.7997,-5.84,-5.9024,-5.9832,-6.0236,-6.0823,-6.1594,-6.2034,-6.2438,-6.2805,-6.2805,-6.2805,-6.2805,-6.2805,-6.2805,-6.2805,-6.2805,-6.2805,-6.2805,-6.2805,-6.3099,-6.3466,-2.6752,-2.6363,-2.5944,-2.5824,-2.5794,-2.5974,-2.6512,-2.6243,-2.7081,-3.0103,-3.0073,-3.0522,-3.2497,-3.2706,-3.2377,-3.1541,-3.23,-3.2505,-3.1719,-3.3514,-3.5124,-3.6322,-3.7153,-3.856,-4.0678,-4.1645,-4.2907,-4.4327,-4.453,-4.4587,-4.4587,-4.4587,-4.4587,-4.4587,-4.4587,-4.4587,-4.4587,-4.4722,-4.5162,-4.5669,-4.5196,-4.5365,-4.5838,-4.5229,-4.4925,-4.4891,-4.5635,-4.5737,-4.5635,-4.6481,-4.6616,-4.6413,-4.6718,-4.621,-4.5377,-4.4712,-4.3855,0.0,0.0,0.0,0.0,0.0,0.0,0.0,0.0,0.0,-4.5151,-4.5558,-4.6,-4.6342,-4.6465,-4.8201,-4.9607,-4.9607,-5.083,-5.1805,-5.1958,-5.1856,-5.1592,-5.1151,-5.0838,-5.1129,-5.2434,-5.3241,-5.4018,-5.4576,-5.5207,-5.5647,-5.5794,-5.6455,-5.6859,-5.7042,-5.7813,-5.8547,-5.9208,-5.9391,-5.9832,-6.0639,-6.13,-6.1667,-6.1851,-6.2511,-6.2805,-6.2805,-6.2805,-6.2805,-6.2805,-6.2805,-6.2805,-6.2842,-6.3172,-6.3319,-6.3282,-6.3135,-6.3686,-6.4567,-2.735,-2.746,-2.7171,-2.6572,-2.6482,-2.6512,-2.6572,-2.7021,-2.8128,-3.0223,-3.0432,-3.115,-3.3155,-3.3395,-3.2886,-3.1571,-3.3186,-3.3696,-3.2467,-3.4265,-3.5469,-3.5619,-3.679,-3.7892,-3.8966,-4.0992,-4.2486,-4.3443,-4.4179,-4.4587,-4.4587,-4.4587,-4.4587,-4.4587,-4.4587,-4.4587,-4.4621,-4.5297,-4.5635,-4.5771,-4.6312,-4.6583,-4.665,-4.6583,-4.6143,-4.5669,-4.6413,-4.5838,-4.4925,-4.6312,-4.5906,-4.506,-4.638,-4.5838,-4.4846,-4.5411,-4.4054,-4.2652,-4.3885,-4.4242,-4.4396,-4.4975,-4.4716,-4.4856,0.0,0.0,-4.7121,-4.8988,-4.94,-4.9681,-5.0347,-5.1722,-5.2774,-5.2774,-5.3567,-5.4424,-5.5012,-5.4567,-5.4388,-5.4911,-5.3769,-5.3277,-5.4085,-5.4862,-5.5383,-5.5464,-5.5537,-5.5904,-5.6638,-5.6748,-5.7152,-5.785,-5.8657,-5.9134,-5.9208,-5.9905,-6.0676,-6.1484,-6.1557,-6.1961,-6.2695,-6.2768,-6.2805,-6.2805,-6.2805,-6.2805,-6.2805,-6.2805,-6.2805,-6.2952,-6.4457,-6.5044,-6.4934,-6.4237,-6.4897,-6.6219,-2.749,-2.761,-2.752,-2.72,-2.7171,-2.7171,-2.7171,-2.741,-2.7739,-2.8158,-2.8547,-2.8816,-2.8906,-2.8906,-2.8846,-2.8667,-3.0821,-3.2108,-3.1958,-3.4173,-3.5669,-3.6058,-3.6926,-3.7963,-3.9234,-4.0595,-4.1658,-4.252,-4.3443,-4.3831,-4.3856,-4.4384,-4.4587,-4.4587,-4.4587,-4.4587,-4.4587,-4.4925,-4.5297,-4.5703,-4.5568,-4.6007,-4.6786,-4.6786,-4.6887,-4.6921,-4.6346,-4.5771,0.0,-4.6955,-4.7022,-4.6853,-4.8748,-4.8037,-4.654,-4.6772,-4.5492,-4.4307,-4.5775,-4.5874,0.0,0.0,-4.6669,-4.6442,-4.8528,-4.8816,-4.9022,-5.0395,-5.1013,-5.1438,-5.1706,-5.3053,-5.4074,0.0,-5.4687,-5.5268,-5.5574,-5.5359,-5.5268,-5.5574,-5.5423,-5.5268,-5.5133,-5.5831,-5.6308,-5.6308,-5.6712,-5.7152,-5.7483,-5.796,-5.8364,-5.8694,-5.9501,-6.0126,-6.0603,-6.0933,-6.1484,-6.2291,-6.2291,-6.2475,-6.2805,-6.2805,-6.2805,-6.2805,-6.2805,-6.2805,-6.2842,-6.3356,-6.3576,-6.3723,-6.5375,-6.6292,-6.6659,-6.6329,-6.6916,-6.7907,-2.7171,-2.729,-2.735,-2.758,-2.761,-2.761,-2.761,-2.761,-2.735,-2.6692,-2.6991,-2.6931,-2.5974,-2.6033,-2.6333,-2.6811,-2.9086,-3.0791,-3.1422,-3.3844,-3.5609,-3.6447,-3.7075,-3.8047,-3.9333,-4.0214,-4.1028,-4.1658,-4.252,-4.2925,-4.2986,-4.3798,-4.427,-4.427,-4.4497,-4.4587,-4.4587,-4.479,-4.5196,-4.5669,-4.5331,-4.594,-4.709,-4.709,-4.7327,-4.7462,-4.638,-4.5737,-4.5568,-4.665,-4.6718,-4.6718,-4.8748,-4.8003,-4.6438,-4.6953,-4.6361,-4.5866,-4.7187,-4.7342,0.0,-4.912,-4.8829,-4.8455,-4.9983,-5.0341,-5.0599,-5.1564,-5.2183,-5.2732,-5.3131,-5.4314,-5.5184,-5.5184,-5.5779,-5.6235,-5.6235,-5.6235,-5.6235,-5.6235,-5.6785,-5.6895,-5.6308,-5.6785,-5.7152,-5.7152,-5.7886,-5.8327,-5.8327,-5.9098,-5.9538,-5.9538,-6.0309,-6.1006,-6.1594,-6.1814,-6.2218,-6.2805,-6.2805,-6.2805,-6.2805,-6.2805,-6.2805,-6.2805,-6.2805,-6.2952,-6.3209,-6.3833,-6.4347,-6.4897,-6.6512,-6.765,-6.8421,-6.8862,-6.9265,-6.9559,-2.6482,-2.6632,-2.6811,-2.752,-2.761,-2.761,-2.761,-2.761,-2.735,-2.6692,-2.6602,-2.6602,-2.6572,-2.7141,-2.758,-2.758,-2.9355,-3.0791,-3.1422,-3.3395,-3.51,-3.6417,-3.7075,-3.7704,-3.8432,-3.9941,-4.069,-4.0758,-4.1593,-4.2078,-4.2078,-4.2925,-4.3383,-4.3383,-4.4179,-4.4587,-4.4621,-4.5365,-4.5703,-4.5771,-4.6447,-4.7192,-4.7902,-4.7902,-4.7462,-4.6819,-4.6786,-4.5838,-4.4621,-4.4654,-4.3707,-4.2726,-4.4282,-4.3707,-4.2895,-4.5094,-4.6165,-4.6707,-4.7449,-4.8176,-4.9111,-5.0679,-5.1042,-5.1082,-5.115,-5.115,-5.1589,-5.2986,-5.3352,-5.3813,-5.5231,-5.6153,-5.6703,-5.6703,-5.7409,-5.7923,-5.7923,-5.7923,-5.7923,-5.7923,-5.796,-5.796,0.0,-5.796,-5.796,-5.796,-5.8731,-5.9171,-5.9171,-5.9942,-6.0382,-6.0382,-6.1153,-6.1557,-6.1594,-6.2365,-6.2805,-6.2805,-6.2805,-6.2805,-6.2805,-6.2805,-6.2805,-6.2805,-6.2805,-6.3282,-6.4053,-6.409,-6.5007,-6.6586,-6.8201,-6.9339,-7.022,-7.1798,-7.1872,-7.1248,-2.5794,-2.6303,-2.6662,-2.6871,-2.6931,-2.6931,-2.6931,-2.6931,-2.6542,-2.5435,-2.5674,0.0,0.0,0.0,0.0,0.0,-2.8996,-3.0163,-3.0821,-3.2706,-3.4622,-3.6417,-3.7075,-3.7943,-3.905,-3.9546,-3.9879,-3.9879,-4.069,-4.1131,-4.1162,-4.2045,-4.2458,-4.2458,-4.335,-4.3739,-4.3772,-4.4596,-4.4959,-4.4993,-4.5229,-4.5466,-4.5703,-4.5703,-4.5534,-4.5196,0.0,-4.3504,-4.3132,-4.3639,-4.347,-4.3403,-4.5399,-4.4654,-4.3274,-4.4471,-4.6355,-4.8349,-4.9608,-5.0852,-5.1942,-5.258,-5.2734,-5.2838,-5.3254,-5.3381,-5.381,-5.5365,-5.5632,-5.58,-5.6273,-5.7042,-5.7409,-5.6895,-5.7923,-5.8804,-5.8804,-5.9281,-5.9612,-5.9612,-5.9612,0.0,0.0,0.0,0.0,-5.8804,-5.9538,-6.0015,-6.0015,-6.075,-6.119,-6.119,-6.1998,-6.2401,-6.2401,-6.2658,-6.2805,-6.2805,-6.2805,-6.2805,-6.2805,-6.2805,-6.3135,-6.3649,-6.3649,-6.4127,-6.4934,-6.5485,-6.6329,-6.7467,-6.9082,-7.0183,-7.1027,-7.2092,-7.2679,-7.2826,0.0,-2.5944,-2.6393,-2.6871,-2.6752,0.0,0.0,0.0,0.0,0.0,0.0,0.0,0.0,0.0,0.0,0.0,0.0,-2.9505,-3.0133,-3.1599,-3.3335,-3.534,-3.5789,-3.6626,-3.8003,-3.8033,-3.8123,-3.8362,-3.9139,-3.9749,-4.0239,-4.1162,-4.1686,-4.1907,-4.2555,-4.2863,-4.2892,-4.3739,-4.3987,-4.3776,-4.4035,-4.4181,-4.4181,-4.4181,-4.4012,0.0,-4.2658,-4.1948,-4.1576,-4.2049,-4.2219,-4.2523,-4.4248,-4.4181,-4.3627,-4.4917,-4.6756,-4.9021,-5.1295,-5.2666,-5.3532,-5.4161,-5.4296,-5.4466,-5.5184,-5.534,-5.5802,-5.7388,-5.7474,-5.7355,-5.7601,-5.807,-5.818,-5.7373,-5.8364,-5.9208,-5.9208,-5.9648,-6.0089,-6.0382,-6.0419,-6.0419,0.0,0.0,0.0,-5.9648,-6.0382,-6.0823,-6.0823,-6.1594,-6.2034,-6.2034,-6.2548,-6.2805,-6.2805,-6.2805,-6.2805,-6.2805,-6.2805,-6.2805,-6.2805,-6.3135,-6.3576,-6.4127,-6.4383,-6.5154,-6.6219,-6.6733,-6.7724,-6.9082,-7.011,-7.1211,-7.2239,-7.2753,-7.345,-7.4001,0.0,0.0,-2.6004,0.0,0.0,0.0,0.0,0.0,0.0,0.0,0.0,0.0,0.0,0.0,0.0,0.0,0.0,0.0,-2.9475,-3.0103,-3.136,-3.3365,-3.3484,-3.4113,-3.5489,-3.5519,-3.5818,-3.6447,-3.7075,-3.8003,-3.926,-4.0186,-4.0938,-4.1558,-4.1815,-4.1949,-4.2013,-4.2855,-4.2855,-4.2253,-4.306,-4.3335,-4.3301,-4.3301,-4.2828,-4.2185,-4.2185,-4.1271,-4.0087,-4.0121,-4.0189,-4.0392,-4.1136,-4.2388,-4.4012,-4.6244,-4.753,-4.8984,-5.2638,-5.3687,-5.4059,-5.548,-5.5818,-5.5994,-5.6802,-5.6928,-5.7332,-5.8896,-5.8536,-5.8166,0.0,-5.9098,-5.8877,-5.807,-5.8731,-5.9318,-5.9318,-5.9391,-5.9685,0.0,0.0,0.0,0.0,0.0,0.0,-6.0603,0.0,-6.1667,-6.1667,-6.2401,-6.2805,-6.2805,-6.2805,-6.2805,-6.2805,-6.2805,-6.2805,-6.2805,-6.2805,-6.2842,-6.2915,-6.3723,-6.4127,-6.4273,-6.5081,-6.6329,-6.776,-6.7797,-6.9192,-7.1321,-7.1358,-7.2312,-7.3707,-7.3744,-7.4258,-7.4845,0.0,0.0,0.0,0.0,0.0,0.0,0.0,0.0,0.0,0.0,0.0,0.0,0.0,0.0,0.0,0.0,0.0,0.0,-2.8816,-2.9475,-3.0702,-3.2677,-3.3245,-3.4113,-3.5489,-3.5519,-3.5579,-3.5759,-3.6417,-3.6896,-3.7255,-3.8524,-3.923,-3.9451,-4.0694,-4.1259,-4.135,-4.2189,-4.2454,-4.2286,-4.2503,-4.2252,-4.1779,-4.1779,-4.1305,-4.0629,-4.0629,-4.0392,-4.0155,-4.073,-4.1644,0.0,0.0,-4.4722,-4.6244,-4.7936,0.0,-5.2536,-5.46,-5.5953,-5.6867,-5.7239,-5.734,-5.7378,-5.7559,-5.7192,-5.7016,-5.8119,-5.7209,-5.6305,0.0,-5.7483,-5.8033,-5.7262,-5.9281,0.0,-6.1006,-6.152,0.0,-6.2181,0.0,-6.2218,-6.2218,-6.2365,0.0,0.0,-6.2401,-6.2511,-6.2511,-6.2695,-6.2805,-6.2805,-6.2805,-6.2805,-6.2805,-6.2805,-6.2805,-6.2805,-6.2805,-6.3135,-6.3759,-6.398,-6.4751,-6.5925,-6.6733,-6.765,-6.8641,-6.9229,-7.022,-7.1358,-7.1982,-7.2826,-7.378,-7.4368,-7.5102,-7.5763,0.0,0.0,0.0,0.0,0.0,0.0,0.0,0.0,0.0,0.0,0.0,0.0,0.0,0.0,0.0,0.0,0.0,0.0,0.0,-2.8786,-2.9774,-3.118,-3.1839,-3.2677,-3.3724,-3.3754,-3.4053,-3.4622,-3.5011,-3.5639,-3.6477,-3.697,-3.7414,-3.7755,-3.8618,-3.9193,-3.9569,-4.079,-4.1264,0.0,0.0,-4.1373,-4.0696,-4.0696,-4.046,-4.0087,-4.0087,-4.0493,-4.1204,-4.232,-4.3234,-4.4045,-4.4823,-4.6109,-4.7631,-4.9458,0.0,-5.389,-5.5716,-5.7036,-5.7881,-5.7881,-5.7881,-5.7895,-5.7946,-5.7612,-5.7403,-5.7889,-5.6978,0.0,-5.7024,-5.7923,0.0,0.0,0.0,0.0,-6.1594,-6.1998,-6.2401,0.0,-6.2805,0.0,-6.2805,-6.2805,-6.2805,0.0,-6.2805,-6.2805,-6.2805,-6.2805,-6.2805,-6.2805,-6.2805,-6.2805,-6.2805,-6.2805,-6.2805,-6.2805,-6.3209,-6.3613,-6.4127,-6.4824,-6.5632,-6.6549,0.0,-6.8678,-6.9486,-7.0293,-7.1321,-7.2422,-7.2863,-7.3744,-7.4808,-7.5249,-7.5946,-7.6644,0.0,0.0,0.0,0.0,0.0,0.0,0.0,0.0,0.0,0.0,-2.4268,-2.4926,-2.5644,-2.6243,0.0,0.0,0.0,0.0,0.0,0.0,-2.8906,-2.9564,-3.0163,-3.0791,-3.1332,-3.139,-3.1928,-3.2976,-3.3066,-3.4023,-3.5818,-3.5439,-3.5623,-3.6255,-3.6352,-3.6723,-3.7467,-3.8901,-3.9532,-3.9732,-4.0548,-4.0611,-4.0087,0.0,-4.0087,-4.0087,-4.0087,-4.0967,-4.2388,-4.4045,-4.4722,-4.5026,-4.5872,-4.7158,-4.8748,-5.0777,-5.2536,-5.4228,-5.6258,-5.734,-5.7881,-5.7881,-5.7881,-5.7871,-5.7716,-5.7681,-5.7605,-5.7449,-5.6795,-5.6785,-5.829,-5.8657,-5.9024,-5.9942,0.0,-6.1374,-6.1557,-6.1594,-6.1887,-6.2695,-6.2805,-6.2805,-6.2805,-6.2915,-6.2915,-6.2805,-6.2915,-6.2915,-6.2805,-6.2805,-6.2805,-6.2805,-6.2805,-6.2805,-6.2805,-6.2805,-6.2879,-6.2989,-6.3723,-6.4273,-6.4604,-6.5999,-6.6769,-6.7063,0.0,0.0,-7.033,-7.1248,-7.2459,-7.3707,-7.3927,-7.4882,-7.613,-7.624,-7.6717,-7.7304,0.0,0.0,0.0,0.0,0.0,0.0,0.0,0.0,0.0,0.0,-2.4522,-2.5076,0.0,0.0,0.0,0.0,0.0,0.0,0.0,0.0,0.0,-2.9564,-3.0163,-3.0552,-3.0672,-3.0672,-3.0552,-3.0253,-3.0761,-3.148,-3.2407,-3.3475,-3.4376,-3.5056,-3.5679,-3.5983,-3.6143,-3.6998,-3.7731,-3.8368,-3.9036,-3.9606,-4.0087,-4.0087,0.0,0.0,-4.0087,-4.0663,-4.1711,-4.3842,-4.5399,-4.665,-4.8003,-4.9458,-5.0845,-5.1826,-5.3653,-5.5547,-5.6528,-5.734,-5.7881,-5.7881,-5.7881,-5.7548,-5.6336,-5.6015,0.0,0.0,-5.3965,-5.4106,-5.506,-5.5794,-5.6712,-5.818,0.0,0.0,0.0,-6.1594,-6.1887,0.0,-6.2805,-6.2805,-6.2805,0.0,0.0,0.0,0.0,0.0,-6.2842,-6.2805,-6.2805,-6.2805,-6.2805,-6.2805,-6.2805,-6.2805,-6.3172,-6.387,-6.4016,-6.5118,-6.7063,-6.7357,-6.8201,-6.9522,-7.0477,0.0,-7.1211,-7.2679,-7.345,-7.3817,-7.5175,-7.5836,-7.6166,-7.6864,-7.7194,-7.7304,0.0,0.0,0.0,0.0,0.0,0.0,0.0,-2.4418,-2.4821,-2.5555,-2.5644,-2.6004,-2.6991,-2.741,-2.7889,0.0,0.0,0.0,0.0,0.0,0.0,-3.0043,-3.0342,-3.0492,-3.0492,-3.0492,-3.0522,-3.0582,0.0,-3.0552,-3.1539,-3.1849,-3.2226,-3.2562,-3.3654,-3.4329,-3.4731,-3.5432,-3.6335,-3.746,-3.8142,-3.8825,-3.9558,-3.9952,0.0,0.0,-4.0087,-4.0561,-4.1441,-4.2895,-4.4384,-4.6041,-4.8274,-4.9763,-5.071,-5.1048,-5.2773,-5.4735,-5.5446,-5.6461,-5.7408,-5.778,-5.7881,-5.7416,-5.5518,0.0,0.0,0.0,-5.2413,-5.3044,-5.4282,-5.5103,-5.6235,-5.829,-5.9318,-6.0236,-6.141,-6.1961,0.0,-6.2768,-6.3209,-6.3319,0.0,-6.398,0.0,0.0,0.0,0.0,-6.2879,-6.2805,-6.2805,-6.2805,-6.3246,-6.3282,-6.2805,-6.409,-6.4751,-6.4751,-6.5999,-6.721,-6.8348,-6.8752,-6.9376,-7.0146,-7.0954,0.0,-7.2018,-7.3193,-7.4184,-7.5028,-7.5799,-7.635,-7.679,-7.7194,-7.7304,-7.7304,0.0,0.0,0.0,0.0,0.0,0.0,-2.4492,-2.4701,-2.5255,-2.6422,-2.6841,-2.726,-2.7949,-2.8368,-2.8876,0.0,0.0,0.0,0.0,0.0,0.0,0.0,0.0,-3.0313,-3.0313,0.0,0.0,-3.112,-3.0073,0.0,0.0,0.0,0.0,0.0,-3.186,-3.2659,-3.3264,-3.3944,-3.5031,0.0,0.0,-3.7959,-3.8745,0.0,0.0,0.0,0.0,-4.046,-4.1102,-4.1982,-4.3098,-4.4553,-4.7225,-4.8781,-4.9695,-4.9999,-5.1589,-5.3484,-5.4532,-5.5784,-5.6968,-5.7712,-5.7881,-5.7318,-5.4823,-5.4419,0.0,-5.1349,-5.1393,-5.2402,-5.4025,-5.46,-5.5697,-5.8244,-5.9061,-5.9832,-6.1153,-6.1887,-6.2438,0.0,-6.3392,0.0,-6.2879,0.0,0.0,0.0,0.0,0.0,-6.3429,-6.3172,-6.3172,-6.3356,-6.4016,-6.4127,-6.3613,-6.5521,-6.6366,-6.6109,-6.7981,-6.9082,-6.9449,-7.0073,-7.044,-7.066,-7.1284,0.0,0.0,-7.3634,-7.4808,-7.613,-7.6276,-7.6754,-7.7304,-7.7304,-7.7304,-7.7341,0.0,0.0,0.0,0.0,0.0,0.0,-2.4492,-2.5136,-2.5764,-2.6482,-2.7649,-2.8667,-2.9325,-2.8936,-2.8876,0.0,0.0,0.0,0.0,0.0,0.0,0.0,0.0,0.0,0.0,0.0,0.0,-2.9774,-2.9654,0.0,0.0,0.0,0.0,0.0,0.0,-3.1627,-3.1775,-3.2404,0.0,0.0,0.0,0.0,0.0,0.0,0.0,0.0,0.0,-4.0121,-4.0392,-4.1813,-4.2388,-4.2794,-4.4451,-4.6413,-4.8376,-4.9695,0.0,0.0,-5.504,-5.619,-5.6968,-5.7712,-5.7881,-5.7103,-5.4228,0.0,-5.3644,-5.0714,-5.0662,-5.1643,-5.3135,-5.2846,-5.3443,-5.6511,-5.6455,-5.7079,-6.0089,-6.0566,-6.1153,-6.2658,0.0,0.0,-6.2805,0.0,0.0,0.0,0.0,0.0,0.0,-6.4383,-6.431,-6.5044,-6.5154,-6.5521,-6.6145,-6.6402,-6.721,-6.8568,-6.8788,-6.9669,-7.1101,-7.1174,-7.1615,-7.2275,-7.2349,0.0,0.0,-7.4478,-7.5322,-7.6166,-7.69,-7.7268,-7.7304,-7.7304,-7.7304,-7.7414,0.0,0.0,0.0,0.0,0.0,0.0,-2.5046,-2.5106,-2.5674,-2.756,-2.7919,-2.8517,-2.9983,-2.9894,-3.0013,-3.0702,0.0,0.0,0.0,0.0,0.0,0.0,0.0,0.0,0.0,0.0,-3.0133,-3.0133,-2.9774,0.0,0.0,0.0,0.0,0.0,0.0,-3.1482,-3.1482,-3.175,0.0,0.0,0.0,0.0,0.0,0.0,0.0,0.0,0.0,0.0,-4.0155,-4.0764,-4.1271,-4.1745,-4.2354,-4.3775,-4.55,0.0,-4.912,-5.1352,-5.3179,-5.4871,-5.6427,-5.7577,-5.7239,-5.5919,-5.3382,-5.2323,-5.1281,-4.9197,-4.9318,-5.0099,-5.1105,-5.1722,-5.2857,-5.5134,-5.5935,-5.7125,-5.9365,-6.0114,-6.0682,-6.1292,-6.2206,0.0,0.0,0.0,0.0,0.0,0.0,0.0,0.0,-6.5521,-6.5191,-6.5999,-6.6476,-6.688,-6.721,-6.8678,-6.9486,-6.9633,-7.0587,-7.1394,-7.2018,-7.2018,-7.2459,-7.323,-7.323,0.0,0.0,-7.5506,-7.6093,-7.6864,-7.7194,-7.7304,-7.7304,-7.7304,-7.7635,-7.8148,0.0,0.0,0.0,0.0,0.0,-2.3999,-2.5136,-2.5106,-2.5644,-2.7739,-2.7919,-2.8487,-3.0073,-3.0402,-3.0791,-3.1422,-3.1482,0.0,0.0,0.0,0.0,0.0,0.0,0.0,0.0,0.0,-3.0612,-3.0821,-3.0372,-3.0372,0.0,0.0,-3.0821,-3.0821,0.0,0.0,0.0,0.0,0.0,0.0,0.0,0.0,0.0,0.0,0.0,0.0,0.0,0.0,0.0,0.0,0.0,-4.0865,-4.0865,-4.1745,-4.3166,-4.5128,-4.7496,-4.9932,-5.2063,-5.3991,-5.5784,-5.7476,-5.663,-5.4871,-5.2807,-5.1014,-4.9357,-4.7902,-4.8138,-4.8781,-4.9526,-5.0647,-5.2022,-5.3656,-5.4954,-5.6441,-5.8232,-5.9219,-5.9895,-6.0333,0.0,0.0,0.0,0.0,0.0,0.0,0.0,0.0,0.0,-6.6843,-6.6623,-6.7173,-6.7981,-6.8495,-6.8752,-7.0477,-7.1138,-7.0807,-7.1945,-7.2496,-7.2496,-7.2496,-7.2936,-7.3707,0.0,0.0,0.0,-7.6093,-7.657,-7.7304,-7.7304,-7.7304,-7.7304,-7.7304,-7.7855,-7.8626,0.0,0.0,0.0,0.0,0.0,0.0,-2.4492,-2.5196,-2.5854,-2.6512,-2.7769,-2.8846,-2.9505,-3.0133,-3.0791,-3.1422,-3.1482,0.0,0.0,0.0,0.0,0.0,0.0,0.0,0.0,0.0,-3.0851,-3.1452,-3.1452,-3.1452,-3.1452,-3.1452,-3.1452,-3.1452,0.0,0.0,0.0,0.0,0.0,0.0,0.0,0.0,-3.6722,0.0,0.0,0.0,0.0,0.0,0.0,0.0,0.0,0.0,0.0,-4.0595,-4.1813,-4.4823,-4.6786,-4.8748,-5.2469,-5.4025,-5.5141,-5.734,-5.6224,-5.4194,-5.2638,-5.0608,-4.8578,-4.7124,-4.7394,-4.8107,-4.8812,-4.9513,-5.0558,-5.2095,-5.2981,-5.4256,-5.6595,-5.7658,-5.8672,0.0,0.0,0.0,0.0,0.0,0.0,0.0,0.0,0.0,0.0,-6.8458,-6.8862,-6.8862,-6.9669,-7.0477,-7.1248,-7.1321,-7.1725,-7.2496,-7.2496,-7.2496,-7.2496,-7.2496,-7.2936,0.0,0.0,0.0,0.0,-7.6093,-7.657,-7.7304,-7.7304,-7.7304,-7.7304,-7.7304,-7.7855,-7.8699,0.0,0.0,0.0,0.0,0.0,0.0,-2.4492,-2.4761,-2.5495,-2.7051,-2.7619,-2.8338,-2.9475,-3.0133,-3.0582,-3.0821,-3.127,0.0,0.0,0.0,0.0,0.0,0.0,0.0,0.0,-3.0971,-3.133,-3.1482,-3.1482,-3.1482,-3.1482,-3.1482,-3.1482,-3.1482,-3.1482,-3.1482,0.0,0.0,0.0,0.0,0.0,-3.5943,-3.6661,0.0,0.0,0.0,0.0,0.0,0.0,0.0,0.0,0.0,0.0,0.0,0.0,-4.2963,-4.4823,-4.6887,-4.9086,-5.0574,-5.1792,-5.301,-5.2029,-5.0507,-4.9526,-4.797,-4.6616,-4.6143,-4.6244,-4.6743,-4.7962,-4.8793,-4.9938,-5.2066,-5.2916,-5.4155,-5.6501,-5.7067,0.0,-5.8559,0.0,0.0,0.0,0.0,0.0,0.0,0.0,0.0,0.0,-6.8414,-6.9122,-6.9706,-7.0513,-7.1321,-7.2129,-7.2129,-7.2275,-7.2496,-7.2496,-7.2496,-7.2532,-7.3083,0.0,0.0,0.0,0.0,0.0,-7.6937,-7.7084,-7.7304,-7.7304,-7.7304,-7.7378,-7.7965,-7.8699,-7.9543,0.0,0.0,0.0,0.0,0.0,0.0,-2.4178,-2.4448,-2.5166,-2.6632,-2.7051,-2.7709,-2.9056,-2.9774,-3.0253,-3.0492,-3.112,0.0,0.0,0.0,0.0,0.0,0.0,0.0,-3.0881,-3.133,-3.1482,-3.1482,-3.1482,-3.1482,-3.1482,-3.1482,-3.1482,-3.1482,-3.1482,-3.1482,0.0,0.0,0.0,0.0,-3.4951,-3.5782,-3.629,0.0,0.0,0.0,0.0,0.0,0.0,0.0,0.0,0.0,0.0,0.0,0.0,0.0,-4.3098,-4.4925,-4.7293,-4.8781,-4.9932,-5.0947,-4.9898,-4.8477,-4.8037,-4.6549,-4.5263,-4.5263,-4.55,-4.6075,-4.7259,-4.8046,-4.9286,-5.1554,-5.232,-5.3376,-5.5644,-5.5956,0.0,-5.7737,0.0,0.0,0.0,0.0,0.0,0.0,0.0,0.0,0.0,0.0,-6.9176,-6.9982,-7.115,-7.1982,-7.2496,-7.2496,-7.2496,-7.2496,-7.2496,-7.2679,-7.2973,-7.345,0.0,0.0,0.0,0.0,0.0,-7.7304,-7.7304,-7.7304,-7.7304,-7.7304,-7.7414,-7.8295,-7.9103,-7.991,0.0,0.0,0.0,0.0,0.0,0.0,0.0,-2.4178,-2.4821,-2.5525,-2.6183,-2.7081,-2.8397,-2.9116,-2.9774,-3.0372,-3.1061,0.0,0.0,0.0,0.0,0.0,0.0,0.0,-3.1362,-3.1452,-3.1482,-3.1482,-3.1482,-3.1482,-3.1482,-3.1482,-3.1482,-3.1482,-3.1422,-3.1392,-3.1482,-3.2826,0.0,0.0,-3.4921,-3.5459,0.0,0.0,0.0,0.0,0.0,0.0,0.0,0.0,0.0,0.0,0.0,0.0,0.0,0.0,0.0,0.0,0.0,-4.8139,-4.9018,-5.0405,-4.9187,-4.7699,-4.7699,-4.6075,0.0,-4.4587,-4.5128,-4.5872,-4.665,-4.7394,-4.8646,-5.0777,-5.1217,-5.2063,-5.4228,-5.4702,0.0,0.0,0.0,0.0,0.0,0.0,0.0,0.0,0.0,0.0,0.0,0.0,-6.9021,-6.9849,-7.149,-7.2343,-7.2438,-7.2438,-7.2496,-7.2496,-7.2496,-7.2936,-7.3707,-7.3744,0.0,0.0,0.0,0.0,0.0,-7.7304,-7.7304,-7.7304,-7.7304,-7.7378,-7.7524,-7.8369,-7.9176,-7.9984,0.0,0.0,0.0,0.0,0.0,0.0,0.0,0.0,0.0,0.0,-2.6183,-2.6901,-2.7709,-2.8427,-2.9086,0.0,0.0,0.0,0.0,0.0,0.0,0.0,0.0,0.0,-3.0731,-3.127,-3.1482,-3.1482,-3.1482,-3.1482,-3.1482,-3.1482,-3.1482,-3.1452,-3.0971,-3.0761,-3.0791,-3.1629,0.0,0.0,-3.4382,-3.504,0.0,0.0,0.0,0.0,-3.8854,-3.9069,0.0,0.0,0.0,0.0,0.0,0.0,0.0,0.0,-4.1711,-4.2625,-4.4079,0.0,-4.5703,-4.6041,-4.5737,-4.5365,0.0,-4.4959,-4.4587,-4.4587,-4.4722,-4.5263,-4.6549,-4.7394,-4.8443,-5.0101,-5.1319,-5.2435,-5.3585,-5.5683,0.0,-5.7831,0.0,0.0,0.0,0.0,0.0,0.0,0.0,0.0,0.0,0.0,-6.7623,-6.9669,-7.0157,-7.0668,-7.1448,-7.213,-7.2496,-7.2496,-7.2496,-7.2936,-7.3707,-7.4331,0.0,0.0,0.0,0.0,-7.7304,-7.7304,-7.7304,-7.7304,-7.7304,-7.7708,-7.8405,-7.9213,-8.0021,-8.0828,0.0,0.0,0.0,0.0,0.0,0.0,0.0,0.0,0.0,0.0,-2.5914,-2.6512,-2.752,-2.8188,-2.8876,0.0,0.0,0.0,0.0,0.0,0.0,0.0,0.0,-3.0313,-3.0971,-3.133,-3.1482,-3.1482,-3.1482,-3.1482,-3.1452,-3.121,-3.1061,-3.1031,-3.0372,-3.0253,-3.0552,-3.124,-3.2287,-3.3544,-3.4203,0.0,0.0,0.0,0.0,0.0,-3.8635,-3.869,0.0,-3.9714,-3.9315,-3.858,0.0,0.0,0.0,0.0,-4.1441,-4.2388,-4.2794,-4.3707,-4.4587,-4.4587,-4.4587,-4.4587,-4.4587,-4.4587,-4.4587,-4.4587,-4.4587,-4.5026,-4.6515,-4.7394,-4.8748,-5.1251,-5.2334,-5.3247,-5.4363,-5.6461,-5.8017,-5.8355,0.0,0.0,0.0,0.0,0.0,0.0,0.0,0.0,0.0,0.0,-6.693,-6.8986,-6.9458,-7.0196,-7.1095,-7.1573,-7.2071,-7.2496,-7.2496,-7.312,-7.4258,-7.4201,-7.5103,0.0,0.0,0.0,-7.7304,-7.7304,-7.7019,-7.6628,-7.7082,-7.7531,-7.8041,-7.9306,-8.0314,-8.1122,0.0,0.0,0.0,0.0,0.0,0.0,0.0,0.0,0.0,0.0,0.0,0.0,0.0,0.0,0.0,0.0,0.0,0.0,0.0,0.0,0.0,0.0,-3.0881,-3.0791,-3.1302,-3.1422,-3.1482,-3.1482,-3.1482,-3.1482,-3.1452,-3.0941,-3.0552,-3.0342,-2.9924,-2.9953,-3.0402,-3.1091,-3.2138,-3.3395,-3.4053,0.0,0.0,0.0,0.0,0.0,0.0,0.0,0.0,-3.961,-3.9156,-3.8189,-3.9662,0.0,0.0,0.0,0.0,0.0,-4.2252,-4.3403,-4.4621,-4.4722,-4.4587,-4.4451,-4.4688,-4.4587,-4.4451,-4.4553,-4.4756,-4.5365,-4.6853,-4.7936,-4.9661,-5.2976,-5.3585,-5.4194,-5.5683,-5.7137,-5.8287,-5.893,0.0,0.0,0.0,0.0,0.0,0.0,0.0,0.0,0.0,0.0,0.0,-6.7955,-6.8798,-6.9672,-7.0632,-7.08,-7.1286,-7.2071,-7.2071,-7.2911,-7.442,-7.3573,-7.4609,0.0,0.0,0.0,-7.7082,-7.7082,-7.6498,-7.5649,-7.6728,-7.7109,-7.7405,-7.8982,-8.0158,-8.1037,0.0,0.0,0.0,0.0,0.0,0.0,0.0,0.0,0.0,0.0,0.0,0.0,0.0,0.0,0.0,0.0,0.0,0.0,0.0,0.0,0.0,-3.1482,-3.0881,-3.0552,-3.0672,-3.124,-3.1482,-3.1482,-3.1482,-3.1482,-3.1482,-3.1362,-3.0791,-2.9744,-3.0163,-3.0133,-2.9774,-3.0402,-3.145,-3.2706,-3.3395,0.0,0.0,0.0,0.0,0.0,0.0,0.0,0.0,-3.9799,-3.9506,-3.8908,-3.9799,0.0,0.0,0.0,0.0,0.0,-4.2117,-4.3403,-4.4722,-4.5365,-4.4553,-4.3944,-4.5229,-4.4519,-4.3775,-4.4451,-4.5568,-4.6921,-4.8376,-5.0304,-5.2029,-5.3315,-5.4025,-5.4938,0.0,0.0,-5.8896,0.0,0.0,0.0,0.0,0.0,0.0,0.0,0.0,0.0,0.0,0.0,0.0,-6.6962,-6.7161,-6.7662,-6.8648,-6.9458,-6.9989,-7.0127,-7.0127,-7.0946,-7.2442,-7.2299,-7.3582,0.0,0.0,-7.5891,-7.6027,-7.6027,-7.544,-7.461,-7.5649,-7.6827,-7.8059,-7.8345,-7.9392,-8.0695,0.0,0.0,0.0,0.0,0.0,0.0,0.0,0.0,0.0,0.0,0.0,0.0,0.0,0.0,0.0,0.0,0.0,0.0,0.0,0.0,-3.1482,-3.1482,-3.121,-3.1061,-3.1061,-3.1302,-3.1482,-3.1482,-3.1482,-3.1482,-3.1452,-3.0821,-2.9983,-2.9056,-2.9355,-2.9505,-2.9624,-3.0253,-3.127,-3.2587,0.0,0.0,0.0,0.0,0.0,0.0,0.0,0.0,0.0,0.0,-3.8656,-3.8454,-3.9244,0.0,0.0,0.0,0.0,0.0,-4.161,-4.2489,-4.3809,-4.5805,-4.6075,-4.6041,-4.6752,-4.665,-4.6312,-4.5872,-4.665,-4.7868,-4.9323,-5.0744,-5.2503,-5.4905,0.0,-5.6765,-5.7848,0.0,0.0,0.0,0.0,0.0,0.0,0.0,0.0,0.0,0.0,0.0,0.0,0.0,0.0,0.0,-6.6812,-6.7029,-6.742,-6.7901,-6.8682,-6.9708,-6.9708,-7.0522,-7.2009,-7.1412,-7.2559,-7.4976,0.0,-7.446,-7.4976,-7.4976,-7.4385,-7.3606,-7.5072,-7.6,-7.6717,-7.8069,-7.9084,-7.9727,0.0,0.0,0.0,0.0,0.0,0.0,0.0,0.0,0.0,0.0,0.0,0.0,0.0,0.0,0.0,0.0,0.0,0.0,0.0,-3.1001,-3.136,-3.1452,-3.1482,-3.1482,-3.1482,-3.1482,-3.1482,-3.1482,-3.1482,-3.1482,-3.1452,-3.0522,-2.9684,-2.9056,-2.9205,-2.9475,-2.9834,-3.0462,-3.142,-3.2587,0.0,0.0,0.0,0.0,0.0,0.0,0.0,0.0,0.0,0.0,0.0,0.0,0.0,0.0,0.0,-3.9783,-4.0493,-4.117,-4.1001,-4.188,-4.3369,-4.5703,-4.6447,-4.6921,-4.8139,-4.8342,-4.8037,-4.7428,-4.8173,-4.9289,-5.0405,-5.1522,0.0,-5.6089,-5.7306,0.0,0.0,0.0,0.0,0.0,0.0,0.0,0.0,0.0,0.0,0.0,0.0,0.0,0.0,0.0,0.0,0.0,-6.6812,-6.6812,-6.6812,-6.6812,-6.7535,-6.9056,-6.9056,-6.9863,-7.1294,-7.0545,-7.1503,-7.3928,-7.309,-7.3252,-7.3928,-7.3928,-7.3332,-7.2651,-7.4202,-7.4927,-7.5308,-7.7767,-7.8411,-7.8245,0.0,0.0,0.0,0.0,0.0,0.0,0.0,0.0,0.0,0.0,0.0,0.0,0.0,0.0,0.0,0.0,0.0,0.0,0.0,-3.0552,-3.0851,-3.1452,-3.1482,-3.1482,-3.1482,-3.1482,-3.1482,-3.1482,-3.1482,-3.1482,-3.1482,-3.1392,-3.1031,-3.0402,-3.1031,-3.1001,-3.0492,-3.118,-3.1869,-3.2587,-3.3215,0.0,0.0,0.0,0.0,0.0,0.0,0.0,0.0,0.0,0.0,0.0,0.0,0.0,-3.8193,-3.887,-4.0087,-4.1068,-4.0392,-4.2252,-4.4485,-4.4688,-4.3707,-4.3978,-4.8815,-4.7868,-4.6481,-4.8443,-5.0507,-5.2029,-5.2131,-5.3923,-5.548,-5.575,-5.6968,0.0,0.0,0.0,0.0,0.0,0.0,0.0,0.0,0.0,0.0,0.0,0.0,0.0,0.0,0.0,0.0,0.0,0.0,-6.6812,-6.6812,-6.6812,-6.6896,-6.7029,-6.7029,-6.7844,-6.9338,-6.9252,-7.0567,-7.288,-7.2797,-7.288,-7.288,-7.288,-7.2279,-7.1546,-7.2567,-7.3851,-7.5172,-7.6834,-7.6747,-7.6114,0.0,0.0,0.0,0.0,0.0,0.0,0.0,0.0,0.0,0.0,0.0,0.0,0.0,0.0,0.0,0.0,0.0,0.0,0.0,-3.0073,-3.0462,-3.0313,-3.0702,-3.0702,-3.0342,-3.112,-3.1482,-3.1482,-3.1482,-3.1482,-3.1452,-3.1091,-3.0761,-3.0522,-3.0761,-3.0761,-3.0582,-3.1689,-3.2287,-3.2587,-3.3215,-3.3517,0.0,0.0,0.0,0.0,0.0,0.0,0.0,0.0,-3.6806,-3.7246,-3.7516,-3.7753,-3.7956,-3.8227,-3.9039,-3.9783,-3.9478,-4.161,-4.3978,-4.4451,-4.4147,-4.4722,-4.8545,-4.9627,-4.9932,-5.0304,-5.142,-5.2469,-5.2942,-5.4871,-5.6393,-5.6393,0.0,0.0,0.0,0.0,0.0,0.0,0.0,0.0,0.0,0.0,0.0,0.0,0.0,0.0,0.0,0.0,0.0,0.0,0.0,-6.6812,-6.6812,-6.6812,-6.6812,-6.6812,-6.6812,-6.7624,-6.9113,-6.9113,-7.0119,-7.183,-7.183,-7.183,-7.183,-7.183,-7.16,-7.1413,-7.2765,-7.4116,-7.5481,-7.6061,-7.602,-7.5771,0.0,0.0,0.0,0.0,0.0,0.0,0.0,0.0,0.0,0.0,0.0,0.0,0.0,0.0,0.0,0.0,0.0,0.0,-2.8577,-2.9415,-2.9804,-2.9594,-2.9983,-3.0013,-2.9594,-3.0642,-3.121,-3.121,-3.1362,-3.1482,-3.1452,-3.1061,-3.0821,-3.0821,-3.0821,-3.0821,-3.0881,-3.1809,-3.2317,-3.2557,-3.3216,-3.3478,0.0,0.0,0.0,0.0,0.0,0.0,0.0,0.0,-3.596,-3.6468,-3.6705,-3.6975,-3.728,-3.7753,-3.8768,-3.9648,-3.9411,-4.1508,-4.391,-4.4451,-4.4925,-4.6007,-4.8714,-4.9965,-5.0744,-5.142,-5.2164,-5.2909,-5.3687,-5.5074,0.0,0.0,0.0,0.0,0.0,0.0,0.0,0.0,0.0,0.0,0.0,0.0,0.0,0.0,0.0,0.0,0.0,0.0,0.0,0.0,0.0,-6.6812,-6.6812,-6.6812,-6.6812,-6.6812,-6.7049,-6.7827,-6.9113,-6.935,-7.0128,-7.1312,-7.1312,-7.1312,-7.1312,-7.1312,-7.1447,-7.1785,-7.3003,-7.4255,-7.5371,-7.5608,-7.5709,-7.5709,0.0,0.0,0.0,0.0,0.0,0.0,0.0,0.0,0.0,0.0,0.0,0.0,0.0,0.0,0.0,0.0,0.0,0.0,-2.8547,-2.8607,-2.8876,-2.9535,-2.9564,-2.9594,-2.9564,-3.0193,-3.0492,-3.0522,-3.121,-3.1482,-3.1482,-3.1482,-3.1539,-3.1539,-3.1539,-3.1539,-3.1539,-3.1539,-3.1928,-3.2556,-3.3223,-3.3506,-3.3588,0.0,0.0,0.0,0.0,0.0,0.0,0.0,-3.5622,-3.5757,-3.6535,-3.6231,-3.5926,-3.7449,-3.9478,-4.1035,-4.029,-4.2286,-4.4621,-4.4587,-4.5703,-4.7394,-4.9593,-4.8376,-4.7868,-5.1522,-5.2942,-5.3754,-5.4465,-5.46,0.0,0.0,0.0,0.0,0.0,0.0,0.0,0.0,0.0,0.0,0.0,0.0,0.0,0.0,0.0,0.0,0.0,0.0,0.0,0.0,0.0,0.0,-6.6812,-6.6812,-6.6812,-6.6812,-6.7557,-6.8335,-6.9113,-6.9857,-7.0601,-7.1312,-7.1312,-7.1312,-7.1312,-7.1312,-7.1751,-7.2496,-7.3206,-7.395,-7.4695,-7.5439,-7.5709,-7.5709,0.0,0.0,0.0,0.0,0.0,0.0,0.0,0.0,0.0,0.0,0.0,0.0,0.0,0.0,0.0,0.0,0.0,0.0,-2.7859,-2.8338,-2.8457,-2.8188,-2.9086,-2.9355,-2.8906,-2.9953,-3.0731,-3.121,-3.1362,-3.1482,-3.1482,-3.1482,-3.1796,-3.2272,-3.2272,-3.2272,-3.2302,-3.2762,-3.2982,-3.3223,-3.345,-3.4085,-3.4956,0.0,0.0,0.0,0.0,0.0,0.0,0.0,0.0,0.0,-3.5893,-3.6197,-3.6637,-3.7618,-3.9106,-4.0493,-4.0798,-4.3842,-4.6684,-4.5635,-4.7259,-4.9289,-4.9932,-4.9593,-4.9424,-5.0507,-5.3044,-5.4803,-5.3991,-5.5108,0.0,0.0,0.0,0.0,0.0,0.0,0.0,0.0,0.0,0.0,0.0,0.0,0.0,0.0,0.0,0.0,0.0,0.0,0.0,0.0,0.0,-6.6812,-6.6812,-6.6812,-6.6812,-6.6846,-6.8132,-6.8876,-6.9113,-6.9857,-7.0601,-7.1312,-7.1312,-7.1312,-7.1312,-7.1312,-7.2056,-7.3172,-7.3409,-7.4255,-7.5405,-7.5608,-7.5709,-7.5709,0.0,0.0,0.0,0.0,0.0,0.0,0.0,0.0,0.0,0.0,-3.0342,-3.0283,0.0,0.0,0.0,0.0,0.0,0.0,-2.761,-2.7949,-2.8128,-2.7979,-2.8757,-2.9235,-2.9355,-3.0103,-3.0851,-3.1482,-3.127,-3.112,-3.112,-3.112,-3.1485,-3.2199,-3.2478,-3.2609,-3.2572,-3.2711,-3.2866,-3.3137,-3.3105,-3.395,-3.5218,0.0,0.0,0.0,0.0,0.0,0.0,0.0,0.0,0.0,-3.6434,-3.7043,-3.7821,-3.8565,-4.0223,-4.2049,-4.2794,-4.5602,-4.8274,-4.797,-4.9221,-5.0541,-5.0541,-5.0744,-5.1048,-5.1386,-5.3484,-5.5175,-5.4871,-5.5919,0.0,0.0,0.0,0.0,0.0,0.0,0.0,0.0,0.0,0.0,0.0,0.0,0.0,0.0,0.0,0.0,0.0,0.0,0.0,0.0,0.0,-6.6812,-6.6812,-6.6812,-6.6812,-6.6846,-6.8368,-6.9113,-6.9147,-7.0161,-7.0872,-7.1312,-7.1312,-7.1312,-7.1312,-7.1312,-7.2157,-7.3477,-7.3477,-7.439,-7.5709,-7.5709,-7.5709,-7.5709,0.0,0.0,0.0,0.0,0.0,0.0,0.0,0.0,0.0,-2.9714,-3.0103,-3.0223,0.0,0.0,0.0,-2.8607,-2.7979,-2.761,-2.761,-2.761,-2.7889,-2.8577,-2.8697,-2.9355,-3.0582,-3.0582,-3.0911,-3.1482,-3.0851,-3.0492,-3.0492,-3.0492,-3.0934,-3.1716,-3.2338,-3.2615,-3.2574,-3.1954,-3.1974,-3.2528,-3.2545,-3.3405,-3.4636,-3.5261,0.0,0.0,0.0,0.0,0.0,0.0,0.0,0.0,-3.7686,-3.8396,-3.914,-3.9851,-4.2117,-4.4553,-4.5466,-4.7327,-4.9357,-5.0845,-5.1319,-5.142,-5.142,-5.1928,-5.257,-5.3179,0.0,-5.5108,-5.6461,0.0,0.0,0.0,0.0,0.0,0.0,0.0,0.0,0.0,0.0,0.0,0.0,0.0,0.0,0.0,0.0,0.0,0.0,0.0,0.0,0.0,0.0,-6.6812,-6.6812,-6.6812,-6.6812,0.0,-6.8368,-6.9113,-6.9147,-7.0635,-7.1312,-7.1312,-7.1312,-7.1312,-7.1312,-7.1312,-7.2157,-7.3477,-7.3477,-7.439,-7.5709,-7.5709,-7.5709,-7.5709,0.0,0.0,0.0,0.0,0.0,0.0,0.0,0.0,-2.8697,-3.0133,-3.0013,-2.9924,-3.0253,-2.9295,0.0,-2.8607,-2.7979,-2.761,-2.761,-2.761,-2.7889,-2.8577,-2.9564,-3.0492,-3.13,-3.1243,-3.139,-3.1482,-3.0851,-3.0492,-3.0492,-3.0492,-3.1175,-3.2392,-3.2482,-3.2802,-3.3237,-3.2494,-3.2313,-3.2406,-3.2406,-3.3247,-3.4532,-3.4699,-3.5115,0.0,0.0,0.0,0.0,0.0,0.0,0.0,-3.7855,-3.8396,-3.914,-3.9851,-4.1373,-4.32,-4.5162,-4.7327,-4.9357,-5.0845,-5.2131,-5.301,-5.301,-5.3145,-5.2942,-5.1928,-5.3721,-5.5581,0.0,0.0,0.0,0.0,0.0,0.0,0.0,0.0,0.0,0.0,0.0,0.0,0.0,0.0,0.0,0.0,0.0,0.0,0.0,0.0,0.0,0.0,0.0,-6.6812,-6.6812,-6.6812,-6.6812,0.0,-6.8368,-6.9113,-6.9147,-7.0635,-7.1312,-7.1312,-7.1312,-7.1312,-7.1312,-7.1312,-7.2157,-7.3477,-7.3477,-7.439,-7.5709,-7.5709,-7.5709,-7.5709,0.0,0.0,0.0,0.0,0.0,0.0,0.0,0.0,-2.9116,-2.9535,-2.9594,-2.9594,-2.9594,-2.8697,0.0,0.0,-2.732,-2.7111,-2.7111,-2.741,-2.8008,-2.9026,-3.0313,-3.115,-3.1452,-3.1482,-3.1482,-3.1482,-3.0552,-3.0073,-3.0043,-3.0038,-3.0608,-3.1646,-3.2192,-3.2629,-3.2884,-3.2177,-3.2089,-3.2307,-3.2045,-3.274,-3.3998,-3.437,-3.4742,-3.5115,-3.5487,0.0,0.0,0.0,0.0,0.0,0.0,0.0,-4.0121,-4.0493,-4.1914,-4.3876,-4.6143,-4.8105,-4.9965,-5.186,-5.2909,-5.3518,-5.3518,-5.3518,-5.3484,-5.3382,-5.4634,0.0,0.0,0.0,0.0,0.0,0.0,0.0,0.0,0.0,0.0,0.0,0.0,0.0,0.0,0.0,0.0,0.0,0.0,0.0,0.0,0.0,0.0,0.0,-6.644,-6.6812,-6.6812,-6.6812,-6.6812,-6.6846,-6.8368,-6.9485,-7.0195,-7.0973,-7.1312,-7.1312,-7.1312,-7.1312,-7.1312,-7.1312,-7.2157,-7.3477,-7.3477,-7.439,-7.5709,-7.5709,-7.5709,-7.5709,0.0,0.0,0.0,0.0,0.0,0.0,0.0,0.0,0.0,-2.8697,-2.8966,-2.9026,-2.8487,-2.7829,-2.7141,0.0,0.0,0.0,-2.6602,-2.732,-2.8308,-2.9535,-3.0731,-3.1362,-3.1482,-3.1482,-3.1422,-3.136,-3.0163,-2.9559,-2.9599,-2.9511,-2.9845,-3.0555,-3.172,-3.2264,-3.2273,-3.165,-3.1625,-3.2104,-3.1583,-3.2135,-3.3288,-3.4032,-3.437,-3.4607,-3.5351,-3.569,-3.5926,-3.6569,0.0,0.0,0.0,0.0,-4.0832,-4.0832,-4.232,-4.4451,-4.6583,-4.8578,-5.0642,-5.2942,-5.3518,-5.3518,-5.3518,-5.3518,-5.3923,-5.5412,0.0,0.0,0.0,0.0,0.0,0.0,0.0,0.0,0.0,0.0,0.0,0.0,0.0,0.0,0.0,0.0,0.0,0.0,0.0,0.0,0.0,0.0,-6.3463,-6.5797,-6.6474,-6.6812,-6.6812,-6.6812,-6.6812,-6.6846,-6.8368,-6.9891,-7.1312,-7.1312,-7.1312,-7.1312,-7.1312,-7.1312,-7.1312,-7.1312,-7.2157,-7.3477,-7.3477,-7.439,-7.5709,-7.5709,-7.5709,-7.5709,0.0,0.0,0.0,0.0,0.0,0.0,0.0,0.0,0.0,0.0,-2.8158,-2.785,-2.7709,-2.7111,-2.6452,-2.5794,-2.6243,-2.6602,-2.6602,0.0,0.0,-2.9535,-3.0253,-3.0911,-3.1452,-3.1482,-3.124,-3.0642,-2.9924,-2.9584,-2.9508,-2.9465,-2.9845,-3.0523,-3.1153,-3.1765,-3.2239,-3.1516,-3.1286,-3.1326,-3.1246,-3.1725,-3.251,-3.3254,-3.3931,-3.4607,-3.5351,-3.6062,-3.6637,-3.6738,-3.728,0.0,0.0,0.0,-3.9276,-3.9276,-4.0426,-4.2016,-4.3572,-4.6989,-5.0642,-5.2942,-5.3518,-5.3518,-5.3518,-5.3518,-5.3923,0.0,0.0,0.0,0.0,0.0,0.0,0.0,0.0,0.0,0.0,0.0,0.0,0.0,0.0,0.0,0.0,0.0,0.0,0.0,0.0,0.0,0.0,-6.2347,-6.37,-6.6576,-6.6779,-6.6812,-6.6812,-6.6812,-6.6812,-6.6846,-6.8368,-6.9891,-7.1312,-7.1312,-7.1312,-7.1312,-7.1312,-7.1312,-7.1312,-7.1312,-7.2157,-7.3477,-7.3477,-7.439,-7.5709,-7.5709,-7.5709,-7.5709,0.0,0.0,0.0,0.0,0.0,0.0,0.0,0.0,0.0,0.0,0.0,-2.749,-2.7051,-2.6422,-2.5764,-2.5106,-2.5315,-2.5794,-2.6542,-2.75,-2.8338,-2.8996,-2.9983,-3.0642,-3.0941,-3.0971,-3.0821,-3.0492,-2.9849,-2.9307,-2.8896,-2.9198,-2.9694,-3.0391,-3.0983,-3.1422,-3.1664,-3.1326,-3.119,-3.119,-3.119,-3.1901,-3.2916,-3.2814,-3.3761,-3.5115,-3.5013,-3.5487,-3.6129,-3.6129,-3.6637,-3.728,-3.728,0.0,0.0,0.0,-3.9445,-4.0561,-4.3335,-4.7022,-5.0439,-5.186,-5.2875,-5.3518,-5.3518,-5.3518,-5.3788,0.0,0.0,0.0,0.0,0.0,0.0,0.0,0.0,0.0,0.0,0.0,0.0,0.0,0.0,0.0,0.0,0.0,0.0,0.0,0.0,0.0,-6.2245,-6.2381,-6.3734,-6.6711,-6.6812,-6.6812,-6.6812,-6.6812,-6.7252,-6.8098,-6.8774,-6.9891,-7.1312,-7.1312,-7.1312,-7.1312,-7.1312,-7.1312,-7.1345,-7.1751,-7.2529,-7.3544,-7.395,-7.4762,-7.5709,-7.5709,-7.5709,-7.5709,0.0,0.0,0.0,0.0,0.0,0.0,0.0,0.0,0.0,0.0,0.0,-2.732,-2.6662,0.0,0.0,0.0,-2.4582,-2.5106,-2.6273,-2.6811,-2.747,-2.8308,-2.9265,-2.9924,-3.0253,-3.0283,-3.0273,-3.0256,-2.9725,-2.9166,-2.8621,-2.9004,-2.9468,-2.9987,-3.0662,-3.1021,-3.119,-3.119,-3.119,-3.1224,-3.1596,-3.2408,-3.3423,-3.3423,-3.4472,-3.5825,-3.5047,-3.525,-3.5859,-3.5453,-3.5859,-3.6502,-3.6502,-3.7009,0.0,0.0,0.0,-3.9986,-4.3369,-4.6278,-4.8781,-5.0507,-5.1792,-5.2807,-5.3382,0.0,0.0,0.0,0.0,0.0,0.0,0.0,0.0,0.0,0.0,0.0,0.0,0.0,0.0,0.0,0.0,0.0,0.0,0.0,0.0,0.0,0.0,0.0,-6.1975,-6.2279,-6.3666,-6.644,-6.6711,-6.6812,-6.6812,-6.6812,-6.759,-6.9113,-6.9113,-6.9891,-7.1312,-7.1312,-7.1312,-7.1312,-7.1312,-7.1312,-7.1379,-7.209,-7.2834,-7.3544,-7.4322,-7.5067,-7.5709,-7.5709,-7.5709,-7.5709,0.0,0.0,0.0,0.0,0.0,0.0,0.0,0.0,0.0,0.0,0.0,-2.732,-2.6662,-2.6004,-2.5345,-2.4642,-2.4582,-2.4881,-2.5615,-2.5704,-2.6273,-2.761,-2.773,0.0,-2.9594,-2.9624,-2.9614,-2.9527,-2.9515,-2.939,-2.9173,-2.9181,-2.917,-2.909,-2.9837,-3.0548,-3.119,-3.119,-3.119,-3.1326,-3.2713,-3.3322,-3.3626,-3.5757,-3.6637,-3.6603,-3.5825,-3.6062,-3.6502,-3.5047,-3.5047,-3.569,-3.569,-3.6197,-3.6975,0.0,0.0,0.0,-4.2861,-4.3606,-4.479,-4.9086,-5.0202,-5.0845,-5.301,0.0,0.0,0.0,0.0,0.0,0.0,0.0,0.0,0.0,0.0,0.0,0.0,0.0,0.0,0.0,0.0,0.0,0.0,0.0,0.0,0.0,0.0,0.0,-6.1231,-6.2009,-6.3429,-6.5662,-6.644,-6.6812,-6.6812,-6.6812,-6.759,-6.9113,-6.9113,-6.9891,-7.1312,-7.1312,-7.1312,-7.1312,-7.1312,-7.1312,-7.1379,-7.209,-7.2834,-7.3544,-7.4322,-7.5067,-7.5709,-7.5709,-7.5709,-7.5709,0.0,0.0,0.0,0.0,0.0,0.0,0.0,0.0,0.0,0.0,0.0,0.0,0.0,-2.6004,-2.5345,-2.4642,-2.4238,-2.4268,-2.4881,-2.4986,-2.5585,-2.6871,-2.735,-2.8008,-2.8936,-2.9325,-2.9531,-2.9484,-2.9876,-2.9491,-2.853,-2.8915,-2.874,-2.8281,-2.9059,-2.9803,-3.048,-3.048,-3.0784,-3.1393,-3.3863,-3.5419,-3.64,-3.7212,-3.8396,-3.9445,-3.8227,-3.7652,-3.755,-3.7956,-3.7313,-3.6366,-3.6366,-3.6197,-3.6299,-3.755,-3.8937,-4.0358,-4.1644,-4.2692,-4.391,-4.6041,-4.797,-4.9593,-5.0439,-5.2131,0.0,0.0,0.0,0.0,0.0,0.0,0.0,0.0,0.0,0.0,0.0,0.0,0.0,0.0,0.0,0.0,0.0,0.0,0.0,0.0,0.0,0.0,-6.1197,-6.2448,-6.3903,-6.5628,-6.644,-6.6812,-6.6812,-6.6812,-6.759,-6.9113,-6.9113,-6.9891,-7.1312,-7.1312,-7.1312,-7.1312,-7.1312,-7.1312,-7.1413,-7.2597,-7.324,-7.3612,-7.483,-7.5473,-7.5709,-7.5709,-7.5709,-7.5709,0.0,0.0,0.0,0.0,0.0,0.0,0.0,0.0,-2.812,-2.767,0.0,0.0,0.0,0.0,-2.5255,-2.4358,-2.3879,-2.3789,-2.4268,-2.4462,-2.5198,-2.6516,-2.7213,-2.7978,-2.8847,-2.929,-2.9548,-2.9785,-3.012,-2.9766,-2.8766,-2.9181,-2.8958,-2.8247,-2.8755,-2.9397,-3.0142,-3.0378,-3.0751,-3.1461,-3.4438,-3.5926,-3.6569,-3.8058,-3.9242,0.0,0.0,0.0,0.0,-4.0392,-3.9681,-3.8227,-3.799,-3.7043,-3.6265,-3.755,-3.8768,-3.9884,-4.0629,-4.1542,-4.2658,-4.4181,-4.5872,-4.753,-4.9018,0.0,0.0,0.0,0.0,0.0,0.0,0.0,0.0,0.0,0.0,0.0,0.0,0.0,0.0,0.0,0.0,0.0,0.0,0.0,0.0,0.0,0.0,0.0,-6.0825,-6.2313,-6.3937,-6.5628,-6.644,-6.6812,-6.6812,-6.7049,-6.7827,-6.9113,-6.935,-7.0128,-7.1312,-7.1312,-7.1312,-7.1312,-7.1312,-7.1312,-7.1413,-7.2631,-7.3274,-7.3612,-7.4864,-7.5473,-7.5709,-7.5709,-7.5709,-7.5709,0.0,0.0,0.0,0.0,0.0,0.0,-2.8846,-2.9175,-2.9116,-2.785,0.0,0.0,0.0,0.0,0.0,-2.3759,-2.367,-2.367,-2.3683,-2.4268,-2.5243,-2.6479,-2.7176,-2.8089,-2.9406,-2.9406,-2.9717,-3.0342,-3.0309,-3.0235,-3.0108,-3.0108,-2.9702,-2.9028,-2.9028,-2.9431,-3.0176,-3.0852,-3.119,-3.1461,-3.4472,-3.4844,-3.41,-3.8531,0.0,0.0,-3.9783,-4.0764,0.0,-4.2219,0.0,0.0,0.0,-3.8497,-3.6907,-3.7686,-3.843,-3.914,0.0,0.0,0.0,-4.3707,-4.391,-4.4519,-4.8883,0.0,0.0,0.0,0.0,0.0,0.0,0.0,0.0,0.0,0.0,0.0,0.0,0.0,0.0,0.0,0.0,0.0,0.0,0.0,0.0,0.0,0.0,-5.9336,-6.0047,-6.1603,-6.3463,-6.5628,-6.644,-6.6812,-6.6812,-6.7523,-6.8301,-6.9113,-6.9857,-7.0601,-7.1312,-7.1312,-7.1312,-7.1312,-7.1312,-7.1312,-7.1379,-7.209,-7.2834,-7.3544,-7.4322,-7.5067,-7.5709,-7.5709,-7.5709,-7.5709,0.0,0.0,0.0,0.0,0.0,-2.9864,-2.9953,-2.9744,-2.9445,0.0,0.0,0.0,-2.776,-2.6393,-2.5465,-2.5076,-2.5046,-2.5198,-2.5659,-2.5887,-2.6554,-2.7826,-2.8049,-2.8793,-3.0156,-3.0108,-3.0412,-3.111,-3.099,-3.0662,-3.0108,-3.0108,-2.9702,-2.9028,-2.9567,-2.9905,-3.0108,-3.0311,-3.0717,-3.1562,-3.5622,-3.7652,0.0,0.0,0.0,0.0,0.0,-4.4722,-4.4654,0.0,-4.4079,-4.0696,0.0,-3.6806,-3.6907,-3.7686,-3.843,-3.914,-3.9884,0.0,0.0,0.0,0.0,0.0,0.0,0.0,0.0,0.0,0.0,0.0,0.0,0.0,0.0,0.0,0.0,0.0,0.0,0.0,0.0,0.0,0.0,0.0,0.0,0.0,0.0,0.0,-5.9066,-5.9877,-6.008,-6.2584,-6.4512,-6.5662,-6.644,-6.6812,-6.6812,-6.7523,-6.8301,-6.9113,-6.9857,-7.0601,-7.1312,-7.1312,-7.1312,-7.1312,-7.1312,-7.1312,-7.1379,-7.209,-7.2834,-7.3544,-7.4322,-7.5067,-7.5709,-7.5709,-7.5709,-7.5709,0.0,0.0,-3.148,-3.1869,-3.1539,-3.115,-3.0971,-3.0851,-3.0522,0.0,0.0,0.0,-2.779,-2.7116,-2.6563,-2.6032,-2.6198,-2.6479,-2.6839,-2.7123,-2.7731,-2.8744,-2.9026,-2.9707,-3.0773,-3.1016,-3.1183,-3.1316,-3.1577,-3.1258,-3.0548,-3.0548,-3.0311,-2.9939,-3.0378,-3.0548,-3.0548,-3.0548,-3.0987,-3.1968,-3.552,0.0,0.0,-4.2252,-4.3978,0.0,0.0,0.0,-4.5635,-4.8376,-4.6515,0.0,0.0,-3.7381,-3.7347,-3.7787,-3.843,-3.914,-3.9884,-4.0087,-4.0155,-4.046,0.0,0.0,0.0,0.0,0.0,0.0,0.0,0.0,0.0,0.0,0.0,0.0,0.0,0.0,0.0,0.0,0.0,0.0,0.0,0.0,0.0,0.0,0.0,0.0,-5.9268,-6.0385,-6.1028,-6.3024,-6.4478,-6.5222,-6.5967,-6.6508,-6.6812,-6.7861,-6.8639,-6.9113,-7.0161,-7.0872,-7.1312,-7.1312,-7.1312,-7.1312,-7.1312,-7.1312,-7.1345,-7.1751,-7.2563,-7.3544,-7.395,-7.4762,-7.5709,-7.5709,-7.5709,-7.5709,0.0,0.0,-3.2527,-3.2527,-3.3066,-3.3095,-3.1928,-3.2168,-3.1928,0.0,-3.0428,-3.0033,-2.8252,-2.8437,-2.8249,-2.7047,-2.7381,-2.7644,-2.7727,-2.8307,-2.8874,-2.9476,-3.0071,-3.0675,-3.1326,-3.1935,-3.2002,-3.1427,-3.2002,-3.1935,-3.1326,-3.1224,-3.119,-3.119,-3.119,-3.119,-3.119,-3.119,-3.1765,-3.2848,-3.5013,-3.6028,0.0,0.0,-4.2489,-4.2523,-4.594,-4.638,-4.5872,-4.9492,-4.8646,0.0,0.0,0.0,-3.8362,-3.8193,-3.8647,-3.934,-4.0034,-4.0254,-4.0424,-4.1053,-4.0663,0.0,-4.4418,-4.5693,0.0,0.0,0.0,0.0,0.0,0.0,0.0,0.0,0.0,0.0,0.0,0.0,0.0,0.0,0.0,0.0,0.0,0.0,-5.7881,-5.7881,-5.9268,-6.0757,-6.2313,-6.3125,-6.3835,-6.458,-6.5324,-6.6034,-6.6812,-6.8233,-6.9011,-6.9113,-7.0534,-7.1244,-7.1312,-7.1312,-7.1312,-7.1312,-7.1312,-7.1312,-7.1312,-7.1312,-7.2157,-7.3477,-7.3477,-7.439,-7.5709,-7.5709,-7.5709,-7.5709,-3.139,-3.2048,-3.2527,-3.2527,-3.3066,-3.3395,-3.3155,-3.2766,-3.2557,-3.2706,-3.2387,-3.1828,-3.0926,-3.0382,-3.0018,-2.9731,-2.9265,-2.921,-2.9681,-2.9854,-3.0203,-3.0796,-3.0931,-3.1381,-3.207,-3.2246,-3.251,-3.2983,-3.251,-3.2246,-3.207,-3.1461,-3.119,-3.119,-3.119,-3.119,-3.119,-3.119,-3.2645,-3.5115,-3.6806,0.0,-4.0527,-4.4451,-4.6583,-4.7665,-4.8984,-4.9661,-4.9695,-4.8173,-4.797,-4.7394,0.0,0.0,-4.1204,-4.002,-4.0061,-4.056,-4.0698,-4.1105,-4.141,-4.1047,-4.0836,0.0,-4.185,-4.2057,0.0,0.0,0.0,0.0,0.0,0.0,0.0,0.0,0.0,0.0,0.0,0.0,0.0,0.0,0.0,0.0,0.0,0.0,-5.7881,-5.7881,-5.9268,-6.0757,-6.2313,-6.3125,-6.3835,-6.458,-6.5324,-6.6034,-6.6812,-6.7692,-6.847,-6.9113,-6.9992,-7.0737,-7.1312,-7.1312,-7.1312,-7.1312,-7.1312,-7.1312,-7.1312,-7.1312,-7.2157,-7.3477,-7.3477,-7.439,-7.5709,-7.5709,-7.5709,-7.5709,-3.1392,-3.2317,-3.3006,-3.3006,-3.3844,-3.4508,-3.4547,-3.4242,-3.4084,-3.4094,-3.3521,-3.2699,-3.1659,-3.1486,-3.1148,-3.0477,-3.0336,-3.0435,-3.0757,-3.0757,-3.0878,-3.119,-3.119,-3.136,-3.1732,-3.2476,-3.2848,-3.2848,-3.2848,-3.2645,-3.2273,-3.1529,-3.1596,-3.2273,-3.1529,-3.1596,-3.2273,-3.1901,-3.2814,-3.4709,-3.6975,0.0,-4.2658,-4.5635,-4.7496,-4.8612,-4.9695,-5.0811,-5.1319,-4.8342,-4.7597,0.0,0.0,-4.2963,-4.1798,-4.2108,-4.1842,-4.1487,-4.1391,-4.1595,-4.1725,-4.1429,-4.134,0.0,0.0,0.0,0.0,0.0,0.0,0.0,0.0,0.0,0.0,0.0,0.0,0.0,0.0,0.0,0.0,0.0,0.0,0.0,0.0,0.0,-5.8051,-5.8423,-5.9471,-6.0622,-6.1772,-6.255,-6.3294,-6.4038,-6.4783,-6.5493,-6.6237,-6.7354,-6.8301,-6.9113,-6.9857,-7.0601,-7.1312,-7.1312,-7.1312,-7.1312,-7.1312,-7.1312,-7.1312,-7.1312,-7.2157,-7.3477,-7.3477,-7.439,-7.5709,-7.5709,-7.5709,-7.5709,-3.1879,-3.2912,-3.3789,-3.3879,-3.5063,-3.595,-3.6007,-3.5907,-3.5545,-3.4793,-3.4426,-3.3719,-3.2414,-3.2863,-3.2772,-3.1583,-3.1842,-3.1935,-3.163,-3.163,-3.163,-3.163,-3.136,-3.1326,-3.163,-3.278,-3.3119,-3.2476,-3.3119,-3.3085,-3.2476,-3.1732,-3.2036,-3.3152,-3.2374,-3.2645,-3.3592,-3.3119,-3.3694,-3.5115,0.0,-4.0087,-4.2658,-4.55,-4.6955,-4.7767,-4.9796,-5.1386,-5.2097,-4.912,-4.7902,-4.7564,-4.7158,-4.4959,0.0,-4.3614,-4.3276,-4.2591,-4.2094,-4.2062,-4.2103,-4.1979,-4.1979,-4.2257,0.0,0.0,0.0,0.0,0.0,0.0,0.0,0.0,0.0,0.0,0.0,0.0,0.0,0.0,0.0,0.0,0.0,0.0,0.0,0.0,-5.8051,-5.893,-5.9573,-6.0317,-6.1264,-6.2009,-6.2753,-6.3497,-6.4106,-6.4816,-6.5662,-6.688,-6.803,-6.9113,-6.9688,-7.0432,-7.1312,-7.1312,-7.1312,-7.1312,-7.1312,-7.1312,-7.1312,-7.1312,-7.2157,-7.3477,-7.3477,-7.439,-7.5709,-7.5709,-7.5709,-7.5709,-3.3391,-3.3991,-3.4732,-3.5324,-3.6578,-3.7557,-3.752,-3.7036,-3.6166,-3.4899,-3.563,-3.6026,-3.5208,-3.5844,-3.6162,-3.5908,-3.5365,-3.4573,-3.3254,-3.3152,-3.3152,-3.3152,-3.1901,-3.1799,-3.3119,-3.3322,-3.3355,-3.3288,-3.3355,-3.3355,-3.3254,-3.251,-3.2239,-3.2476,-3.4303,-3.4844,-3.4404,-3.4979,-3.7212,0.0,-4.0696,-3.9918,0.0,-4.3978,-4.5872,-4.6515,-5.0574,-5.2604,-5.2909,0.0,-4.9695,-4.9932,0.0,-4.5432,-4.6496,-4.3304,-4.3511,-4.4445,-4.2992,-4.2921,-4.3214,-4.2732,-4.2616,-4.2494,0.0,0.0,-4.2972,0.0,0.0,0.0,0.0,0.0,0.0,0.0,0.0,0.0,0.0,0.0,0.0,0.0,0.0,0.0,0.0,0.0,0.0,-5.893,-5.9099,-5.9776,-6.1231,-6.2009,-6.2753,-6.3497,-6.3599,-6.4309,-6.5662,-6.5865,-6.7015,-6.9113,-6.918,-6.9958,-7.1312,-7.1312,-7.1312,-7.1312,-7.1312,-7.1312,-7.1312,-7.1312,-7.2157,-7.3477,-7.3477,-7.439,-7.5709,-7.5709,-7.5709,-7.5709,-3.37,-3.4536,-3.5253,-3.5112,-3.6606,-3.7776,-3.7806,-3.7584,-3.7102,-3.6075,-3.6004,-3.5937,-3.5646,-3.5124,-3.5318,-3.6616,0.0,-3.5081,0.0,0.0,-3.4709,-3.4709,-3.2848,-3.251,-3.3998,-3.3626,-3.3626,-3.4032,-3.3626,-3.3626,-3.3998,-3.2848,-3.2983,-3.4269,-3.5656,-3.6603,-3.711,-3.7449,-3.799,0.0,0.0,0.0,0.0,-4.4519,-4.753,-4.8612,-5.1319,-5.2807,-5.3382,0.0,-5.0947,0.0,0.0,0.0,0.0,-4.6604,-4.5501,-4.3731,-4.3432,-4.4433,-4.5236,-4.3704,-4.4309,0.0,-4.3168,0.0,-4.3178,0.0,0.0,0.0,0.0,0.0,0.0,0.0,0.0,0.0,0.0,0.0,0.0,0.0,0.0,0.0,0.0,0.0,0.0,0.0,0.0,-5.8389,-5.9911,-6.1501,-6.2516,-6.2854,-6.3294,-6.3802,-6.441,-6.485,-6.5764,-6.7151,-6.7996,-6.8977,-7.006,-7.0939,-7.1312,-7.1312,-7.1312,-7.1312,-7.1312,-7.1312,-7.1921,-7.2902,-7.3308,-7.439,-7.5709,-7.5709,-7.5709,-7.5709,-3.4252,-3.4975,-3.5699,-3.5532,-3.6983,-3.8155,-3.811,-3.7818,-3.7415,-3.684,-3.6299,-3.5971,-3.6189,-3.5419,-3.5734,-3.7767,-3.6983,-3.6738,0.0,0.0,-3.6434,-3.684,-3.4303,0.0,-3.5385,-3.4506,-3.4167,-3.4506,-3.3964,-3.3964,-3.4472,-3.3389,-3.3761,-3.5351,-3.6569,-3.7922,-3.9309,-3.9512,-3.958,-3.9614,-4.0696,-4.0832,-4.0967,-4.5771,-4.8646,-5.0304,-5.2029,-5.2875,-5.3247,-5.3788,-5.1961,0.0,-5.3788,0.0,-4.5762,-4.9403,-4.8102,-4.5316,-4.4892,-4.5932,0.0,0.0,0.0,0.0,0.0,0.0,0.0,0.0,0.0,0.0,0.0,0.0,0.0,-4.4268,0.0,0.0,0.0,0.0,0.0,0.0,0.0,0.0,0.0,0.0,0.0,0.0,0.0,0.0,-5.8896,-6.0757,-6.1941,-6.2381,-6.2922,-6.3294,-6.3531,-6.4038,-6.4783,-6.5696,-6.7184,-6.8335,-6.9147,-7.0635,-7.1312,-7.1312,-7.1312,-7.1312,-7.1312,-7.1312,-7.1751,-7.2462,-7.3206,-7.4289,-7.5439,-7.5642,-7.5709,-7.5709,-3.5532,-3.5604,-3.6141,-3.7528,-3.8449,-3.8956,-3.8956,-3.7753,-3.6806,0.0,0.0,0.0,0.0,0.0,0.0,0.0,0.0,-4.0696,-4.0054,0.0,-3.8464,0.0,0.0,-3.5487,0.0,-3.6332,-3.5216,-3.4506,-3.4472,-3.4472,-3.4506,-3.4438,-3.4472,-3.4607,-3.6874,-3.8667,-4.0087,-4.0832,-4.32,-4.6481,-4.6515,-4.78,-4.9458,0.0,-4.8173,-5.0371,-5.2638,0.0,0.0,-5.2367,-5.2807,0.0,0.0,0.0,0.0,0.0,0.0,0.0,0.0,0.0,0.0,-4.4511,0.0,0.0,0.0,0.0,-4.3497,0.0,0.0,0.0,0.0,-4.3497,-4.3497,-4.3534,-4.3571,0.0,0.0,0.0,0.0,0.0,0.0,0.0,0.0,0.0,0.0,0.0,0.0,0.0,-5.8829,-5.9742,-6.0858,-6.2347,-6.2415,-6.2787,-6.3497,-6.3531,-6.4275,-6.5696,-6.7184,-6.8335,-6.9147,-7.0635,-7.1312,-7.1312,-7.1312,-7.1312,-7.1312,-7.1312,-7.1751,-7.2462,-7.3206,-7.395,-7.4728,-7.5439,-7.5709,-7.5709,-3.64,-3.6787,-3.7177,-3.7165,-3.8193,-3.9005,-3.9005,-3.8159,0.0,0.0,0.0,0.0,0.0,0.0,-3.9986,0.0,0.0,-4.1508,-4.2252,-4.1373,0.0,0.0,0.0,-3.8058,0.0,-3.7415,-3.5994,-3.525,-3.4742,-3.4742,-3.5216,-3.4742,-3.4776,-3.5351,-3.7618,-3.9715,-4.1576,-4.2354,-4.3978,0.0,0.0,-4.7225,-4.8105,0.0,0.0,-5.1082,-5.2875,-5.3653,0.0,-5.4397,-5.4093,-5.3721,-5.4871,-5.3213,-5.1108,-5.2448,-5.1804,0.0,0.0,0.0,-5.0962,-4.73,0.0,0.0,0.0,0.0,0.0,0.0,0.0,0.0,0.0,-4.3908,-4.3722,-4.43,-4.3908,-4.3608,0.0,0.0,0.0,0.0,0.0,0.0,0.0,0.0,0.0,0.0,0.0,0.0,0.0,-6.0216,-6.1569,-6.3091,-6.3125,-6.3024,-6.2753,-6.2753,-6.3024,-6.3531,-6.5493,-6.6846,-6.7658,-6.9654,-7.0838,-7.1312,-7.1312,-7.1312,-7.1312,-7.1312,-7.1447,-7.1751,-7.2496,-7.3206,-7.4018,-7.5236,-7.5709,-7.5709,-3.7178,-3.7584,-3.7821,-3.7618,-3.8362,-3.9073,-3.9343,0.0,0.0,0.0,-3.8802,0.0,-4.0663,0.0,-4.0764,0.0,-4.2557,-4.2523,-4.3741,-4.3098,0.0,-4.4181,-4.188,0.0,0.0,0.0,-3.799,-3.7212,-3.5926,-3.569,-3.64,-3.5385,-3.5318,-3.6096,-3.728,-3.9309,-4.1948,-4.2692,-4.4215,0.0,0.0,-4.7665,0.0,0.0,-5.098,-5.0033,0.0,-5.4025,-5.4397,-5.5683,-5.5649,-5.5412,-5.7306,-5.5581,-5.3212,-5.5074,-5.4247,-5.2672,-5.2364,-5.3307,0.0,-4.9786,-5.0007,0.0,-4.607,0.0,-4.6241,0.0,0.0,0.0,0.0,-4.5251,-4.3979,-4.5428,-4.4455,-4.3608,0.0,-4.4635,0.0,0.0,0.0,0.0,0.0,0.0,0.0,0.0,0.0,0.0,0.0,0.0,-6.1434,-6.3463,-6.3768,-6.3531,-6.2787,-6.2787,-6.2651,-6.2415,-6.4377,-6.5696,-6.6474,-6.847,-6.9925,-7.0906,-7.0906,-7.1075,-7.1312,-7.1312,-7.1312,-7.1379,-7.2124,-7.2834,-7.3646,-7.4864,-7.5473,-7.5709,-3.7956,-3.799,-3.8227,-3.8937,-3.9073,0.0,0.0,0.0,-3.9073,0.0,-3.9715,-4.0155,-4.0223,-4.0899,-4.1948,-4.3369,-4.3504,0.0,-4.4587,-4.3978,0.0,0.0,-4.4384,-4.391,-4.4621,0.0,0.0,0.0,-3.7889,-3.7212,-3.7889,-3.6366,-3.6096,-3.6806,-3.6028,-3.7753,-4.1305,-4.1982,-4.4079,-4.7022,-4.7868,-4.9357,-5.1116,-5.1319,-4.9526,-4.7631,-5.2739,-5.4194,-5.3991,-5.6089,-5.7273,-5.7881,-5.7881,-5.7881,-5.7881,-5.7881,-5.7881,-5.7442,-5.531,-5.4631,-5.3999,-5.1922,0.0,0.0,0.0,0.0,-4.9591,0.0,0.0,0.0,0.0,0.0,-4.4417,-4.6653,-4.504,-4.3754,0.0,0.0,0.0,0.0,0.0,0.0,0.0,0.0,0.0,0.0,0.0,0.0,0.0,0.0,0.0,-6.3362,-6.414,-6.414,-6.3429,-6.3396,-6.3024,-6.2279,-6.3869,-6.4986,-6.573,-6.7218,-6.8741,-7.0195,-7.0229,-7.0635,-7.1312,-7.1312,-7.1312,-7.1379,-7.209,-7.28,-7.3578,-7.439,-7.51,-7.5709,-3.8734,-3.914,-3.958,0.0,-4.0257,-4.0696,0.0,0.0,0.0,0.0,-4.1136,-4.1339,-4.2455,-4.3267,-4.3876,-4.4248,-4.479,0.0,0.0,0.0,0.0,-4.7293,-4.6447,-4.5771,-4.5432,-4.3166,0.0,-4.0087,-3.843,-3.7719,-3.7889,-3.6941,-3.6874,-3.7584,-3.684,-3.8531,-4.2016,-4.2219,-4.4993,-4.9424,-5.1319,-5.1082,0.0,0.0,-5.186,-4.9695,-5.3315,-5.5175,-5.6055,-5.6596,-5.7273,-5.7881,-5.7881,-5.7881,-5.7881,-5.7881,-5.7881,-5.778,-5.7205,-5.7009,-5.6571,-5.4938,-5.449,-5.3998,0.0,0.0,0.0,0.0,0.0,0.0,0.0,0.0,0.0,-4.5757,-4.4406,-4.3571,0.0,0.0,0.0,0.0,0.0,0.0,0.0,0.0,0.0,0.0,0.0,0.0,0.0,0.0,0.0,-6.2584,-6.2854,-6.2618,-6.1873,-6.1873,-6.1467,-6.0723,-6.3362,-6.4986,-6.573,-6.7218,-6.8741,-7.0229,-7.077,-7.1142,-7.1312,-7.1312,-7.1312,-7.1345,-7.1515,-7.236,-7.3646,-7.4931,-7.554,-7.5709,-3.9478,-3.9783,0.0,-4.0087,0.0,0.0,-4.1644,0.0,0.0,-4.2658,-4.2726,0.0,-4.3369,-4.4113,-4.4722,-4.5026,-4.5466,0.0,-4.6143,0.0,0.0,-4.7902,-4.78,-4.7564,-4.7158,-4.5263,0.0,-4.2049,0.0,-3.9174,-3.8836,-3.8048,-3.8003,-3.8687,-3.8249,-3.9513,-4.2161,-4.3237,-4.5614,-4.8815,-5.0777,-5.1082,0.0,-5.3179,-5.3653,-5.3247,-5.4938,-5.6089,-5.6867,-5.7171,-5.7543,-5.7881,-5.7881,-5.7881,-5.7881,-5.7881,-5.7881,-5.7881,-5.7881,-5.8118,-5.8186,-5.7374,-5.7593,-5.7431,-5.5244,-5.5575,-5.6077,0.0,0.0,0.0,0.0,0.0,0.0,0.0,0.0,0.0,0.0,0.0,0.0,0.0,0.0,0.0,0.0,0.0,0.0,0.0,0.0,0.0,0.0,0.0,0.0,-6.1806,-6.1907,-6.14,-6.0317,-6.1603,-6.1535,-6.0148,-6.3159,-6.4986,-6.573,-6.688,-6.8267,-6.9755,-7.05,-7.0804,-7.0838,-7.1176,-7.1312,-7.1345,-7.165,-7.2496,-7.3612,-7.4796,-7.5439,-7.5709,-4.0087,-4.0155,0.0,0.0,0.0,0.0,0.0,-4.2997,0.0,-4.3707,0.0,-4.4654,-4.4079,-4.4688,-4.5432,-4.6075,0.0,-4.6413,-4.7056,-4.7699,-4.8071,-4.8071,-4.868,-4.9018,-4.9018,-4.7564,0.0,0.0,0.0,-4.1053,-4.017,-3.933,-3.9364,-4.0051,-3.9841,-4.0678,-4.245,-4.4848,-4.646,-4.7496,-4.9086,-5.0879,-5.2706,-5.3585,-5.5141,-5.6799,-5.69,-5.6934,-5.7036,-5.7679,-5.7881,-5.7881,-5.7881,-5.7881,-5.7881,-5.7881,-5.7881,-5.7915,-5.8017,-5.8524,-5.9066,-5.9268,-6.0317,-6.0655,-5.8118,-5.8524,-5.9268,-5.8626,-5.685,-5.6535,0.0,0.0,0.0,0.0,0.0,0.0,0.0,0.0,0.0,0.0,0.0,0.0,0.0,0.0,0.0,0.0,0.0,0.0,0.0,0.0,0.0,-6.0588,-6.0994,0.0,-5.8896,0.0,-6.2381,-6.0148,-6.326,-6.5087,-6.573,-6.6474,-6.7658,-6.9147,-6.9857,-7.0229,-7.0398,-7.1041,-7.1312,-7.1379,-7.2124,-7.28,-7.3443,-7.4289,-7.4999,-7.5574,-4.0087,-4.0595,-4.0832,0.0,0.0,-4.1644,-4.3031,-4.3335,-4.3876,-4.5128,-4.594,-4.6583,-4.709,-4.78,-4.8274,-4.8409,-4.8409,0.0,0.0,0.0,0.0,-4.8815,-4.8951,-4.9018,-4.9018,-4.7564,-4.6075,0.0,0.0,-4.2112,-4.0745,-4.0473,-4.0771,-4.1435,-4.0784,-4.2115,-4.4921,-4.7153,0.0,-5.0642,-5.2773,-5.3856,-5.4329,-5.5716,-5.6461,-5.6867,-5.7476,-5.7712,-5.7712,-5.7848,-5.7881,-5.7881,-5.7881,-5.7881,-5.7881,-5.7881,-5.7881,-5.8017,-5.866,-5.893,-5.9336,-6.0588,-6.1095,-6.1332,-6.14,-6.1603,-6.1772,-6.1637,-6.124,-6.051,-5.8778,0.0,0.0,0.0,0.0,0.0,0.0,0.0,0.0,0.0,0.0,0.0,0.0,0.0,0.0,0.0,0.0,0.0,0.0,0.0,0.0,0.0,0.0,0.0,0.0,0.0,-6.2381,-6.0148,-6.3768,-6.5561,-6.573,-6.6474,-6.7658,-6.9147,-6.9857,-7.0534,-7.1142,-7.1278,-7.1312,-7.1379,-7.2124,-7.2462,-7.2766,-7.4119,-7.4695,-7.4897,-4.1238,-4.1204,-4.1102,0.0,0.0,0.0,0.0,-4.4993,0.0,-4.6752,-4.7496,-4.8071,-4.8443,-4.8781,-4.9154,-4.9526,-4.956,-4.956,-4.956,-4.956,-4.939,-4.9018,-4.9018,0.0,-4.9018,-4.8308,-4.6819,-4.4587,0.0,-4.3158,-4.0886,-4.1463,-4.1944,-4.2297,-4.312,-4.4121,-4.5431,-4.8142,0.0,-5.1386,-5.3281,-5.4702,-5.5818,-5.6528,-5.7036,-5.7408,-5.7746,-5.7881,-5.7881,-5.7881,-5.7881,-5.7881,-5.7881,-5.7881,-5.7881,-5.7881,-5.8152,-5.8558,-5.893,-5.9607,-6.0385,-6.1129,-6.1603,-6.1941,-6.2313,-6.2381,-6.2381,-6.2381,-6.2381,-6.1486,-5.8348,-5.5317,0.0,0.0,0.0,0.0,0.0,0.0,0.0,0.0,0.0,0.0,0.0,0.0,0.0,0.0,0.0,0.0,0.0,0.0,0.0,0.0,0.0,0.0,0.0,0.0,0.0,-5.9573,-6.4106,-6.6271,-6.6305,-6.7049,-6.7996,-6.9147,-6.9857,-7.0398,-7.077,-7.1142,-7.1312,-7.1345,-7.1684,-7.2056,-7.2529,-7.3646,-7.4289,-7.4728,-4.2794,-4.2455,0.0,0.0,-4.2388,0.0,-4.5026,-4.6921,-4.8274,-4.8578,-4.9255,-4.9763,-4.9932,-4.9965,-5.0202,-5.0777,-5.0676,-5.0507,-5.0338,-5.0168,-4.9763,-4.9052,-4.9018,-4.9018,-4.9018,-4.9018,-4.78,0.0,0.0,-4.4277,-4.1801,-4.2573,-4.312,-4.3535,-4.528,-4.6173,0.0,0.0,-5.0754,-5.1826,-5.3348,-5.5006,-5.6596,-5.69,-5.7374,-5.7881,-5.7881,-5.7881,-5.7881,-5.7881,-5.7881,-5.7881,-5.7881,-5.7881,-5.7915,-5.8084,-5.8558,-5.9099,-5.9404,-6.0385,-6.1332,-6.1501,-6.1975,-6.2381,-6.2381,-6.2381,-6.2381,-6.2381,-6.2381,-6.1418,-5.8357,-5.6707,0.0,0.0,0.0,0.0,0.0,0.0,0.0,0.0,0.0,0.0,0.0,0.0,0.0,0.0,0.0,0.0,0.0,0.0,0.0,0.0,0.0,-5.7457,-5.7049,0.0,-6.2956,0.0,-6.4681,-6.6812,-6.6846,-6.7421,-6.8098,-6.8876,-6.962,-7.0128,-7.0466,-7.1075,-7.1312,-7.1312,-7.1312,-7.165,-7.2259,-7.2969,-7.3713,-7.4492,0.0,0.0,0.0,0.0,0.0,0.0,-4.7259,-4.8342,-4.939,-5.0744,-5.1522,-5.2266,-5.301,-5.3078,-5.3112,-5.3179,-5.2503,-5.1826,-5.115,-5.0473,-4.9763,-4.9052,-4.9018,-4.9018,-4.9018,-4.9018,-4.8545,0.0,0.0,-4.5716,-4.4706,-4.402,-4.4521,-4.5965,-4.6177,0.0,0.0,-5.0794,-5.185,-5.3416,-5.4905,-5.5649,-5.5953,-5.7273,-5.7814,-5.7881,-5.7881,-5.7881,-5.7881,-5.7881,-5.7881,-5.7881,-5.7881,-5.7881,-5.8017,-5.8693,-5.8964,-5.9336,-6.0723,-6.1197,-6.1467,-6.211,-6.2347,-6.2381,-6.2381,-6.2381,-6.2381,-6.2381,-6.2381,-6.1434,-5.8428,-5.9384,-5.8796,0.0,0.0,0.0,0.0,0.0,0.0,-5.5071,0.0,0.0,0.0,0.0,0.0,0.0,-5.0468,0.0,0.0,0.0,0.0,-5.5934,0.0,-5.7116,-5.7669,-6.1647,0.0,-6.4106,-6.5933,-6.6812,-6.6812,-6.688,-6.732,-6.8064,-6.8876,-6.9958,-7.121,-7.1278,-7.1312,-7.1312,-7.1312,-7.1345,-7.1515,-7.2225,-7.2969,-7.3713,0.0,0.0,0.0,0.0,0.0,0.0,0.0,-5.0236,-5.1386,-5.2435,-5.2841,-5.3145,-5.345,-5.3518,-5.3518,-5.3518,-5.3213,-5.2706,-5.1928,-5.1183,-5.0439,-4.9695,-4.9255,-4.9018,-4.9018,-4.9424,-4.9086,0.0,0.0,0.0,-4.5277,-4.4809,-4.5645,-4.7638,-4.8679,-4.9847,-5.108,-5.2062,-5.3173,-5.416,-5.4329,-5.4938,-5.5716,-5.5852,-5.619,-5.663,-5.707,-5.7239,-5.7306,-5.7746,-5.7881,-5.7881,-5.7881,-5.8186,-5.8626,-5.893,-5.9674,-6.052,-6.1129,-6.1637,-6.2009,-6.2313,-6.2381,-6.2381,-6.2381,-6.2381,-6.2381,-6.2381,-6.2381,-6.2009,-6.0825,-6.0245,-5.9455,0.0,0.0,0.0,0.0,0.0,0.0,-5.7765,0.0,-5.6152,0.0,0.0,0.0,0.0,0.0,0.0,0.0,0.0,0.0,-5.6204,0.0,-5.8909,-5.9204,-6.2494,-6.4118,-6.3971,-6.5899,-6.6812,-6.6812,-6.6812,-6.7489,-6.8673,-6.9417,-7.0364,-7.1312,-7.1312,-7.1312,-7.1312,-7.1312,-7.1312,-7.1413,-7.2124,-7.2868,-7.3612,-4.7327,0.0,-4.6921,0.0,-4.8206,-4.9052,-5.0507,-5.1623,-5.2604,-5.3382,-5.3518,-5.3518,-5.3518,-5.3518,-5.3518,-5.3518,-5.3518,-5.3179,-5.2367,-5.1623,-5.0879,-5.0135,-4.939,0.0,-4.9323,-4.983,-4.9796,-4.9221,-4.8037,0.0,-4.6995,-4.6428,-4.7299,0.0,-5.0538,-5.1295,-5.1843,-5.3006,-5.3788,-5.4262,-5.3957,-5.4465,-5.5344,-5.504,-5.5243,-5.5818,-5.6562,-5.6799,-5.6934,-5.7881,-5.822,-5.822,-5.822,-5.8592,-5.9099,-5.9539,-6.0452,-6.1366,-6.1569,-6.2009,-6.2381,-6.2381,-6.2381,-6.2381,-6.2381,-6.2381,-6.2381,-6.2381,-6.2381,-6.2381,-6.2381,-6.1095,-6.0075,-6.0219,0.0,0.0,0.0,-5.9566,0.0,0.0,-5.7712,0.0,0.0,0.0,0.0,0.0,0.0,0.0,0.0,0.0,0.0,0.0,0.0,0.0,0.0,-6.2561,-6.3913,-6.4512,-6.6068,-6.6812,-6.6812,-6.6812,-6.7658,-6.9147,-6.9654,-7.0432,-7.1312,-7.1312,-7.1312,-7.1312,-7.1312,-7.1312,-7.1379,-7.1887,-7.2529,-7.3274,-4.8984,-4.8984,-4.9187,-4.9932,-5.0067,-5.0574,-5.2063,-5.23,-5.2604,-5.3382,-5.3518,-5.3518,-5.3518,-5.3518,-5.3518,-5.3518,-5.3518,-5.3179,-5.2367,-5.1623,-5.0879,0.0,0.0,-4.9357,-5.0067,-5.0101,-5.0811,-5.2266,0.0,0.0,-5.0873,-4.9378,-4.958,-5.115,-5.1183,-5.2029,-5.345,-5.3484,-5.3518,-5.3585,-5.4296,-5.46,-5.4668,-5.5412,-5.5716,-5.5818,-5.6562,-5.6799,-5.7036,-5.849,-5.8998,-5.8998,-5.8998,-5.8998,-5.9302,-6.0825,-6.1298,-6.1467,-6.2178,-6.2381,-6.2381,-6.2381,-6.2381,-6.2381,-6.2381,-6.2381,-6.2381,-6.2381,-6.2381,-6.2381,-6.2381,-6.2381,-6.1359,-5.8221,0.0,0.0,0.0,0.0,0.0,-5.5829,0.0,0.0,-5.6282,0.0,0.0,0.0,0.0,0.0,0.0,0.0,0.0,-5.7801,-5.6485,0.0,-6.1114,-6.1293,-6.3158,-6.6779,-6.6812,-6.6812,-6.6812,-6.6812,-6.7658,-6.9113,-6.9113,-6.9958,-7.1312,-7.1312,-7.1312,-7.1312,-7.1312,-7.1312,-7.1312,-7.1312,-7.1785,-7.2529,-4.8917,-4.9018,-4.939,-5.0642,-5.0845,-5.1352,-5.2875,-5.3112,-5.3213,-5.3484,-5.3518,-5.3518,-5.3518,-5.3518,-5.3518,0.0,-5.3518,-5.3382,0.0,-5.2401,-5.186,-5.1623,-5.0913,-5.0608,-5.0845,-5.1352,-5.1826,-5.23,0.0,0.0,0.0,-5.0413,-5.124,-5.2773,-5.2773,-5.3044,-5.3518,-5.3518,-5.3518,-5.3518,-5.3754,-5.3856,-5.389,-5.4126,-5.4499,-5.504,-5.5784,-5.6393,-5.7036,-5.8524,-5.9032,-5.9201,-6.025,-6.0588,-6.0655,-6.1163,-6.167,-6.211,-6.2347,-6.2381,-6.2381,-6.2381,-6.2381,-6.2381,-6.2381,-6.2381,-6.2381,-6.2381,-6.2381,-6.2381,-6.2381,-6.2381,-6.1945,-6.0425,-6.1199,0.0,-5.9027,0.0,-6.0143,-5.8839,-5.7824,0.0,0.0,-5.6972,0.0,0.0,0.0,0.0,0.0,0.0,0.0,0.0,-6.0194,0.0,-6.2741,-6.3319,-6.4633,-6.6812,-6.6812,-6.6812,-6.6812,-6.6812,-6.7658,-6.9147,-6.962,-7.0398,-7.1312,-7.1312,-7.1312,-7.1312,-7.1312,-7.1312,-7.1312,-7.1312,-7.1785,-7.2496,-4.939,-4.9661,-5.0304,-5.1826,-5.23,-5.2909,-5.416,-5.4329,-5.4329,-5.4329,-5.4329,-5.4329,-5.4329,-5.4329,0.0,-5.3551,-5.3518,-5.3518,-5.3518,-5.2739,-5.23,-5.23,-5.1589,-5.1352,-5.1623,-5.2063,0.0,-5.2739,-5.1826,-5.1386,-5.1386,-5.186,-5.2604,-5.3518,-5.3518,-5.3518,-5.3518,-5.3518,-5.3518,-5.3518,-5.3518,-5.3687,-5.3923,-5.3923,-5.4363,-5.5141,-5.6156,-5.6664,-5.7103,-5.9167,-5.9674,-5.9674,-6.1231,-6.1704,-6.1704,-6.1704,-6.2042,-6.2381,-6.2381,-6.2381,-6.2381,-6.2381,-6.2381,-6.2381,-6.2381,-6.2381,-6.2381,-6.2381,-6.2381,-6.2381,-6.2381,-6.2381,-6.2198,-6.1816,-6.2123,-6.2002,-6.0764,0.0,-6.1014,0.0,0.0,0.0,0.0,-5.865,0.0,0.0,0.0,0.0,0.0,0.0,0.0,-6.0212,-6.2092,0.0,-6.3903,-6.4339,-6.5216,-6.6373,-6.6102,-6.6136,-6.6406,-6.6677,-6.7658,-6.9147,-6.9857,-7.0635,-7.1312,-7.1312,-7.1312,-7.1312,-7.1312,-7.1312,-7.1312,-7.1312,-7.1616,-7.209,-5.0473,-5.0879,-5.1826,0.0,-5.4126,0.0,-5.5615,-5.5716,-5.5716,-5.5716,-5.5716,-5.5716,-5.5716,-5.5716,-5.5175,-5.3788,0.0,0.0,0.0,-5.2909,-5.2469,-5.2469,-5.1758,-5.1691,-5.2367,-5.2367,-5.2739,-5.3518,-5.3518,-5.3518,-5.3518,-5.3518,-5.3518,-5.3518,-5.3518,-5.3518,-5.3518,-5.3518,-5.3551,-5.3585,-5.3585,-5.4025,-5.4668,-5.4668,-5.5141,-5.5987,-5.734,-5.7408,-5.7306,-6.025,-6.0723,-6.0351,-6.1907,-6.2381,-6.2381,-6.2381,-6.2381,-6.2381,-6.2381,-6.2381,-6.2381,-6.2381,-6.2381,-6.2381,-6.2381,-6.2381,-6.2381,-6.2381,-6.2381,-6.2381,-6.2381,-6.2381,-6.2381,-6.2381,-6.2381,-6.2115,-6.1392,-6.1872,-6.1023,0.0,0.0,0.0,0.0,-5.8015,-5.8875,0.0,0.0,0.0,0.0,0.0,-5.887,-6.2596,-6.2701,-6.3345,-6.4772,-6.4772,-6.5035,-6.5662,-6.4952,-6.4952,-6.5628,-6.644,-6.7624,-6.9079,-6.9891,-7.0669,-7.1312,-7.1312,-7.1312,-7.1312,-7.1312,-7.1312,-7.1312,-7.1312,-7.1312,-7.1413,0.0,0.0,-5.3247,-5.416,-5.4465,-5.4837,-5.5615,-5.5716,-5.5716,-5.5716,-5.5716,-5.5716,-5.5716,-5.5716,-5.5581,-5.5209,-5.5209,-5.5209,-5.5209,-5.4465,-5.4059,-5.4059,-5.3348,-5.3044,-5.3213,-5.3213,-5.3315,-5.3518,-5.3518,-5.3518,-5.3518,-5.3518,-5.3518,-5.3518,-5.3518,-5.3518,-5.3518,-5.3518,-5.3822,-5.4329,-5.4329,-5.4769,-5.5446,-5.5446,-5.5919,-5.6596,-5.6934,-5.7306,-5.7915,-5.9742,-6.025,-6.0351,-6.1907,-6.2381,-6.2381,-6.2381,-6.2381,-6.2381,-6.2381,-6.2381,-6.2381,-6.2381,-6.2381,-6.2381,-6.2381,-6.2381,-6.2381,-6.2381,-6.2381,-6.2381,-6.2381,-6.2381,-6.2381,-6.2381,-6.2381,-6.2115,-6.1392,-6.1424,-6.1183,0.0,-6.0359,-6.0662,-6.1231,-6.1291,-6.1047,0.0,0.0,0.0,0.0,-6.1493,-6.3102,-6.5699,-6.5801,-6.5914,-6.6296,-6.6296,-6.6113,-6.5662,-6.4952,-6.4681,-6.4884,-6.6203,-6.732,-6.8301,-7.0229,-7.1142,-7.1312,-7.1312,-7.1312,-7.1312,-7.1312,-7.1312,-7.1312,-7.1312,-7.1312,-7.1413,-5.3585,-5.3788,-5.4228,-5.4972,-5.5378,-5.5852,-5.6596,-5.6697,-5.6697,-5.6697,-5.6697,-5.6697,-5.6697,-5.6697,-5.6562,-5.6258,-5.5919,-5.5581,-5.5209,-5.5141,-5.4803,-5.4126,-5.4363,-5.4194,-5.3518,-5.3822,-5.3822,-5.3518,-5.3518,-5.3518,-5.3518,-5.3518,-5.3518,-5.3518,-5.3518,-5.3687,-5.3991,-5.3991,-5.4431,-5.5108,-5.5108,-5.5547,-5.6224,-5.6224,-5.6664,-5.7374,-5.8084,-5.8118,-5.822,-6.0419,-6.0689,-6.0351,-6.1907,-6.2381,-6.2381,-6.2381,-6.2381,-6.2381,-6.2381,-6.2381,-6.2381,-6.2381,-6.2381,-6.2381,-6.2381,-6.2381,-6.2381,-6.2381,-6.2381,-6.2381,-6.2381,-6.2381,-6.2381,-6.2381,-6.2157,-6.1747,-6.136,-6.1327,-6.1327,-6.1327,-6.1624,-6.1968,-6.2391,-6.2381,-6.2164,-6.1667,-6.1736,0.0,-6.2568,-6.3501,-6.4571,-6.5722,-6.6403,-6.6812,-6.6812,-6.6136,-6.5595,-6.5189,-6.4106,-6.3937,-6.4647,-6.5797,-6.7083,-6.8538,-7.0128,-7.1007,-7.1312,-7.1312,-7.1312,-7.1312,-7.1312,-7.1312,-7.1312,-7.1312,-7.1312,-7.1379,-5.4296,-5.4668,-5.5277,-5.5919,-5.6562,-5.7171,-5.778,-5.7881,-5.7881,-5.7881,-5.7881,-5.7881,-5.7881,-5.7881,-5.7645,-5.7036,-5.6393,-5.5716,-5.4972,-5.5513,-5.531,-5.4059,-5.5006,-5.4972,-5.3687,-5.416,-5.4126,-5.3518,-5.3518,-5.3518,-5.3518,-5.3518,-5.3518,-5.3518,-5.3619,-5.4025,-5.46,-5.4702,-5.5209,-5.5886,-5.5886,-5.6325,-5.6968,-5.7103,-5.7509,-5.822,-5.9471,-5.9201,-5.8626,-6.1163,-6.1264,-6.052,-6.1941,-6.2381,-6.2381,-6.2381,-6.2381,-6.2381,-6.2381,-6.2381,-6.2381,-6.2381,-6.2381,-6.2381,-6.2381,-6.2381,-6.2381,-6.2381,-6.2381,-6.2381,-6.2381,-6.2381,-6.2358,-6.2063,-6.1615,-6.1188,-6.0982,-6.1155,-6.1327,-6.1327,-6.1934,-6.2381,-6.2381,-6.2482,-6.2854,-6.3632,-6.3178,-6.3673,-6.5433,-6.5172,-6.4835,-6.464,-6.6051,-6.6812,-6.6812,-6.5561,-6.4884,-6.4749,-6.3362,-6.3429,-6.4783,-6.5392,-6.6948,-6.9147,-6.9857,-7.0635,-7.1312,-7.1312,-7.1312,-7.1312,-7.1312,-7.1312,-7.1312,-7.1312,-7.1312,-7.1312,-5.7239,-5.7306,-5.7408,-5.7543,-5.7645,-5.7746,-5.7881,-5.7881,-5.7881,-5.7881,-5.7881,-5.7881,-5.7881,-5.7881,-5.7848,-5.7712,-5.7611,-5.7239,-5.6528,-5.6562,-5.6528,-5.6292,-5.531,-5.4668,-5.4431,-5.3923,-5.3619,-5.3518,-5.3518,-5.3518,-5.3518,-5.3518,-5.3518,-5.3518,-5.416,-5.4465,-5.4634,-5.5277,-5.5953,-5.663,-5.663,-5.707,-5.778,-5.8423,-5.8727,-5.8863,-5.9099,-5.9438,-5.9844,-6.0283,-6.0757,-6.1264,-6.211,-6.2381,-6.2381,-6.2381,-6.2381,-6.2381,-6.2381,-6.2381,-6.2381,-6.2381,-6.2381,-6.2381,-6.2381,-6.2381,-6.2381,-6.2381,-6.2381,-6.2381,-6.2381,-6.2381,-6.197,-6.0696,-6.0909,-6.0843,-5.9545,-6.0456,-6.1327,-6.1327,-6.1934,-6.2381,-6.2381,-6.2956,-6.3632,-6.4377,-6.4945,-6.5062,-6.4793,-6.5892,-6.5926,-6.46,-6.6051,-6.6812,-6.6812,-6.6576,-6.617,-6.5493,-6.4681,-6.4681,-6.5527,-6.5628,-6.6948,-6.9147,-6.9857,-7.0635,-7.1312,-7.1312,-7.1312,-7.1312,-7.1312,-7.1312,-7.1312,-7.1312,-7.1312,-7.1312,-5.7374,-5.7306,-5.7306,-5.7306,-5.7306,-5.7442,-5.7814,-5.7881,-5.7881,-5.7881,-5.7881,-5.7881,-5.7881,-5.7881,-5.7712,-5.734,-5.7645,-5.7577,-5.6867,-5.6799,-5.6258,-5.5074,-5.5513,-5.5615,-5.5209,-5.4093,-5.3518,-5.3518,-5.3518,-5.3518,-5.3518,-5.3518,-5.3721,-5.4093,-5.4431,-5.504,-5.5818,-5.6156,-5.6731,-5.7374,-5.7374,-5.7577,-5.7983,-5.8727,-5.8761,-5.8524,-5.9302,-5.9573,-5.9641,-6.0486,-6.0994,-6.1434,-6.2144,-6.2381,-6.2381,-6.2381,-6.2381,-6.2381,-6.2381,-6.2381,-6.2381,-6.2381,-6.2381,-6.2381,-6.2381,-6.2381,-6.2381,-6.2381,-6.2381,-6.2381,-6.2381,-6.2381,-6.2047,-6.0908,-6.1085,-6.0911,-5.9839,-6.0558,-6.1327,-6.1327,-6.1934,-6.255,-6.2956,-6.3294,-6.3971,-6.5121,-6.5493,-6.5691,-6.5756,-6.6452,-6.6471,-6.579,-6.6403,-6.6812,-6.6812,-6.6406,-6.6034,-6.5696,-6.5358,-6.5561,-6.6305,-6.6711,-6.7692,-6.9147,-6.9857,-7.0398,-7.0737,-7.1142,-7.1312,-7.1312,-7.1312,-7.1312,-7.1312,-7.1312,-7.1312,-7.1379,-5.7171,-5.707,-5.707,-5.707,-5.707,-5.7239,-5.7814,-5.7881,-5.7881,-5.7881,-5.7881,-5.7881,-5.7881,-5.7881,-5.7679,-5.7103,-5.7577,-5.7509,-5.6596,-5.6562,-5.5852,-5.4329,-5.5581,-5.5953,-5.5209,-5.4262,-5.3687,-5.3518,-5.3687,-5.3687,-5.3518,-5.3687,-5.4059,-5.46,-5.4938,-5.575,-5.6799,-5.6968,-5.7374,-5.7915,-5.8084,-5.8152,-5.822,-5.8964,-5.8896,-5.8524,-5.9505,-5.9708,-5.9708,-6.0689,-6.1264,-6.1637,-6.2212,-6.2381,-6.2381,-6.2381,-6.2381,-6.2381,-6.2381,-6.2381,-6.2381,-6.2381,-6.2381,-6.2381,-6.2381,-6.2381,-6.2381,-6.2381,-6.2381,-6.2381,-6.2381,-6.2381,-6.2115,-6.1185,-6.1188,-6.1051,-6.0288,-6.0839,-6.1463,-6.18,-6.2293,-6.2956,-6.37,-6.3903,-6.4478,-6.5595,-6.5865,-6.6203,-6.6779,-6.6812,-6.6812,-6.6812,-6.6812,-6.6812,-6.6812,-6.6237,-6.6034,-6.6203,-6.6034,-6.6542,-6.7624,-6.7793,-6.8538,-6.962,-7.0026,-7.0297,-7.05,-7.1075,-7.1312,-7.1312,-7.1312,-7.1312,-7.1312,-7.1312,-7.1312,-7.1413,-5.7814,-5.7814,-5.7814,-5.7814,-5.7814,-5.7814,-5.7881,-5.7881,-5.7881,-5.7881,-5.7881,-5.7881,-5.7881,-5.7881,-5.7881,-5.7814,-5.7848,-5.7306,-5.5886,-5.5784,-5.6021,-5.6528,-5.5412,-5.4431,-5.3687,-5.4228,-5.416,-5.3518,-5.416,-5.416,-5.3518,-5.4194,-5.4532,-5.4668,-5.6021,-5.6697,-5.6833,-5.7509,-5.7848,-5.7949,-5.866,-5.893,-5.8998,-5.9742,-5.9979,-5.9844,-5.9302,-5.9979,-6.1028,-6.0419,-6.1129,-6.2313,-6.2381,-6.2381,-6.2381,-6.2381,-6.2381,-6.2381,-6.2381,-6.2381,-6.2381,-6.2381,-6.2381,-6.2381,-6.2381,-6.2381,-6.2381,-6.2381,-6.2381,-6.2381,-6.2381,-6.2381,-6.1945,-6.0425,-6.0773,-6.1016,-6.0186,-6.0808,-6.1762,-6.3148,-6.3362,-6.3734,-6.4444,-6.5121,-6.5561,-6.5662,-6.6339,-6.6745,-6.6812,-6.6812,-6.6812,-6.6812,-6.6812,-6.6812,-6.6812,-6.6779,-6.7083,-6.7726,-6.7049,-6.7861,-6.9891,-6.8538,-6.9079,-7.1109,-7.0466,-7.0601,-7.1244,-7.1312,-7.1312,-7.1312,-7.1312,-7.1312,-7.1312,-7.1312,-7.1312,-7.1413,-5.7881,-5.7881,-5.7881,-5.7881,-5.7881,-5.7881,-5.7881,-5.7881,-5.7881,-5.7881,-5.7881,-5.7881,-5.7881,-5.7881,-5.7881,-5.7881,-5.7881,-5.7645,-5.7103,-5.707,-5.6799,-5.6156,-5.5141,-5.4905,-5.5547,-5.4905,-5.4465,-5.416,-5.3991,-5.3788,-5.3518,-5.4262,-5.4837,-5.5344,-5.6359,-5.7036,-5.7509,-5.8287,-5.8592,-5.866,-5.9404,-5.9404,-5.9133,-6.0385,-6.025,-5.9505,-6.0182,-6.0791,-6.1264,-6.096,-6.1535,-6.2381,-6.2381,-6.2381,-6.2381,-6.2381,-6.2381,-6.2381,-6.2381,-6.2381,-6.2381,-6.2381,-6.2381,-6.2381,-6.2381,-6.2381,-6.2381,-6.2381,-6.2381,-6.2381,-6.2381,-6.2381,-6.2081,-6.0976,-6.1444,-6.1708,-6.0909,-6.1478,-6.2361,-6.3362,-6.3531,-6.3971,-6.5155,-6.5527,-6.5865,-6.6339,-6.6643,-6.6812,-6.6812,-6.6812,-6.6812,-6.6812,-6.6812,-6.6812,-6.6812,-6.6812,-6.7184,-6.7895,-6.8132,-6.891,-7.0195,-7.006,-7.0229,-7.0635,-7.0804,-7.077,-7.0635,-7.1109,-7.1312,-7.1312,-7.1312,-7.1312,-7.1312,-7.1312,-7.1616,-7.209,-5.7881,-5.7881,-5.7881,-5.7881,-5.7881,-5.7881,-5.7881,-5.7881,-5.7881,-5.7881,-5.7881,-5.7881,-5.7881,-5.7881,-5.7881,-5.7881,-5.7881,-5.778,-5.7577,-5.734,-5.6867,-5.6089,-5.5344,-5.531,-5.6089,-5.5344,-5.4735,-5.4262,-5.3991,-5.3856,-5.3856,-5.46,-5.5344,-5.6089,-5.6833,-5.7408,-5.7915,-5.8457,-5.866,-5.8761,-5.9708,-5.981,-5.9505,-6.0791,-6.0655,-5.9844,-6.0622,-6.1095,-6.1298,-6.1298,-6.1772,-6.2381,-6.2381,-6.2381,-6.2381,-6.2381,-6.2381,-6.2381,-6.2381,-6.2381,-6.2381,-6.2381,-6.2381,-6.2381,-6.2381,-6.2381,-6.2381,-6.2381,-6.2381,-6.2381,-6.2381,-6.2381,-6.2242,-6.1753,-6.2055,-6.2242,-6.1718,-6.2089,-6.2753,-6.3734,-6.3869,-6.441,-6.5899,-6.6034,-6.6271,-6.6779,-6.6812,-6.6812,-6.6812,-6.6812,-6.6812,-6.6812,-6.6812,-6.6812,-6.6812,-6.6812,-6.732,-6.8267,-6.8842,-6.962,-7.0567,-7.1075,-7.1041,-7.0567,-7.1075,-7.1007,-7.0567,-7.1109,-7.1312,-7.1312,-7.1312,-7.1312,-7.1312,-7.1312,-7.1785,-7.2496,-5.7881,-5.7881,-5.7881,-5.7881,-5.7881,-5.7881,-5.7881,-5.7881,-5.7881,-5.7881,-5.7881,-5.7881,-5.7881,-5.7881,-5.7881,-5.7881,-5.7881,-5.7577,-5.6867,-5.6122,-5.6055,-5.6799,-5.6122,-5.5378,-5.4634,-5.5344,-5.4972,-5.3518,-5.4228,-5.46,-5.46,-5.5378,-5.6122,-5.6833,-5.7577,-5.7881,-5.7881,-5.7915,-5.7915,-5.8051,-5.9505,-6.0114,-6.0216,-6.0994,-6.1298,-6.1197,-6.0419,-6.0622,-6.1298,-6.1298,-6.1772,-6.2381,-6.2381,-6.2381,-6.2381,-6.2381,-6.2381,-6.2381,-6.2381,-6.2381,-6.2381,-6.2381,-6.2381,-6.2381,-6.2381,-6.2381,-6.2381,-6.2381,-6.2381,-6.2381,-6.2381,-6.2381,-6.2381,-6.2381,-6.2381,-6.2381,-6.2381,-6.2415,-6.2956,-6.4444,-6.4613,-6.5189,-6.6677,-6.6812,-6.6812,-6.6812,-6.6812,-6.6812,-6.6812,-6.6812,-6.6812,-6.6812,-6.6812,-6.6812,-6.6812,-6.6812,-6.759,-6.9113,-6.9113,-6.9891,-7.1312,-7.1312,-7.1312,-7.1312,-7.1312,-7.1312,-7.1312,-7.1312,-7.1312,-7.1312,-7.1312,-7.1312,-7.1312,-7.1312,-7.1785,-7.2496,-5.7701,-5.7881,-5.7881,-5.7881,-5.7881,-5.7881,-5.7881,-5.7881,-5.7881,-5.7881,-5.7881,-5.7881,-5.7881,-5.7881,-5.7881,-5.7881,-5.7881,-5.7814,-5.7577,-5.7374,-5.734,-5.7543,-5.6393,-5.5852,-5.6122,-5.5344,-5.4702,-5.4262,-5.4465,-5.46,-5.4634,-5.5886,-5.6596,-5.6833,-5.7577,-5.7881,-5.7949,-5.8998,-5.9438,-5.9573,-6.1095,-6.14,-6.1028,-6.1772,-6.1738,-6.1332,-6.1603,-6.1873,-6.2076,-6.2076,-6.2212,-6.2381,-6.2381,-6.2381,-6.2381,-6.2381,-6.2381,-6.2381,-6.2381,-6.2381,-6.2381,-6.2381,-6.2381,-6.2381,-6.2381,-6.2381,-6.2381,-6.2381,-6.2381,-6.2381,-6.2381,-6.2381,-6.2381,-6.2381,-6.2381,-6.2584,-6.3091,-6.3193,-6.3734,-6.5189,-6.5358,-6.573,-6.6711,-6.6812,-6.6812,-6.6812,-6.6812,-6.6812,-6.6812,-6.6812,-6.6812,-6.6812,-6.6812,-6.6812,-6.6812,-6.6812,-6.759,-6.9113,-6.9113,-6.9891,-7.1312,-7.1312,-7.1312,-7.1312,-7.1312,-7.1312,-7.1312,-7.1312,-7.1312,-7.1312,-7.1312,-7.1312,-7.1312,-7.1312,-7.209,-7.3206,-5.7114,-5.7554,-5.7881,-5.7881,-5.7881,-5.7881,-5.7881,-5.7881,-5.7881,-5.7881,-5.7881,-5.7881,-5.7881,-5.7881,-5.7881,-5.7881,-5.7881,-5.7881,-5.7881,-5.7881,-5.7881,-5.7881,-5.6765,-5.6224,-5.6359,-5.548,-5.504,-5.504,-5.504,-5.548,-5.6359,-5.6934,-5.7408,-5.7679,-5.7814,-5.8051,-5.8389,-5.9302,-5.9844,-6.0216,-6.1467,-6.1704,-6.1366,-6.211,-6.211,-6.1772,-6.2245,-6.2381,-6.2381,-6.2381,-6.2381,-6.2381,-6.2381,-6.2381,-6.2381,-6.2381,-6.2381,-6.2381,-6.2381,-6.2381,-6.2381,-6.2381,-6.2381,-6.2381,-6.2381,-6.2381,-6.2381,-6.2381,-6.2381,-6.2381,-6.2381,-6.2381,-6.2381,-6.2381,-6.2381,-6.2651,-6.3396,-6.3531,-6.4072,-6.5493,-6.5696,-6.5967,-6.6745,-6.6812,-6.6812,-6.6812,-6.6812,-6.6812,-6.6812,-6.6812,-6.6812,-6.6812,-6.6812,-6.6812,-6.6812,-6.7117,-6.7861,-6.9113,-6.9113,-6.9891,-7.1312,-7.1312,-7.1312,-7.1312,-7.1312,-7.1312,-7.1312,-7.1312,-7.1312,-7.1312,-7.1312,-7.1312,-7.1312,-7.1312,-7.2225,-7.3477,-5.6204,-5.7039,-5.7808,-5.7881,-5.7881,-5.7881,-5.7881,-5.7881,-5.7881,-5.7881,-5.7881,-5.7881,-5.7881,-5.7881,-5.7881,-5.7881,-5.7881,-5.7881,-5.7881,-5.7881,-5.7881,-5.7881,-5.7306,-5.6664,-5.5919,-5.5852,-5.5818,-5.5818,-5.5953,-5.7002,-5.8896,-5.8287,-5.8355,-5.8998,-5.8287,-5.8423,-5.9133,-5.9201,-5.9607,-6.0283,-6.1095,-6.14,-6.1467,-6.2144,-6.2381,-6.2381,-6.2381,-6.2381,-6.2381,-6.2381,-6.2381,-6.2381,-6.2381,-6.2381,-6.2381,-6.2381,-6.2381,-6.2381,-6.2381,-6.2381,-6.2381,-6.2381,-6.2381,-6.2381,-6.2381,-6.2381,-6.2381,-6.2381,-6.2381,-6.2381,-6.2381,-6.2381,-6.2381,-6.2381,-6.2448,-6.2753,-6.3497,-6.3666,-6.4241,-6.5628,-6.5797,-6.6068,-6.6745,-6.6812,-6.6812,-6.6812,-6.6812,-6.6812,-6.6812,-6.6812,-6.6812,-6.6812,-6.6812,-6.6812,-6.6812,-6.7523,-6.8301,-6.9113,-6.918,-6.9958,-7.1312,-7.1312,-7.1312,-7.1312,-7.1312,-7.1312,-7.1312,-7.1312,-7.1312,-7.1312,-7.1312,-7.1312,-7.1312,-7.1312,-7.2225,-7.351,-5.5857,-5.636,-5.6854,-5.7701,-5.7881,-5.7881,-5.7881,-5.7881,-5.7881,-5.7881,-5.7881,-5.7881,-5.7881,-5.7881,-5.7881,-5.7881,-5.7881,-5.7881,-5.7881,-5.7881,-5.7881,-5.7881,-5.8321,-5.8186,-5.7442,-5.6867,-5.6562,-5.6562,-5.7746,-5.8254,-5.8152,-5.8558,-5.8863,-5.8998,-5.8829,-5.9167,-5.9911,-6.052,-6.0892,-6.1095,-6.1839,-6.2144,-6.2178,-6.2347,-6.2381,-6.2381,-6.2381,-6.2381,-6.2381,-6.2381,-6.2381,-6.2381,-6.2381,-6.2381,-6.2381,-6.2381,-6.2381,-6.2381,-6.2381,-6.2381,-6.2381,-6.2381,-6.2381,-6.2381,-6.2381,-6.2381,-6.2381,-6.2381,-6.2381,-6.2381,-6.2381,-6.2381,-6.2381,-6.2381,-6.2888,-6.3531,-6.4275,-6.485,-6.5561,-6.644,-6.6576,-6.6643,-6.6779,-6.6812,-6.6812,-6.6812,-6.6812,-6.6812,-6.6812,-6.6812,-6.6812,-6.6812,-6.6812,-6.6812,-6.6812,-6.7523,-6.8301,-6.9113,-6.9688,-7.0432,-7.1312,-7.1312,-7.1312,-7.1312,-7.1312,-7.1312,-7.1312,-7.1312,-7.1312,-7.1312,-7.1312,-7.1312,-7.1312,-7.1312,-7.2225,-7.3646,-5.4389,-5.5458,-5.636,-5.6963,-5.7554,-5.7881,-5.7881,-5.7881,-5.7881,-5.7881,-5.7881,-5.7881,-5.7881,-5.7881,-5.7881,-5.7881,-5.7881,-5.7881,-5.7881,-5.7881,-5.8051,-5.8423,-5.8795,-5.8998,-5.893,-5.8964,-5.8761,-5.8389,-5.9167,-5.9539,-5.9505,-5.9539,-5.9539,-5.9505,-5.9167,-5.9641,-6.0689,-6.1129,-6.1501,-6.1839,-6.2245,-6.2381,-6.2381,-6.2381,-6.2381,-6.2381,-6.2381,-6.2381,-6.2381,-6.2381,-6.2381,-6.2381,-6.2381,-6.2381,-6.2381,-6.2381,-6.2381,-6.2381,-6.2381,-6.2381,-6.2381,-6.2381,-6.2381,-6.2381,-6.2381,-6.2381,-6.2381,-6.2381,-6.2381,-6.2381,-6.2381,-6.2381,-6.2516,-6.2854,-6.326,-6.3903,-6.4952,-6.5459,-6.5967,-6.6711,-6.6812,-6.6812,-6.6812,-6.6812,-6.6812,-6.6812,-6.6812,-6.6812,-6.6812,-6.6812,-6.6812,-6.6812,-6.6812,-6.6812,-6.6812,-6.7929,-6.8673,-6.9113,-6.9857,-7.0601,-7.1312,-7.1312,-7.1312,-7.1312,-7.1312,-7.1312,-7.1312,-7.1312,-7.1312,-7.1312,-7.1312,-7.1312,-7.1345,-7.1718,-7.2766,-7.4187,-5.29,-5.4389,-5.5698,-5.5889,-5.6701,-5.7406,-5.7554,-5.7628,-5.7701,-5.7881,-5.7881,-5.7881,-5.7881,-5.7881,-5.7881,-5.7881,-5.7881,-5.7881,-5.7881,-5.7881,-5.822,-5.8998,-5.9133,-5.9539,-6.0283,-6.1095,-6.1095,-6.0317,-6.0419,-6.0689,-6.1095,-6.0554,-6.0216,-6.008,-5.9607,-6.0182,-6.1501,-6.1501,-6.1839,-6.2381,-6.2381,-6.2381,-6.2381,-6.2381,-6.2381,-6.2381,-6.2381,-6.2381,-6.2381,-6.2381,-6.2381,-6.2381,-6.2381,-6.2381,-6.2381,-6.2381,-6.2381,-6.2381,-6.2381,-6.2381,-6.2381,-6.2381,-6.2381,-6.2381,-6.2381,-6.2381,-6.2381,-6.2381,-6.2381,-6.2381,-6.2381,-6.2381,-6.2618,-6.3396,-6.3632,-6.4174,-6.5493,-6.5797,-6.6102,-6.6745,-6.6812,-6.6812,-6.6812,-6.6812,-6.6812,-6.6812,-6.6812,-6.6812,-6.6812,-6.6812,-6.6812,-6.6812,-6.6812,-6.6812,-6.6812,-6.8335,-6.9113,-6.9113,-6.9958,-7.0703,-7.1312,-7.1312,-7.1312,-7.1312,-7.1312,-7.1312,-7.1312,-7.1312,-7.1312,-7.1312,-7.1312,-7.1312,-7.1413,-7.2259,-7.3443,-7.4728,-5.2723,-5.3165,-5.3656,-5.4672,-5.492,-5.5329,-5.6282,-5.6437,-5.6778,-5.7808,-5.7881,-5.7881,-5.7881,-5.7881,-5.7881,-5.7881,-5.7881,-5.7881,-5.7881,-5.7881,-5.822,-5.8998,-5.9607,-6.0317,-6.1129,-6.1873,-6.1873,-6.1129,-6.1772,-6.1467,-6.0283,-6.0858,-6.0757,-6.0148,-6.0723,-6.1467,-6.2245,-6.2245,-6.2313,-6.2381,-6.2381,-6.2381,-6.2381,-6.2381,-6.2381,-6.2381,-6.2381,-6.2381,-6.2381,-6.2381,-6.2381,-6.2381,-6.2381,-6.2381,-6.2381,-6.2381,-6.2381,-6.2381,-6.2381,-6.2381,-6.2381,-6.2381,-6.2381,-6.2381,-6.2381,-6.2381,-6.2381,-6.2381,-6.2381,-6.2381,-6.2381,-6.2381,-6.2618,-6.3396,-6.4038,-6.4749,-6.5561,-6.6237,-6.6711,-6.6812,-6.6812,-6.6812,-6.6812,-6.6812,-6.6812,-6.6812,-6.6812,-6.6812,-6.6812,-6.6812,-6.6812,-6.6812,-6.6812,-6.6812,-6.6812,-6.8335,-6.9113,-6.9113,-7.05,-7.121,-7.1312,-7.1312,-7.1312,-7.1312,-7.1312,-7.1312,-7.1312,-7.1312,-7.1312,-7.1312,-7.1312,-7.1312,-7.1481,-7.2834,-7.3883,-7.4728,-5.188,-5.2485,-5.3077,-5.3569,-5.4168,-5.4755,-5.5215,-5.5777,-5.636,-5.6854,-5.748,-5.7881,-5.7881,-5.7881,-5.7881,-5.7881,-5.8287,-5.8524,-5.8524,-5.8896,-5.9471,-6.025,-6.0622,-6.1129,-6.1907,-6.2212,-6.2245,-6.1907,-6.2245,-6.1839,-6.0791,-6.1129,-6.1129,-6.0791,-6.1129,-6.1704,-6.2381,-6.2381,-6.2381,-6.2381,-6.2381,-6.2381,-6.2381,-6.2381,-6.2381,-6.2381,-6.2381,-6.2381,-6.2381,-6.2381,-6.2381,-6.2381,-6.2381,-6.2381,-6.2381,-6.2381,-6.2381,-6.2381,-6.2381,-6.2381,-6.2381,-6.2381,-6.2381,-6.2381,-6.2381,-6.2381,-6.2381,-6.2381,-6.2381,-6.2381,-6.2381,-6.2381,-6.2787,-6.3937,-6.4377,-6.4986,-6.617,-6.6609,-6.6812,-6.6812,-6.6812,-6.6812,-6.6812,-6.6812,-6.6812,-6.6812,-6.6812,-6.6812,-6.6812,-6.6812,-6.6812,-6.6812,-6.6812,-6.6812,-6.6812,-6.8335,-6.9113,-6.9113,-7.0601,-7.1312,-7.1312,-7.1312,-7.1312,-7.1312,-7.1312,-7.1312,-7.1312,-7.1312,-7.1312,-7.1312,-7.1312,-7.1819,-7.2597,-7.324,-7.4221,-7.527]}]]